GFSSE_sfc_thetae_000.txt.gz
Theta_e
349 356 364 366 365 366 367 367 367 367 367 367 367 369 368 369 369 369 369 369 369 369 368 366 368 366 365 365 363 363 362 362 363 361 359 357 357 356 357 354 356 352 357
352 357 367 367 366 366 366 367 367 367 368 369 369 368 369 370 371 369 369 369 368 368 367 366 366 366 364 364 363 361 362 360 360 360 359 357 358 359 357 356 357 354 355
353 356 361 368 367 367 367 366 366 367 369 369 369 368 368 368 369 369 369 369 368 367 365 364 364 364 363 363 363 362 359 357 358 357 356 355 355 359 358 357 358 357 355
353 356 358 368 368 368 367 367 368 367 368 369 368 368 368 368 369 369 368 368 366 367 364 364 363 361 360 359 359 359 359 356 356 353 355 353 353 359 356 359 357 355 356
359 360 363 369 368 367 368 369 370 369 369 369 369 368 367 367 365 364 365 365 365 366 364 363 362 360 359 358 358 358 359 359 358 356 354 353 353 357 356 354 354 351 353
359 360 366 369 368 369 369 369 370 369 369 370 368 368 367 366 366 364 364 364 364 363 363 362 360 359 359 358 358 358 359 359 357 354 353 357 356 359 357 355 356 352 353
357 360 364 372 372 370 371 370 370 370 369 368 368 366 367 366 365 364 364 363 362 361 360 360 359 358 358 360 360 360 358 358 356 354 353 352 357 361 359 355 356 354 355
355 359 361 369 370 368 370 369 370 369 369 369 368 367 368 365 364 362 362 361 360 359 358 359 359 358 358 359 359 360 358 358 354 356 356 356 359 361 359 354 354 355 355
359 360 362 363 366 369 371 369 369 369 368 367 367 366 365 364 363 362 362 360 358 358 358 360 361 358 360 361 361 362 360 359 356 356 356 353 361 361 358 357 352 351 351
357 361 364 364 364 365 366 370 369 369 368 367 365 363 364 364 364 360 360 361 361 359 359 361 361 361 361 363 363 363 361 360 356 354 353 355 361 361 358 357 355 353 349
355 358 357 361 365 369 366 364 368 368 368 366 364 364 364 359 358 343 341 351 362 361 360 360 361 363 362 362 364 364 361 354 355 359 356 356 363 360 359 357 356 354 355
351 354 357 358 362 364 360 365 366 363 362 363 362 365 362 362 360 353 342 350 362 361 361 362 362 361 358 354 358 361 357 353 356 355 355 355 361 361 359 360 358 356 354
353 352 355 364 367 365 359 363 365 363 362 362 367 367 370 365 353 360 359 358 362 364 360 361 360 357 357 355 353 352 355 353 350 355 356 360 362 361 361 359 359 358 357
350 354 358 358 363 366 360 361 362 361 363 354 364 369 367 363 366 366 361 363 364 360 362 361 359 362 357 358 355 352 351 349 350 354 358 361 361 361 360 360 360 358 356
349 351 358 364 364 372 365 368 357 359 356 361 363 366 365 366 364 364 363 362 361 362 361 361 360 358 357 355 356 355 350 350 350 353 356 362 360 362 362 362 360 361 359
350 352 356 362 367 369 372 372 372 366 361 368 365 362 367 363 364 359 361 358 365 359 364 359 360 357 356 356 354 354 353 353 353 355 353 357 360 361 362 362 363 362 361
349 352 356 357 364 367 368 372 371 366 360 360 364 369 367 367 365 362 361 357 357 362 363 360 358 356 354 352 354 352 354 354 353 354 355 357 356 361 362 363 363 365 365
351 357 357 354 360 366 367 369 366 364 363 366 364 361 364 367 365 363 357 355 357 359 356 353 355 353 352 352 351 352 353 353 352 354 354 354 355 356 360 363 362 363 366
357 358 359 361 361 366 366 368 366 368 368 365 365 365 364 368 364 363 361 359 360 354 353 352 351 354 348 347 348 348 351 352 349 348 351 352 352 353 356 359 359 361 363
358 360 361 362 366 365 369 370 367 367 362 363 365 359 366 366 363 367 362 358 358 357 354 353 351 352 351 349 346 345 347 350 349 346 346 349 352 351 351 356 357 356 361
355 362 360 366 370 370 366 365 367 364 368 362 364 365 365 368 363 364 362 359 360 354 354 355 352 348 347 352 346 343 346 347 347 349 348 346 346 349 350 352 357 355 356
357 361 364 367 370 370 370 371 366 365 364 363 361 365 364 361 361 361 361 357 355 352 352 353 352 347 346 348 340 338 333 338 344 346 348 345 346 347 347 349 351 355 355
353 359 363 368 367 370 370 369 367 364 363 359 360 352 357 354 354 358 358 356 356 355 347 350 350 345 342 347 345 338 330 328 335 343 346 347 346 345 346 348 350 350 355
353 359 363 368 370 369 369 366 361 353 345 356 356 352 352 354 354 353 355 355 354 352 349 348 348 347 348 340 344 346 341 338 332 329 341 345 348 345 346 347 347 350 351
353 354 362 368 368 365 362 358 353 352 346 349 349 352 355 352 353 351 355 354 352 349 349 348 348 347 346 344 341 341 342 338 340 334 329 334 341 348 347 346 344 346 350
350 353 360 363 363 362 358 356 353 352 350 347 348 347 344 348 348 354 351 351 352 348 348 346 348 346 345 344 342 339 338 335 333 332 330 332 335 339 346 346 344 345 345

GFSSE_sfc_thetae_003.txt.gz
Theta_e
349 358 364 364 365 366 367 368 369 368 368 368 368 368 368 369 370 370 370 370 370 369 369 368 369 366 364 363 363 362 361 361 360 360 358 357 357 358 356 353 356 352 354
352 360 366 367 366 366 367 369 368 368 368 369 369 369 370 369 371 370 369 370 369 369 368 367 367 365 365 364 364 362 360 361 357 357 357 356 358 357 356 355 357 352 354
354 359 360 366 367 367 368 367 366 366 369 369 369 370 371 370 370 370 370 370 369 369 365 364 365 364 364 363 363 361 358 361 358 356 355 353 356 358 357 357 357 355 356
355 358 362 366 368 367 368 367 369 369 370 370 370 370 370 370 370 370 368 367 368 367 364 364 364 363 362 361 361 360 360 360 357 355 353 354 353 357 358 357 356 356 355
354 359 362 369 368 368 368 369 370 370 370 369 369 370 370 370 368 366 366 366 367 368 366 363 362 362 361 360 359 360 360 360 358 355 355 351 349 357 355 355 353 353 354
356 361 368 370 369 370 371 370 371 371 370 370 369 368 368 368 367 365 365 365 364 365 366 364 363 362 362 360 360 359 359 359 355 355 354 355 351 358 355 357 355 352 354
357 362 366 370 370 370 370 372 372 371 370 370 369 368 368 370 367 367 365 363 362 361 362 364 362 361 360 359 360 360 357 357 354 353 351 351 355 361 357 357 354 355 354
356 362 364 370 371 371 371 370 372 371 369 369 369 369 368 369 368 366 363 361 360 359 359 360 365 363 360 360 361 360 358 356 354 353 355 352 360 361 357 354 356 355 356
357 359 363 365 367 370 372 371 370 369 370 370 370 369 367 366 365 364 365 363 361 359 359 360 362 365 364 362 361 362 358 358 353 354 355 354 361 361 357 354 356 355 356
356 358 358 361 364 365 366 372 369 369 369 370 369 367 367 365 362 362 356 358 362 363 361 361 361 362 364 362 362 360 359 359 354 354 352 352 360 362 358 357 351 351 356
356 357 357 358 360 361 363 367 371 370 371 369 368 368 365 357 354 351 353 352 359 363 361 360 359 361 361 360 362 362 361 355 353 356 354 355 361 361 360 359 355 353 352
349 355 356 357 358 360 361 361 363 363 363 360 359 359 359 355 353 355 348 347 360 362 361 360 359 360 358 350 349 363 356 354 352 352 350 357 361 362 360 359 356 354 356
350 351 352 354 357 357 360 359 358 356 359 359 358 358 357 353 349 352 351 350 351 358 355 359 355 354 351 349 348 348 350 349 347 353 355 356 361 362 360 360 358 356 355
346 349 355 359 356 355 357 358 357 358 357 356 358 357 355 352 350 353 353 353 353 351 351 352 350 352 349 350 349 348 345 343 345 353 356 360 361 363 363 361 360 358 357
344 353 354 354 356 355 354 356 353 356 356 354 355 356 355 352 350 353 352 352 352 352 350 350 350 349 350 350 349 349 346 343 343 353 353 363 361 362 362 362 360 360 358
343 351 355 354 357 355 356 356 355 356 353 356 355 354 358 355 352 351 350 349 353 349 352 350 349 348 347 349 349 349 348 345 344 346 353 357 362 361 363 364 362 362 361
344 346 351 354 358 355 355 356 357 357 357 352 353 353 354 354 351 351 347 349 349 350 350 350 349 350 347 347 344 347 348 346 346 347 348 354 355 361 362 363 365 364 364
342 347 346 355 356 356 357 357 356 353 355 356 353 354 355 357 353 350 347 348 348 349 346 344 343 342 343 344 342 343 344 346 347 347 349 349 352 353 360 363 362 364 365
346 347 345 347 352 356 356 358 357 357 356 355 356 355 354 355 355 352 350 350 345 344 343 343 342 343 341 340 341 340 341 343 346 349 347 348 348 352 353 358 359 360 363
347 348 350 349 352 355 355 355 357 354 351 355 356 353 352 351 355 350 348 347 347 346 345 344 341 342 342 341 345 344 341 342 342 343 343 347 348 348 349 353 354 355 360
349 349 350 347 353 354 352 351 350 348 350 352 354 355 351 352 352 350 348 347 347 345 344 343 342 339 337 340 336 335 337 341 342 342 343 343 343 347 348 347 353 353 353
347 351 353 353 355 355 355 354 353 352 353 352 355 352 350 348 350 350 348 345 342 342 340 338 339 336 337 340 332 330 324 329 335 340 340 343 340 342 344 347 348 352 353
349 352 354 356 356 356 353 355 352 349 348 344 347 347 341 339 340 343 341 340 341 340 338 338 337 335 333 336 336 330 324 319 327 330 334 342 341 338 339 342 344 349 351
351 354 356 356 354 356 354 351 343 336 326 338 339 339 338 340 339 339 340 341 339 339 338 338 341 336 336 332 334 336 331 330 324 322 330 334 336 339 338 338 341 343 343
351 352 352 355 356 348 337 339 331 326 331 335 336 334 330 334 339 342 343 339 338 338 338 339 337 336 335 333 331 331 330 330 327 324 322 326 331 335 338 339 341 340 339
348 352 356 353 344 342 336 333 329 328 329 329 332 330 332 332 333 340 339 336 337 336 336 335 337 336 335 333 332 330 328 325 325 323 321 322 325 329 334 338 340 342 342

GFSSE_sfc_thetae_006.txt.gz
Theta_e
349 355 362 362 362 362 364 366 367 367 366 366 366 369 369 369 369 369 369 369 368 369 365 366 365 363 362 362 362 360 360 360 359 357 357 358 359 356 354 354 355 349 353
354 357 362 364 365 366 367 367 368 367 367 368 367 369 369 370 369 370 370 368 367 367 366 365 364 363 363 362 360 358 360 357 356 356 356 357 357 356 356 355 354 351 354
356 358 361 366 367 366 367 367 367 369 369 369 369 369 370 369 369 368 368 366 367 365 364 364 363 362 361 361 360 358 356 357 355 355 354 354 355 356 357 356 354 355 354
356 358 361 366 368 367 367 368 368 368 368 369 370 369 369 370 370 368 365 365 365 364 363 362 361 361 360 359 359 360 357 356 354 353 352 354 352 355 355 354 354 355 351
357 359 361 367 368 366 368 369 369 369 367 369 369 370 370 368 366 365 365 364 364 364 362 361 360 360 359 358 358 359 357 357 356 353 353 349 348 354 354 353 353 354 352
357 360 366 368 366 367 369 369 369 368 366 369 369 368 367 366 364 365 365 364 364 363 362 361 360 360 359 358 359 358 357 357 353 353 353 352 352 353 354 353 353 354 355
357 361 362 367 367 368 369 370 370 369 368 367 367 366 367 368 365 365 364 363 362 361 360 360 358 358 358 358 359 359 357 357 352 351 350 352 353 357 357 356 351 353 352
358 361 362 365 367 368 369 368 369 368 367 367 368 368 367 367 366 365 363 363 361 360 359 358 359 360 359 360 359 358 357 356 353 351 350 350 358 359 355 355 354 354 352
361 361 362 362 364 368 370 369 367 367 367 367 368 368 367 366 363 363 363 363 362 360 358 359 360 362 361 362 361 360 358 356 353 353 354 353 361 358 356 355 354 355 354
357 359 361 361 362 363 364 369 366 367 366 366 366 366 365 364 363 362 359 363 362 361 360 359 361 361 361 361 361 360 360 359 354 352 351 352 361 360 356 354 354 355 356
355 356 358 359 360 361 362 365 368 366 368 367 365 366 366 356 354 348 354 356 358 362 362 360 360 361 362 360 359 361 361 355 351 353 351 355 360 361 358 356 352 352 356
350 352 355 357 358 359 365 357 358 361 362 359 359 358 356 353 352 355 352 352 354 361 362 360 360 360 359 350 348 355 354 354 351 353 351 357 360 361 358 358 355 352 353
352 353 353 356 356 357 358 357 355 357 358 357 355 355 354 352 352 349 349 349 350 356 353 357 355 353 351 348 347 345 347 349 350 351 351 357 359 361 360 358 357 355 354
349 351 352 354 355 356 357 357 356 355 355 355 355 355 352 349 346 350 349 351 351 349 350 350 350 350 348 348 347 347 347 343 342 350 352 358 359 361 364 359 359 356 355
346 349 353 355 354 353 354 355 354 355 356 355 354 355 354 350 348 351 349 350 350 350 348 348 346 346 347 348 349 348 348 347 343 348 350 359 359 360 363 360 360 359 357
347 351 354 353 353 352 351 352 351 351 354 353 353 353 352 350 348 350 349 347 347 347 349 348 347 346 346 346 347 347 347 347 347 343 351 352 361 360 361 363 363 362 359
346 351 350 351 354 352 352 353 353 353 353 352 351 352 350 352 351 349 345 343 347 347 347 347 345 345 343 345 343 345 346 346 346 344 346 351 354 361 360 362 363 363 364
344 349 350 354 354 351 352 354 355 354 352 352 351 350 351 353 352 348 344 343 347 345 345 343 340 339 339 340 340 340 341 342 344 345 345 347 351 353 358 359 360 363 364
342 346 347 351 352 352 354 354 354 354 353 353 352 349 351 351 351 348 345 346 345 342 341 341 341 339 339 338 340 340 338 338 341 346 345 345 346 350 350 356 356 358 362
343 344 343 345 351 353 353 353 353 353 349 350 350 348 350 349 350 351 347 345 345 343 342 342 340 338 339 338 342 342 339 340 340 340 341 344 344 346 350 350 351 352 357
344 344 344 345 349 351 349 347 346 345 347 348 349 352 351 350 350 347 346 344 344 341 340 340 338 337 335 336 333 332 333 336 336 338 341 341 342 344 344 348 349 349 351
343 343 346 345 349 350 349 348 348 347 348 349 350 351 349 347 349 347 345 343 340 339 336 335 334 333 334 337 331 326 321 325 330 334 336 339 340 341 342 344 344 349 347
344 346 347 349 350 351 351 351 349 346 344 341 343 344 341 338 339 340 339 336 337 335 334 334 334 333 330 333 333 328 323 317 324 328 331 333 335 337 339 340 342 344 347
346 350 349 350 351 352 350 349 344 337 327 334 337 337 333 335 337 337 337 339 337 335 334 334 338 333 332 328 331 334 330 328 320 319 326 329 331 332 334 336 341 343 342
348 351 351 351 352 352 347 347 334 326 328 334 334 332 330 330 334 337 340 337 334 334 332 334 332 332 332 329 328 327 326 326 324 320 316 321 325 328 332 334 337 339 341
348 351 352 349 347 341 337 330 325 327 326 329 328 326 327 326 334 338 336 333 333 331 332 332 333 331 331 330 328 326 324 321 320 319 317 318 320 325 328 330 332 335 339

GFSSE_sfc_thetae_009.txt.gz
Theta_e
347 354 361 361 361 361 359 360 361 363 364 364 366 367 366 367 367 368 367 366 365 366 364 363 361 361 361 360 360 360 359 358 356 356 357 358 356 354 354 354 353 349 352
350 354 361 361 361 361 362 363 364 365 365 366 367 367 367 366 366 367 365 364 365 365 364 362 361 362 361 359 357 358 357 356 356 355 356 357 356 354 352 354 352 351 352
351 354 358 363 363 363 364 366 365 365 365 366 367 368 368 366 365 365 364 364 364 363 363 363 361 360 360 359 358 355 354 355 355 355 355 352 353 355 356 352 353 354 355
356 356 359 364 365 365 366 367 367 366 366 368 368 369 368 366 366 365 365 364 363 362 362 361 360 358 358 358 358 358 355 354 354 354 351 352 350 355 354 351 354 352 354
355 357 360 366 366 365 365 368 367 367 367 367 367 367 367 366 364 364 363 362 362 362 360 360 358 357 357 357 357 357 356 355 354 353 351 350 347 353 352 353 353 350 349
355 358 364 365 365 366 366 367 367 367 367 368 368 367 365 364 364 363 363 362 362 361 360 358 358 357 357 357 358 357 356 356 354 351 350 351 349 353 353 350 352 351 351
354 359 360 367 366 367 366 365 365 365 366 368 367 364 364 363 363 363 363 362 361 360 359 359 359 358 358 357 358 358 356 355 350 350 349 350 351 355 354 353 352 354 353
356 358 360 365 366 366 366 364 365 364 363 364 364 365 365 365 364 363 362 361 360 358 358 358 359 359 359 359 359 358 357 356 353 349 349 350 355 357 357 353 351 353 354
358 358 357 358 362 366 368 366 364 364 363 363 365 364 365 364 363 363 362 361 360 359 359 360 361 361 360 360 359 358 358 357 351 350 352 350 360 357 354 353 353 352 353
358 359 358 357 358 359 361 366 365 364 363 363 365 364 364 363 362 362 361 362 362 362 362 361 360 360 361 360 360 359 359 358 350 350 350 351 359 358 356 354 354 354 352
356 356 358 358 358 359 359 361 365 364 365 364 364 364 365 356 354 349 352 358 357 360 361 360 359 358 359 358 358 359 358 352 350 351 351 354 358 359 356 354 354 354 355
350 352 355 357 357 357 363 359 358 357 357 356 357 357 355 352 351 352 354 357 352 358 362 359 360 360 357 349 347 350 347 351 350 348 350 356 358 359 358 356 353 352 356
350 352 354 355 357 356 358 355 356 356 354 355 355 353 353 351 351 349 347 348 348 353 352 354 354 352 350 348 348 346 346 345 347 350 351 356 357 358 360 358 356 352 351
349 350 352 355 355 355 355 355 354 355 352 353 353 353 351 348 346 343 347 348 349 348 348 348 348 347 348 349 347 346 347 346 342 345 350 356 358 358 360 360 358 356 353
348 351 351 354 354 355 353 354 353 353 353 352 353 353 352 349 345 347 349 349 349 348 347 346 345 346 345 346 346 347 346 347 345 342 348 356 358 359 359 360 359 358 356
349 348 351 353 353 352 349 352 351 352 352 353 352 353 353 350 347 347 347 345 345 347 346 347 345 344 344 344 345 345 344 345 346 345 344 349 359 360 360 360 360 359 357
347 348 351 352 352 350 349 350 347 351 350 351 351 351 351 351 348 347 344 342 344 346 345 345 342 340 340 341 341 343 343 343 343 344 343 347 350 358 361 361 361 360 359
346 348 351 353 352 350 350 351 351 352 351 350 350 349 349 350 350 348 342 342 345 343 343 342 339 338 338 338 337 338 339 340 340 343 344 344 347 350 355 360 360 359 358
346 348 348 349 350 349 350 351 351 351 350 350 350 348 348 349 350 347 342 343 343 342 341 339 339 337 336 336 337 338 339 338 339 343 341 342 343 347 348 354 356 357 359
346 348 348 349 349 349 350 350 351 350 350 350 348 348 348 348 349 346 345 345 343 341 339 338 337 336 336 336 339 339 336 336 337 337 339 342 341 343 345 347 346 349 357
342 344 343 344 347 348 347 345 345 346 346 347 348 350 350 348 349 346 344 342 341 338 337 337 336 334 333 334 331 330 330 330 332 334 338 338 339 341 343 344 345 346 347
340 342 341 343 345 349 347 345 346 344 345 345 347 349 349 348 347 346 343 341 339 337 334 333 332 330 331 334 328 325 320 324 327 329 331 335 334 337 340 341 341 344 346
339 340 342 342 346 348 348 346 346 344 342 340 342 343 342 344 344 342 340 336 334 333 332 331 332 330 327 330 330 325 317 315 320 326 329 329 329 330 332 336 340 342 343
340 342 343 344 346 348 348 346 343 340 334 331 336 338 336 333 335 336 335 335 334 333 332 332 335 331 329 325 328 331 327 325 317 316 322 325 326 327 328 331 333 336 340
342 344 345 346 347 348 347 347 343 333 329 332 332 332 329 330 333 334 336 336 333 331 330 332 330 330 329 327 325 324 323 323 322 317 313 317 322 325 327 329 329 332 335
343 346 347 346 347 348 346 344 338 328 328 330 328 327 324 326 328 333 337 332 331 330 330 330 330 329 329 328 326 324 321 318 317 316 314 315 316 320 324 325 326 327 329

GFSSE_sfc_thetae_012.txt.gz
Theta_e
348 353 361 361 360 359 359 360 360 361 362 364 364 365 365 365 366 366 366 365 364 365 363 362 362 362 360 359 359 358 358 357 356 356 358 355 355 353 355 353 353 350 355
349 353 361 361 361 360 360 361 363 363 362 365 366 366 365 364 363 364 365 364 364 363 362 361 362 361 359 357 357 356 355 357 356 356 357 356 355 352 354 353 352 349 353
349 353 358 363 361 361 361 361 361 364 363 366 367 366 364 364 363 363 363 364 363 362 361 361 361 360 359 358 356 353 354 354 355 355 357 354 353 356 354 351 353 353 355
353 354 356 363 363 363 363 365 365 364 364 366 367 367 366 364 363 363 364 362 362 361 360 360 360 358 357 357 357 356 353 353 354 354 354 353 352 355 353 350 355 354 353
354 357 359 363 364 363 364 364 366 365 364 366 366 364 364 364 364 363 362 361 361 360 360 358 358 357 356 357 358 357 355 354 353 354 353 353 352 352 351 351 352 353 353
355 358 363 364 363 364 364 366 365 367 365 365 366 365 364 363 362 362 360 360 359 359 358 358 357 357 357 358 359 358 356 354 354 353 353 353 352 352 352 350 352 349 350
354 358 359 365 365 364 365 365 366 364 363 366 364 363 363 363 362 362 360 360 359 359 358 358 359 358 359 358 359 359 357 355 352 353 352 354 353 354 352 350 351 351 353
355 357 360 363 365 365 363 363 364 364 364 364 364 363 363 363 362 361 360 359 358 358 358 358 359 360 360 360 358 358 357 356 354 352 352 353 353 355 355 351 351 354 352
357 356 357 360 362 364 366 363 363 363 364 363 363 364 364 363 363 362 361 360 360 359 359 360 360 361 360 360 358 358 357 357 355 353 351 353 356 355 356 352 350 351 354
356 356 355 357 358 359 360 363 362 362 362 362 363 364 364 363 362 361 362 361 361 361 362 361 359 359 358 358 358 358 355 355 354 353 354 353 356 357 354 353 353 351 353
355 355 356 356 356 358 358 361 364 363 363 362 362 363 364 358 358 357 353 358 359 359 360 361 359 358 359 358 356 357 357 357 354 354 354 353 356 357 357 354 353 353 352
348 353 355 356 356 358 363 359 358 358 358 359 360 358 357 356 355 351 356 357 358 355 360 360 358 358 356 353 351 352 349 350 354 354 354 354 356 357 358 355 355 353 355
350 352 354 355 356 357 359 357 355 356 356 357 357 357 357 355 352 354 351 350 352 354 354 355 355 353 352 352 352 351 351 350 349 352 354 356 357 357 358 357 354 354 353
348 351 353 355 355 355 355 356 355 355 355 354 355 355 353 352 349 349 348 352 353 351 351 351 351 350 350 351 350 349 351 350 350 349 349 355 359 358 357 358 358 355 353
347 350 351 353 354 355 354 355 354 354 355 354 355 354 354 352 347 346 350 352 352 351 351 350 350 349 348 349 349 349 349 350 350 349 349 355 359 359 358 357 357 358 355
348 349 351 352 353 353 353 353 353 353 354 353 354 354 354 353 348 348 349 351 349 351 350 351 349 348 346 345 346 347 347 348 348 348 348 352 355 359 358 358 358 359 359
348 350 350 351 354 352 352 352 350 352 353 352 353 353 351 354 349 349 347 348 348 348 349 348 347 345 344 344 344 344 344 345 346 346 348 350 352 355 358 360 359 360 358
349 347 350 353 352 351 350 351 351 352 350 350 352 352 350 353 352 350 348 347 348 348 347 346 344 343 343 342 341 342 343 343 344 345 347 348 350 350 354 356 359 359 358
347 348 348 351 351 350 350 351 351 352 352 352 353 353 351 352 352 351 347 347 348 347 346 345 343 343 341 340 341 343 343 342 343 344 344 345 346 349 350 352 356 358 357
345 348 349 350 350 350 350 351 352 352 352 353 353 349 351 351 352 350 348 347 348 345 344 343 342 342 341 341 340 339 339 339 341 341 342 344 344 346 347 350 354 353 352
344 346 346 346 348 349 348 347 348 348 350 350 351 352 352 349 351 349 348 346 346 344 343 342 341 339 339 339 336 336 334 335 335 337 341 339 337 342 344 346 350 352 350
341 345 345 346 347 348 348 348 348 348 348 349 350 351 352 351 351 348 346 345 345 342 339 338 338 336 336 339 334 328 326 329 332 334 337 337 334 336 337 341 343 344 347
339 341 343 344 346 348 349 347 347 347 345 344 346 348 348 349 349 348 345 343 340 339 337 338 337 335 334 336 336 332 323 321 327 331 333 334 333 335 336 338 338 340 342
339 342 343 343 343 347 348 347 345 343 341 340 341 345 343 343 342 342 340 338 339 337 337 337 339 337 335 332 334 336 333 331 324 322 327 329 330 331 334 336 335 335 337
341 340 342 342 343 346 347 348 346 341 339 334 337 340 337 335 337 338 338 340 338 336 336 337 336 336 335 333 331 331 330 329 328 324 319 323 326 330 332 333 333 332 331
340 341 342 342 343 346 347 347 346 342 333 332 333 333 331 330 332 336 339 339 337 335 335 336 335 335 335 334 333 331 328 325 325 324 322 321 322 325 329 330 330 328 327

GFSSE_sfc_thetae_015.txt.gz
Theta_e
348 356 360 359 360 359 360 360 360 359 360 362 364 363 364 365 365 366 366 364 364 364 362 362 362 361 360 360 359 359 358 356 356 357 357 355 354 353 354 354 352 350 354
353 357 361 359 359 360 360 360 361 363 363 363 365 363 365 363 363 364 364 364 364 363 361 362 361 360 359 358 357 357 356 356 356 357 357 355 354 353 354 352 348 350 355
352 356 360 361 361 360 361 361 362 364 364 366 366 365 363 361 362 363 364 364 363 362 362 361 360 359 360 360 359 356 355 353 355 356 355 353 352 355 352 352 353 354 355
352 356 359 362 362 362 361 361 364 362 362 366 366 365 363 362 363 363 363 363 362 362 361 360 360 359 359 359 359 357 355 353 353 355 354 352 350 354 352 353 355 354 354
356 358 362 361 363 363 362 362 363 366 363 363 365 364 363 364 364 363 362 362 361 361 360 359 359 359 359 359 359 357 357 355 353 354 355 356 354 350 350 354 354 353 351
356 359 363 363 363 363 362 363 364 365 365 366 364 363 364 363 362 361 360 360 360 360 359 359 360 359 359 358 358 358 357 355 353 357 357 355 353 351 353 355 350 351 354
356 361 362 364 364 365 365 364 366 365 363 364 364 363 362 363 362 361 361 360 360 359 359 359 359 360 360 359 359 357 358 356 356 358 356 357 353 353 349 351 350 351 353
355 359 361 363 365 365 364 364 365 363 363 363 363 363 362 362 361 360 360 359 359 359 358 359 360 360 361 360 358 358 357 357 356 357 356 358 354 353 353 349 353 352 354
357 358 361 362 365 364 366 363 364 364 363 363 363 363 363 363 361 361 360 360 360 359 360 361 360 359 359 359 357 357 357 356 358 360 355 357 355 354 356 351 350 353 352
356 359 362 364 363 362 362 364 364 364 364 363 363 364 363 363 361 360 361 360 361 361 360 361 360 357 358 357 356 357 356 355 358 359 357 359 356 356 353 353 351 351 354
356 359 360 360 362 365 364 362 362 362 361 361 362 363 362 362 361 361 356 358 359 359 358 360 359 356 359 356 356 356 355 359 358 360 359 355 355 357 355 354 353 353 351
351 356 359 360 360 361 358 365 364 361 360 361 362 364 363 364 363 360 355 359 359 355 358 358 357 357 356 358 358 355 356 356 356 357 359 355 357 357 357 356 355 354 353
351 354 357 361 362 362 363 363 364 363 362 362 364 364 364 362 361 361 362 359 360 358 360 359 360 359 357 358 357 355 355 356 356 356 357 355 357 357 357 358 354 355 354
350 353 356 359 362 363 362 360 361 359 361 359 359 365 362 360 359 360 358 359 363 364 362 361 360 361 359 357 355 354 353 354 355 356 358 353 357 358 358 357 359 356 355
350 353 357 360 361 363 363 361 359 360 358 359 360 362 360 358 363 363 359 361 365 363 360 362 362 360 357 354 353 353 352 354 355 354 355 353 357 358 358 358 357 358 356
351 353 357 359 362 363 362 364 362 361 362 361 361 360 362 361 365 365 363 363 364 361 361 362 361 357 354 353 352 352 351 351 352 353 351 356 353 356 358 358 359 357 358
351 352 354 357 360 362 362 362 363 362 365 360 360 364 362 364 364 363 366 364 361 360 359 359 357 357 353 352 349 348 348 349 348 351 352 354 356 354 355 358 361 360 358
352 352 355 354 356 359 361 362 362 362 361 363 363 366 363 363 364 365 366 362 362 360 358 356 356 353 352 349 347 347 348 348 349 350 351 352 354 354 356 355 356 361 358
355 355 356 357 357 360 362 362 363 366 366 367 362 362 364 364 363 363 362 362 359 357 360 357 355 352 345 343 343 345 346 345 347 346 348 350 351 351 352 356 353 354 357
355 357 358 358 360 362 362 362 360 363 361 362 366 365 363 365 362 360 362 360 358 359 354 355 353 352 347 346 343 342 345 346 348 349 348 346 350 352 353 355 356 357 353
354 356 357 358 361 361 358 357 357 355 361 361 367 361 363 363 362 362 361 358 357 353 353 354 351 348 346 349 343 339 343 344 342 345 345 340 340 344 347 349 351 354 355
352 354 357 358 361 361 359 359 359 359 360 360 362 363 363 362 362 360 359 354 355 351 351 350 350 345 345 349 340 338 331 336 342 343 341 335 336 339 341 343 345 347 347
350 352 355 359 361 361 362 360 359 360 360 357 357 358 360 361 361 360 357 354 354 350 344 349 348 345 341 346 345 339 330 328 332 340 341 336 335 335 337 339 339 338 337
348 352 357 359 360 360 361 358 358 353 352 354 354 356 359 360 358 358 355 352 351 347 349 348 348 348 345 339 344 344 343 339 330 327 334 334 332 331 335 331 332 332 333
349 349 352 357 360 360 360 361 357 356 356 355 352 356 359 356 355 351 350 349 349 347 349 347 347 347 345 342 340 340 341 339 340 329 322 325 330 331 333 334 332 330 331
348 349 350 355 358 358 358 359 359 358 357 352 350 347 351 350 347 348 347 350 351 349 346 345 347 346 344 344 342 339 334 330 330 329 326 327 325 329 330 333 334 332 330

GFSSE_sfc_thetae_018.txt.gz
Theta_e
353 358 359 361 361 359 359 358 358 358 361 365 365 365 366 365 366 366 365 365 364 364 363 363 362 360 360 359 359 358 357 357 357 358 356 356 354 355 353 352 353 348 355
355 358 360 360 360 360 360 360 360 360 361 364 365 364 363 363 363 364 365 364 363 362 363 362 362 361 361 359 357 357 357 356 354 357 355 355 355 355 353 349 352 353 354
353 357 358 359 361 361 361 361 361 362 361 365 363 363 361 362 364 365 364 363 363 363 362 361 360 360 359 359 359 357 355 355 353 355 350 349 353 355 351 355 353 355 355
353 356 357 362 361 362 362 362 363 361 361 364 364 363 362 362 364 364 363 362 363 362 361 360 360 359 359 359 358 357 356 354 352 355 354 346 348 354 351 356 355 355 356
355 359 362 361 362 362 362 362 364 364 363 363 362 362 362 364 364 363 362 362 362 361 360 360 360 360 359 359 358 358 357 355 353 355 353 351 351 351 352 355 356 353 353
356 359 361 362 363 363 363 363 364 364 363 363 362 363 364 363 362 361 361 362 361 360 360 359 360 360 359 359 360 359 357 355 356 357 355 351 351 354 355 352 354 354 354
356 359 362 363 365 364 364 363 363 363 363 363 363 363 363 363 363 362 362 361 360 358 359 359 360 361 360 360 358 356 357 356 358 359 357 352 352 352 350 353 350 351 354
356 357 360 363 364 364 365 363 364 363 363 363 363 363 363 363 362 361 360 359 359 358 358 360 361 359 359 359 357 356 356 358 357 359 359 357 354 354 351 351 352 352 353
358 356 358 362 364 363 365 364 362 362 362 362 362 362 362 362 361 360 359 359 359 359 360 360 360 358 358 356 356 356 355 355 356 359 356 362 354 355 356 351 352 354 354
356 359 360 363 363 361 362 362 362 362 362 362 362 363 363 362 360 360 360 359 360 359 359 359 358 356 357 356 356 357 357 358 357 360 360 360 357 355 357 353 351 353 353
353 356 359 360 361 361 360 361 363 363 363 362 363 362 361 359 361 358 359 358 360 360 359 358 357 356 357 357 355 356 357 359 355 356 358 357 357 358 354 356 352 353 353
353 355 357 357 359 360 357 364 363 360 358 359 360 363 359 362 362 359 359 357 358 354 356 357 356 358 358 357 358 359 356 356 355 358 357 357 357 358 357 356 354 355 352
354 354 356 358 360 360 359 359 359 359 359 359 364 363 361 361 360 362 360 361 363 359 360 359 359 358 356 359 360 355 355 355 355 359 356 357 357 358 358 358 356 354 354
352 354 356 359 361 361 360 358 358 357 357 356 357 363 361 358 359 365 360 363 364 359 360 360 359 360 359 359 357 355 354 354 353 354 359 356 354 358 359 358 358 357 355
351 354 357 360 363 363 364 358 357 356 356 356 357 360 358 355 360 359 359 359 363 361 359 359 359 359 358 358 356 356 353 355 354 353 353 358 355 358 359 359 358 357 357
351 352 356 359 362 364 363 364 360 359 357 357 356 358 363 358 358 357 358 358 357 361 361 361 360 358 357 356 355 355 352 350 350 352 349 354 356 356 359 359 360 359 358
352 353 355 359 361 363 364 363 362 359 359 358 357 362 365 369 365 363 364 357 357 365 362 362 361 359 354 352 352 351 349 347 345 347 349 349 353 355 356 359 360 361 358
353 354 356 355 359 362 364 363 361 360 361 366 361 365 363 365 364 364 359 357 359 359 361 356 356 352 349 346 343 343 342 344 345 347 347 349 349 350 356 357 356 359 358
354 355 356 357 356 360 364 363 364 366 362 360 360 371 363 364 363 361 358 358 362 364 358 357 352 350 341 338 337 341 346 345 346 344 346 349 349 348 347 358 355 354 355
357 358 359 358 361 364 370 366 367 371 362 361 363 362 364 363 362 363 359 361 360 357 356 354 351 346 342 340 338 341 345 348 350 349 346 347 350 352 352 354 354 355 352
356 359 360 361 364 363 361 358 357 354 358 360 363 363 364 364 364 363 357 360 360 355 354 354 346 342 339 347 340 341 342 345 347 348 348 344 344 348 351 353 353 355 355
355 358 362 363 365 365 363 365 359 358 357 359 362 363 365 363 364 361 361 358 358 352 353 346 347 340 340 346 337 336 332 337 340 344 345 338 339 343 344 347 350 350 351
354 357 360 364 365 367 367 363 363 363 361 358 357 357 360 363 363 363 361 357 356 348 340 347 346 344 337 344 345 337 329 329 332 339 342 336 339 337 339 341 340 340 341
353 357 362 364 366 367 368 366 365 355 351 350 353 353 355 361 359 359 360 356 351 343 347 347 348 345 345 338 342 344 343 340 329 328 335 334 334 333 336 333 333 335 336
352 354 358 364 367 368 368 369 361 360 354 354 353 356 359 360 359 358 358 352 349 344 350 351 348 347 344 338 338 341 342 339 340 328 325 329 331 333 334 335 335 334 334
351 353 355 362 368 368 366 366 366 363 360 353 355 351 350 352 356 359 354 351 350 348 350 348 348 347 345 344 341 340 334 332 332 330 327 329 329 332 334 333 333 334 336

GFSSE_sfc_thetae_024.txt.gz
Theta_e
350 355 359 359 358 359 362 364 366 368 368 368 368 369 368 369 368 367 367 367 367 365 365 363 363 361 360 360 360 359 358 358 357 356 356 357 356 353 354 352 351 352 358
353 356 361 360 360 361 361 364 366 367 368 368 368 368 368 368 368 367 367 366 366 365 362 362 361 361 360 360 359 358 357 355 356 356 356 356 355 353 353 356 360 354 356
352 356 357 362 361 362 364 364 365 366 367 367 367 368 368 368 367 366 366 365 364 363 361 361 361 361 360 359 359 357 356 353 352 353 355 354 348 356 355 356 358 357 356
351 352 353 364 362 363 365 365 364 364 364 366 366 367 367 367 366 364 363 362 362 361 361 361 361 361 360 359 359 358 356 355 356 356 355 353 343 357 355 357 357 357 357
350 356 359 363 365 364 365 365 365 365 364 366 366 366 366 365 363 363 362 361 361 361 360 361 361 361 360 360 358 358 357 356 358 357 353 350 346 355 357 357 356 356 356
354 354 361 363 364 365 366 365 366 365 364 365 365 365 363 362 362 362 361 360 360 360 360 361 361 360 360 359 357 356 356 356 359 357 354 352 350 356 358 355 358 356 354
352 355 359 365 366 365 365 366 365 363 363 364 365 363 363 362 361 361 359 358 359 360 360 362 361 359 359 358 355 355 355 357 358 358 352 347 353 358 355 356 356 355 357
352 354 358 365 365 365 366 365 364 362 361 362 363 362 362 362 361 359 357 358 359 360 361 361 360 359 358 355 354 355 355 356 356 355 354 348 354 358 350 353 355 356 354
354 356 360 360 364 365 366 364 363 362 362 362 361 361 361 361 360 359 357 357 358 359 360 360 359 357 356 355 356 357 357 358 357 356 353 352 356 356 356 353 354 355 355
352 356 359 362 363 362 360 363 362 362 361 360 359 360 359 360 361 360 362 361 358 357 358 358 358 356 357 358 359 360 359 354 358 355 355 353 360 358 354 356 355 356 356
351 354 355 357 362 363 360 358 361 361 360 360 360 362 363 358 359 360 364 361 359 358 358 359 360 362 362 363 365 364 359 348 354 350 356 356 359 359 359 354 357 357 357
349 350 354 353 355 360 355 361 361 358 357 359 360 365 361 356 357 362 362 361 357 357 359 361 363 359 363 359 358 363 354 354 353 354 355 359 361 359 360 356 355 356 355
351 351 354 357 358 355 359 359 358 358 359 360 367 361 367 361 360 357 358 367 358 365 359 359 353 346 353 360 359 356 352 352 351 352 355 358 362 361 359 358 355 355 354
350 352 351 360 363 359 358 357 358 358 358 356 361 368 369 365 363 362 356 364 362 359 360 361 351 353 359 360 358 355 352 350 350 355 356 362 362 363 360 361 358 356 356
349 352 356 361 366 370 368 364 358 360 354 359 360 363 362 363 356 362 364 361 364 362 358 359 362 357 354 357 358 359 353 351 349 353 355 360 361 363 363 360 360 358 357
350 351 356 358 364 368 370 375 372 368 368 354 358 361 367 367 368 360 363 362 365 359 359 363 365 364 361 360 356 356 353 352 351 349 350 357 360 362 364 364 361 360 359
350 353 354 357 362 365 368 369 370 366 361 363 359 363 367 370 370 372 366 364 363 366 359 365 364 363 359 356 356 354 345 347 346 346 346 347 358 362 362 363 361 360 361
351 356 358 352 358 363 366 369 362 359 360 362 360 359 361 367 369 370 363 360 358 358 360 357 359 358 352 348 343 343 346 346 346 348 348 346 350 354 359 361 363 361 359
353 357 356 359 357 362 366 365 365 364 361 367 358 359 362 368 366 367 363 359 365 361 362 359 358 352 348 345 339 343 347 347 346 342 343 345 346 345 353 359 358 360 358
352 357 359 358 366 364 363 366 368 361 370 359 364 364 361 367 370 359 361 360 365 364 362 360 355 353 347 343 340 339 344 346 348 343 341 343 342 345 352 352 354 355 355
352 357 359 362 367 367 364 359 359 358 361 360 363 358 363 369 369 370 363 365 365 361 358 355 352 345 345 347 343 340 343 343 344 341 339 341 344 343 349 350 350 353 353
351 355 360 361 369 366 363 364 361 358 359 357 360 368 365 366 367 364 362 362 361 355 354 351 349 344 344 349 339 339 330 334 338 337 343 339 339 342 345 347 349 349 351
350 356 359 362 366 364 368 363 364 366 369 360 361 359 363 366 367 364 366 364 362 358 352 352 350 348 341 347 344 340 332 329 334 341 342 337 338 338 342 341 339 340 342
350 357 361 364 364 368 364 364 362 355 355 358 361 359 363 364 364 365 367 362 360 354 354 351 351 348 347 340 347 343 341 339 332 328 334 338 337 335 334 338 335 335 335
351 354 361 365 366 366 367 366 364 363 354 360 360 363 364 364 365 360 361 362 356 350 356 351 350 348 349 344 341 342 342 338 339 331 328 330 335 336 336 333 334 336 334
350 353 357 364 365 367 367 366 366 362 359 360 363 356 356 356 360 362 361 357 357 352 354 352 351 350 349 348 346 344 337 337 333 334 330 330 330 331 335 336 334 334 335

GFSSE_sfc_thetae_027.txt.gz
Theta_e
348 353 360 361 359 360 363 367 369 368 369 369 369 369 368 367 368 367 367 366 364 364 362 361 361 359 359 359 359 358 360 357 357 357 357 356 354 356 355 355 358 354 355
350 353 360 362 362 362 363 367 367 368 368 368 368 368 367 366 365 366 366 364 363 363 361 361 360 359 359 358 357 358 358 358 357 357 355 354 353 356 358 358 358 352 355
351 354 355 362 363 363 366 366 366 367 367 368 368 368 367 366 365 366 364 363 362 361 360 360 360 359 358 358 357 355 356 355 355 355 356 349 349 357 357 358 358 356 355
352 353 355 362 364 363 365 366 366 365 365 368 367 368 367 366 366 363 363 362 361 361 360 360 360 359 358 358 357 356 356 355 355 355 354 347 349 357 358 358 358 356 355
349 353 357 363 365 365 364 366 366 365 364 365 367 366 365 363 363 362 362 361 361 361 360 360 359 359 359 358 357 356 357 357 357 356 351 342 346 354 358 357 358 358 357
352 357 363 365 363 364 364 366 364 364 364 366 367 366 364 362 362 361 361 360 360 360 361 361 359 358 358 357 355 355 357 358 358 353 344 352 348 357 356 357 358 356 357
351 357 360 366 367 366 365 366 364 363 364 367 367 366 364 363 362 360 359 359 359 359 360 361 359 357 356 357 357 357 358 358 354 353 346 347 350 360 358 358 356 357 357
351 355 358 365 366 367 365 365 363 363 363 367 366 366 366 364 363 363 359 359 358 358 359 359 359 358 356 355 358 358 358 356 354 350 349 350 357 357 357 356 356 357 357
353 354 356 358 361 366 367 364 363 363 363 366 365 365 364 362 359 360 360 358 358 357 357 358 359 361 361 360 359 360 359 358 340 348 350 348 358 352 354 355 356 354 355
352 354 354 356 357 357 358 363 362 363 363 363 362 362 361 361 360 360 363 362 359 358 357 357 360 362 363 364 360 361 358 353 341 342 350 350 359 357 354 354 357 356 356
352 352 354 355 356 354 354 358 362 363 363 363 361 363 363 355 351 359 360 363 360 359 361 359 364 363 365 362 360 357 353 347 345 348 350 355 358 358 358 357 357 357 356
346 350 353 354 355 353 355 353 353 355 354 353 354 354 356 352 352 356 361 364 361 360 361 360 361 346 357 352 353 356 343 339 339 336 353 357 361 360 356 357 357 357 357
347 349 351 353 355 353 351 352 353 353 352 352 351 353 355 357 351 355 355 356 349 361 354 357 356 346 348 350 352 350 351 337 340 346 352 357 360 362 358 355 356 357 355
343 346 348 348 351 350 353 351 352 352 352 351 354 357 353 351 348 351 354 354 354 354 355 353 349 349 349 352 349 349 345 348 350 349 348 358 359 361 361 358 355 355 356
343 346 350 351 352 352 352 349 350 352 354 353 354 354 351 348 351 354 352 352 353 354 352 349 351 352 349 347 350 349 343 345 349 351 351 359 361 361 361 361 358 357 356
344 347 351 352 355 351 354 355 358 355 351 352 353 354 355 352 353 352 355 352 352 353 352 355 352 351 351 352 351 348 347 343 340 350 352 353 359 360 362 362 362 360 358
343 346 350 351 355 353 353 355 352 354 349 348 354 355 354 354 353 353 352 351 352 356 352 353 353 352 353 353 348 348 346 336 335 337 345 350 353 360 361 363 362 361 361
344 349 352 353 352 352 353 356 352 349 350 352 353 352 356 358 355 352 351 351 355 355 354 348 346 348 346 340 331 330 333 333 335 337 338 338 349 352 358 361 363 361 360
343 348 347 350 351 352 354 357 354 353 354 354 351 352 353 357 357 353 353 353 355 351 349 348 344 344 334 332 330 332 335 335 337 340 338 337 339 350 349 357 357 357 356
345 349 348 349 353 353 356 355 355 353 356 354 350 354 354 357 358 353 351 351 351 349 348 345 343 339 333 334 336 333 333 334 336 341 335 340 342 346 351 350 351 350 357
347 349 346 348 353 354 353 352 351 348 352 352 354 356 355 356 356 352 352 351 351 348 345 348 336 330 332 336 328 331 333 336 335 332 333 332 334 347 349 345 346 350 353
345 348 348 349 356 354 354 352 351 348 351 351 351 352 353 357 355 353 350 349 351 350 345 335 333 330 333 335 325 327 325 330 334 334 332 330 331 340 342 342 340 345 346
343 348 349 351 356 355 355 355 353 352 353 353 351 352 358 357 357 353 352 351 349 345 337 335 333 332 329 335 329 328 321 321 330 333 331 328 330 332 333 331 332 333 343
344 349 350 352 357 354 356 351 348 345 344 348 352 350 353 356 355 355 354 350 345 342 338 335 337 334 331 325 334 333 329 328 322 323 328 327 327 326 329 327 326 327 336
345 348 352 352 356 354 352 354 351 348 348 346 344 350 353 352 353 354 354 347 339 341 341 336 334 333 336 334 332 333 327 326 326 320 319 325 330 327 325 326 327 326 329
345 350 353 352 352 357 352 353 353 351 347 341 347 349 351 347 348 350 351 344 340 339 338 337 338 335 333 333 332 331 325 325 323 323 319 319 324 327 326 325 324 326 326

GFSSE_sfc_thetae_030.txt.gz
Theta_e
348 353 361 359 360 362 365 366 367 368 368 368 368 367 365 365 365 366 365 362 363 362 361 360 360 359 358 357 358 359 357 358 357 357 354 356 356 356 356 358 358 348 353
350 354 360 362 361 365 367 367 368 368 367 368 367 366 364 363 364 364 364 361 361 361 361 360 359 359 358 357 358 359 357 358 358 356 353 353 355 356 357 358 356 351 357
350 353 355 361 363 365 366 367 367 366 366 368 368 365 363 363 363 363 362 362 360 360 360 360 359 358 358 358 357 357 356 355 356 355 353 347 349 358 359 357 354 356 357
351 352 355 361 364 364 365 367 367 365 364 368 367 366 364 364 363 362 361 361 360 360 360 360 359 358 357 357 358 357 356 356 355 355 350 349 349 357 356 356 354 354 356
350 353 356 364 365 364 365 366 366 366 364 366 365 363 362 363 362 361 361 360 360 360 360 360 359 359 357 356 357 357 357 357 358 355 348 345 345 355 357 356 355 356 356
351 354 361 365 362 364 364 365 364 363 363 364 364 363 362 362 361 361 361 360 360 360 361 359 357 357 357 356 357 357 359 362 353 344 345 351 347 356 356 357 356 355 356
351 356 359 365 365 364 364 363 363 362 363 364 364 362 362 362 361 360 360 360 360 360 361 359 357 356 356 356 357 358 362 359 349 349 347 348 349 359 358 357 355 356 353
354 357 359 365 366 365 363 362 362 362 364 364 364 363 362 362 361 360 359 358 358 359 359 358 356 356 355 355 357 360 362 357 351 348 350 349 357 360 358 357 356 355 353
355 356 356 358 360 365 366 363 361 362 363 363 363 363 362 361 361 359 358 357 357 357 357 358 357 356 357 356 358 359 356 355 345 349 349 350 359 359 357 357 356 357 354
352 355 354 354 357 358 359 363 362 362 363 363 362 362 362 362 360 359 363 361 360 358 357 357 358 360 361 361 360 357 356 349 341 342 345 347 357 355 356 357 355 355 355
350 352 354 353 355 354 354 357 362 362 363 363 361 362 363 355 353 356 360 361 361 360 360 358 359 357 360 360 358 355 352 343 345 346 350 354 357 353 353 356 356 356 356
347 350 352 353 353 352 357 352 352 354 355 354 353 353 356 353 348 353 359 363 362 361 361 358 359 352 348 350 353 354 344 344 344 340 349 352 358 357 358 356 358 356 356
347 350 352 353 353 351 351 351 350 351 350 350 350 350 352 354 350 354 354 356 349 356 351 356 355 349 349 349 351 346 342 337 336 338 345 358 360 357 355 358 357 357 356
347 349 351 352 353 350 349 351 349 349 349 348 349 349 350 350 349 349 351 349 350 350 351 352 349 349 349 349 347 348 345 338 343 346 347 358 360 359 358 355 357 357 356
346 348 350 352 352 350 348 348 347 350 349 349 349 351 352 346 347 349 351 351 350 353 351 349 348 348 348 347 348 346 344 347 348 347 343 359 359 361 361 358 355 356 356
345 346 348 347 352 350 349 346 347 350 351 351 351 352 353 348 350 349 350 349 350 349 350 352 348 348 348 352 350 346 344 341 347 348 348 351 360 360 362 360 359 357 356
343 346 346 346 350 349 349 348 352 354 353 351 351 351 352 351 351 350 349 349 349 351 350 349 347 348 349 347 340 341 344 338 339 349 347 347 352 361 363 363 360 359 358
344 345 348 350 350 349 350 352 349 348 347 348 351 352 352 353 352 350 349 348 352 353 352 347 344 341 336 331 327 329 329 331 334 339 346 347 348 349 356 359 360 361 359
343 345 348 349 351 350 349 352 348 347 347 348 349 350 351 354 354 350 349 351 350 350 348 346 342 339 330 328 328 330 331 334 335 338 336 339 343 349 348 356 357 358 357
343 346 348 347 349 349 349 351 349 348 350 351 346 349 350 354 355 351 349 350 349 347 346 342 340 335 330 331 335 331 331 332 337 335 334 341 341 347 349 350 348 349 356
345 347 347 347 347 347 348 347 346 345 348 350 348 352 354 353 356 351 348 349 348 346 343 342 333 327 328 331 324 326 330 330 331 330 331 335 344 345 344 345 345 347 352
342 345 345 347 348 348 349 349 348 347 349 349 349 353 352 353 353 350 349 347 348 347 341 333 330 326 329 331 322 324 322 327 330 329 327 334 338 342 342 343 344 344 343
340 344 344 347 349 350 351 350 348 347 348 347 347 348 349 354 353 351 349 347 347 343 334 332 331 327 326 330 326 326 319 319 328 331 327 332 333 333 333 333 338 342 340
341 345 344 346 351 351 352 350 348 345 342 344 348 351 350 354 353 352 349 347 341 341 334 333 335 332 326 324 330 330 326 324 321 320 327 324 325 329 327 325 326 337 338
342 344 346 346 351 352 352 350 349 345 346 345 344 346 348 351 352 352 350 346 339 337 335 334 331 333 331 329 329 329 324 324 320 320 316 321 325 324 324 325 324 326 336
342 344 346 346 350 352 352 350 348 346 344 342 341 344 347 350 349 350 350 343 338 337 336 334 331 332 332 331 329 326 322 322 321 321 316 317 318 322 324 322 323 323 328

GFSSE_sfc_thetae_033.txt.gz
Theta_e
347 351 358 358 358 362 364 365 367 367 367 366 365 364 364 364 362 362 362 362 361 360 360 360 360 359 357 358 358 358 357 357 355 354 355 356 357 358 357 358 353 348 355
350 354 358 358 361 363 364 366 366 366 365 365 364 364 363 362 362 363 361 361 360 360 359 359 359 358 358 358 358 357 358 356 355 353 354 355 354 356 357 357 353 352 356
350 353 355 361 362 363 363 365 365 364 363 363 363 362 362 362 362 361 361 360 359 360 360 359 358 359 358 358 357 356 356 356 356 353 354 347 350 357 357 354 357 356 356
350 351 354 362 363 363 364 364 365 364 364 363 363 363 363 362 361 361 360 359 359 359 359 359 359 357 357 357 356 356 356 355 356 355 347 347 351 358 355 353 354 355 355
349 351 354 361 364 363 363 364 365 365 364 363 363 363 362 361 360 360 359 359 359 359 360 358 358 358 357 356 356 355 358 358 358 353 345 343 348 354 356 353 353 356 356
350 353 358 362 362 362 362 363 364 363 363 363 362 362 362 361 360 360 359 360 359 359 360 357 357 357 357 356 356 354 360 358 356 349 343 350 348 357 357 356 356 356 357
349 352 356 364 364 363 362 362 361 362 363 363 362 361 362 361 359 359 359 359 358 359 359 358 357 356 357 356 356 355 359 356 348 348 347 346 348 358 357 356 356 355 357
351 354 356 361 362 362 361 361 361 361 363 363 362 361 362 361 359 359 358 357 358 358 357 358 356 356 355 355 356 360 359 354 349 349 349 348 355 359 358 355 356 354 355
355 355 355 354 357 362 362 361 361 362 363 363 362 362 362 361 359 359 357 357 357 357 357 357 356 356 356 355 358 359 359 355 347 348 351 350 360 358 358 355 355 353 354
354 354 353 352 353 355 356 361 361 361 363 363 363 363 362 361 360 359 362 359 359 358 357 357 357 355 357 359 358 357 358 353 341 343 346 348 358 357 355 354 356 355 353
351 352 352 352 353 355 354 356 361 361 362 363 361 362 362 354 353 355 358 360 358 360 359 358 357 355 358 360 358 356 353 340 341 343 348 352 356 355 355 356 354 354 355
346 350 352 351 353 353 357 352 352 353 355 354 354 352 354 352 351 350 356 360 359 359 358 359 359 352 351 350 353 354 344 342 341 345 346 354 355 353 352 355 356 355 355
346 349 352 353 353 352 352 349 350 351 350 350 350 350 350 352 349 351 352 353 349 354 351 354 353 348 347 347 350 343 342 339 339 334 346 354 356 357 358 356 358 356 355
345 347 350 353 352 349 348 350 349 348 347 347 347 347 347 348 348 348 349 349 349 349 349 350 349 347 347 348 349 348 344 337 336 341 339 356 358 357 357 358 356 357 356
344 347 349 351 351 349 345 347 345 346 347 347 346 347 348 347 346 347 349 350 348 352 349 349 346 346 347 347 346 344 345 345 340 347 342 357 360 358 358 356 357 356 355
345 346 349 350 350 349 346 344 345 345 347 347 347 347 350 348 346 348 347 348 347 349 350 349 347 346 346 350 349 345 341 341 345 346 342 347 357 359 360 359 356 355 356
345 347 347 348 350 349 347 346 345 346 349 351 350 349 350 348 349 348 348 347 347 348 348 349 345 346 342 341 330 331 339 341 344 346 345 345 350 357 360 360 360 357 356
345 345 347 350 348 348 348 346 346 348 351 351 349 349 350 349 350 348 346 346 348 350 350 347 343 337 332 329 325 328 329 331 333 344 345 345 345 347 354 358 358 359 355
344 343 344 346 345 348 348 348 347 348 345 346 347 348 349 351 352 349 346 347 348 348 349 345 341 336 328 326 327 329 329 331 333 335 343 344 344 347 346 353 357 357 356
343 344 345 345 346 347 348 349 346 344 345 347 347 348 349 351 352 350 347 348 348 346 344 340 337 333 328 329 333 329 330 330 335 333 333 339 336 347 347 349 346 348 356
343 342 345 344 347 347 346 346 343 342 344 347 346 347 348 353 353 350 346 347 345 344 343 339 332 327 325 329 321 323 329 330 328 329 334 340 343 345 345 344 343 344 349
340 341 344 345 346 347 347 348 346 344 345 346 348 347 351 352 354 350 346 346 346 344 340 338 329 325 327 329 322 322 320 325 328 327 328 339 340 341 341 342 343 343 343
339 341 344 345 345 346 347 346 345 345 345 344 345 346 350 351 353 350 348 346 345 344 338 331 329 326 325 328 324 324 319 317 323 327 326 336 336 335 336 337 340 341 338
339 343 344 346 345 346 346 346 345 342 340 342 345 346 346 350 352 350 348 346 345 343 335 331 331 327 325 325 328 328 324 324 321 318 323 326 326 330 327 328 334 340 336
341 342 344 345 346 347 347 346 345 343 344 342 343 345 346 348 350 351 348 345 341 339 334 332 331 331 325 325 327 326 322 323 319 320 316 319 323 323 326 323 324 333 336
341 341 344 343 345 347 347 347 346 345 343 341 339 342 343 346 348 349 349 344 338 338 334 333 331 331 332 329 328 325 321 320 320 318 316 317 318 321 322 322 321 323 333

GFSSE_sfc_thetae_036.txt.gz
Theta_e
348 353 358 358 358 359 363 364 365 367 367 366 365 364 363 362 362 361 361 361 361 360 360 358 358 357 358 358 357 356 356 355 354 354 353 356 358 357 358 353 354 353 358
349 352 358 359 361 360 365 366 366 366 365 366 366 364 362 362 362 361 361 360 361 360 359 359 358 357 358 358 357 356 356 355 353 353 357 357 357 357 357 353 353 352 356
348 352 354 362 363 363 365 365 364 364 363 364 364 363 362 362 361 361 360 360 360 360 360 358 359 358 357 357 356 357 356 355 353 352 355 352 353 356 356 357 357 357 354
349 351 353 362 364 363 363 365 365 362 362 362 363 363 362 362 361 360 359 359 360 358 358 358 358 358 357 355 356 355 355 355 355 352 350 352 353 357 355 357 356 356 356
349 351 354 362 365 362 362 364 364 362 362 363 363 362 362 361 360 359 359 359 358 360 358 359 359 358 356 356 355 356 357 357 356 350 348 351 354 353 354 353 355 357 356
350 353 360 362 362 362 362 363 364 362 363 362 362 362 361 360 360 359 359 358 359 360 358 358 358 358 356 355 355 355 357 359 359 349 347 354 353 358 354 357 357 357 357
349 352 356 364 363 362 362 363 363 363 362 361 361 361 360 360 359 358 358 358 358 360 359 358 357 356 356 356 355 356 356 357 350 349 349 352 354 359 356 356 357 357 357
350 353 355 362 362 362 362 362 362 362 362 362 361 361 360 359 358 357 357 357 358 359 359 357 357 356 354 355 355 358 357 355 351 350 350 351 356 357 357 355 355 356 356
352 353 352 354 358 362 361 361 361 361 362 362 361 361 360 359 357 357 357 357 357 357 358 357 356 355 355 355 356 356 357 354 350 351 351 353 358 357 356 355 354 352 356
352 353 351 351 352 354 355 361 361 361 362 362 362 361 360 359 357 358 362 358 359 357 357 356 355 355 356 356 357 357 358 355 348 351 353 353 358 358 357 355 355 352 354
351 350 351 351 350 354 354 355 361 361 362 362 361 361 361 357 356 357 358 359 358 357 357 354 356 354 357 358 357 356 351 343 343 345 350 353 355 356 355 355 356 354 355
345 349 351 351 352 354 356 353 353 353 356 358 357 356 357 356 355 356 356 361 357 357 357 357 357 352 353 354 356 355 346 344 345 347 351 353 354 354 354 356 355 355 355
345 350 351 351 352 354 354 351 351 351 353 354 353 353 353 355 353 352 354 354 356 355 356 355 353 351 350 352 354 350 345 344 345 341 349 353 355 354 353 354 356 355 356
345 348 351 352 352 351 350 350 350 350 350 350 350 350 348 349 350 350 350 353 353 354 353 353 353 351 352 352 352 351 346 341 339 340 341 354 356 357 357 357 357 355 355
343 347 349 352 352 351 348 348 348 348 349 349 348 348 348 348 349 350 351 353 352 353 354 354 352 351 351 351 351 349 347 346 340 347 343 356 357 358 356 356 356 358 355
343 345 349 350 352 350 348 345 346 347 348 348 347 348 349 349 349 349 351 352 353 353 353 353 353 351 352 352 353 349 346 347 349 349 347 349 356 358 358 357 356 355 356
344 345 347 349 351 349 346 344 345 346 347 348 349 349 352 352 350 350 351 350 351 353 352 354 350 350 344 341 337 338 345 348 347 350 348 348 352 357 357 357 355 354 354
345 345 347 350 349 348 346 345 345 345 345 347 350 350 351 352 351 351 350 350 352 353 353 350 348 343 338 335 332 335 337 338 342 349 350 348 349 351 354 359 359 359 354
345 345 345 347 347 348 347 346 347 346 347 348 350 350 351 352 353 351 350 351 353 353 352 351 346 342 336 334 335 336 336 338 339 339 348 350 349 351 350 353 356 356 354
345 346 346 347 347 348 348 348 347 347 347 348 348 349 351 352 354 353 351 351 352 351 350 347 344 338 335 335 332 332 335 336 338 338 340 346 348 350 351 352 353 353 354
345 343 344 344 345 346 346 345 345 344 345 347 348 350 352 352 354 353 351 351 351 349 348 345 340 337 333 333 330 331 334 334 332 334 342 346 344 348 351 351 350 351 353
342 342 343 344 345 345 346 347 347 347 346 348 350 350 352 352 354 353 350 349 350 347 347 344 339 333 332 333 329 329 328 333 334 332 339 345 346 348 348 348 349 350 350
340 341 342 344 345 346 347 346 346 346 347 346 347 349 350 352 354 354 351 350 349 348 345 342 336 334 331 334 331 331 325 325 329 333 333 340 342 343 343 345 347 347 345
341 342 343 344 345 347 347 346 345 344 343 345 346 348 350 353 352 355 352 350 349 348 345 339 336 333 333 333 334 332 330 331 327 325 331 333 333 338 338 338 344 346 344
343 342 342 343 345 346 347 347 345 345 344 344 346 348 347 350 353 354 352 350 348 347 345 339 336 336 332 332 333 330 329 327 327 327 323 329 331 332 335 333 335 342 344
342 342 342 343 344 345 346 346 345 344 342 342 343 345 346 348 349 352 352 349 348 346 342 338 338 338 335 335 334 333 329 329 326 325 324 324 326 330 330 332 331 332 341

GFSSE_sfc_thetae_039.txt.gz
Theta_e
348 353 358 359 362 364 366 365 368 368 367 366 365 363 362 363 361 361 361 361 360 359 359 358 358 358 357 357 356 355 355 355 355 355 357 358 357 357 354 356 357 354 358
350 354 358 361 361 364 365 365 367 367 365 365 364 363 362 362 362 361 360 360 360 359 359 358 358 358 358 358 357 357 356 354 353 355 357 358 357 357 353 353 353 356 358
351 355 355 361 362 363 365 366 366 364 365 365 363 362 362 361 361 360 360 360 360 359 359 358 358 357 357 356 357 355 356 354 352 355 354 354 354 356 355 356 356 356 357
352 355 356 361 363 364 365 366 366 363 364 363 363 362 361 361 361 360 360 361 359 359 359 358 358 357 356 354 355 355 355 355 352 355 354 353 354 355 356 356 358 357 356
352 355 359 363 365 364 364 364 365 363 363 362 363 362 361 361 360 359 360 359 360 359 359 359 359 357 357 356 354 355 356 356 354 350 355 357 353 354 355 356 356 357 355
351 354 362 364 363 363 363 363 362 362 363 363 362 361 360 360 359 360 360 359 362 359 357 358 358 357 356 355 354 355 357 358 356 351 354 355 355 354 354 356 357 357 357
351 356 359 365 364 363 363 364 363 362 362 362 362 361 360 359 359 359 359 360 361 361 358 356 356 356 356 354 354 354 354 357 358 352 352 355 356 357 356 356 357 357 357
351 355 357 362 363 363 363 363 363 362 361 361 361 361 360 359 359 358 358 359 360 360 358 356 356 356 355 356 357 357 357 356 355 351 352 355 356 357 356 356 357 357 357
353 355 357 357 361 361 362 362 362 361 361 361 360 361 360 359 358 358 358 358 358 357 357 356 355 356 355 357 358 357 356 355 354 352 349 354 355 355 355 356 356 356 354
353 356 357 358 359 360 360 360 360 361 361 361 360 359 359 358 358 358 359 357 359 357 356 356 355 355 356 358 358 358 357 354 353 353 352 354 355 356 355 356 353 355 351
351 353 355 355 359 360 360 359 360 361 360 361 360 359 359 364 362 359 358 359 357 356 356 355 356 354 357 358 358 358 350 351 351 353 353 354 354 356 355 356 354 355 350
347 350 353 353 354 358 355 360 361 359 358 360 361 363 363 363 363 359 358 360 357 356 357 356 355 353 354 360 360 359 353 346 349 350 352 353 355 354 356 355 356 354 354
346 348 350 354 356 356 356 357 358 356 358 360 363 362 361 361 362 361 362 361 364 358 360 360 361 358 356 360 362 360 354 350 350 354 354 353 354 354 354 356 356 355 355
346 348 351 354 357 357 356 355 356 354 356 356 357 361 358 355 359 361 360 362 363 363 362 363 361 361 361 360 360 356 356 346 347 348 354 353 355 356 354 354 357 356 357
345 348 352 355 357 358 359 357 356 356 353 354 357 357 355 354 359 361 359 360 362 361 365 364 363 360 360 360 359 358 355 354 351 351 349 352 356 356 354 356 355 355 355
347 348 352 354 357 358 359 360 357 356 355 356 355 354 357 354 359 360 361 360 361 363 362 365 363 359 362 358 356 357 355 356 356 356 354 354 357 356 354 355 355 357 356
347 350 351 354 356 358 359 359 357 354 354 352 353 357 356 357 359 362 360 360 361 363 364 366 362 362 354 352 351 349 353 356 354 356 356 354 352 355 354 356 354 354 354
347 349 352 352 354 356 357 357 355 353 353 352 352 353 356 359 363 362 359 360 363 364 367 359 358 355 349 340 338 346 348 348 350 355 356 353 353 351 353 354 355 355 354
350 350 350 353 352 354 357 357 356 355 352 351 352 353 357 360 362 361 359 360 363 363 365 361 359 356 349 345 341 346 348 348 348 347 351 353 353 353 353 353 357 355 352
352 353 352 352 355 356 355 356 353 351 350 352 353 355 359 362 363 363 359 360 361 358 362 360 358 348 346 346 340 343 346 347 342 349 350 351 353 353 353 355 354 353 353
351 352 353 353 357 354 352 349 349 346 350 353 357 361 362 363 364 364 360 358 360 359 360 360 355 349 344 346 341 342 343 341 345 347 352 353 350 352 355 355 356 356 354
350 352 354 355 357 355 353 354 352 353 352 356 359 361 362 362 364 363 363 360 361 358 359 357 353 347 345 346 339 340 333 338 342 344 352 351 352 354 354 354 356 358 358
348 351 354 357 358 357 358 355 355 355 356 354 355 357 360 361 363 363 360 358 362 360 355 358 354 349 344 345 342 339 331 329 337 343 345 351 353 351 351 350 348 353 354
349 351 354 356 358 357 359 355 356 349 348 351 354 357 358 362 362 363 363 362 363 359 359 357 353 349 344 339 342 343 343 343 332 330 340 345 350 348 350 344 345 350 352
349 349 352 356 358 359 359 359 354 353 352 354 355 360 363 364 363 362 363 363 361 359 361 359 352 348 343 341 341 340 341 341 343 337 330 336 344 345 346 345 345 346 349
348 349 350 354 356 358 358 358 358 357 356 352 354 353 354 356 357 362 363 363 363 361 360 358 356 351 346 345 344 342 337 336 335 336 334 336 336 340 341 343 341 341 345

GFSSE_sfc_thetae_042.txt.gz
Theta_e
347 352 357 358 361 365 368 368 367 366 367 366 364 362 363 363 361 361 362 361 360 360 359 359 359 358 357 356 355 355 356 356 356 358 358 359 357 354 358 357 357 353 359
349 355 358 361 362 365 368 369 368 368 365 364 363 363 362 362 361 361 361 360 360 359 359 358 358 359 358 357 358 357 355 354 354 355 357 358 358 354 353 352 360 358 359
349 357 359 362 364 364 365 367 366 364 363 363 362 362 363 361 361 361 360 361 360 360 359 359 358 358 357 357 356 356 356 352 355 356 353 353 356 354 352 354 358 359 358
354 355 359 362 365 365 365 366 365 363 363 363 363 362 362 361 361 360 361 360 360 360 358 359 358 358 356 355 356 357 355 353 355 353 354 351 351 355 355 356 355 356 357
354 356 361 361 364 364 364 365 366 365 363 363 362 362 362 361 360 360 359 360 359 360 360 359 358 357 357 356 355 356 356 356 352 354 354 356 351 356 356 358 357 356 353
354 357 360 363 363 364 363 363 363 363 363 364 362 362 361 360 360 360 361 361 360 358 358 358 358 357 356 355 354 355 357 357 354 350 355 354 353 353 355 354 357 356 354
353 357 359 365 365 364 363 363 363 363 364 363 362 360 360 360 361 360 362 360 361 359 358 357 357 357 356 355 354 354 354 356 353 351 353 355 354 356 356 357 357 356 356
351 354 358 363 364 364 364 363 363 363 362 362 362 360 360 360 360 359 359 360 361 359 358 356 356 355 356 357 357 358 356 356 354 348 351 356 357 357 357 357 356 357 356
351 353 356 358 362 363 364 363 362 362 361 361 361 361 360 359 358 358 357 358 358 358 357 356 356 356 356 358 358 358 355 354 355 349 349 352 355 355 357 358 356 357 357
351 352 355 358 358 360 362 362 362 362 362 361 361 361 360 359 358 359 359 358 358 356 356 356 356 356 357 358 358 358 357 355 356 351 349 356 356 355 356 355 356 354 356
349 351 351 353 357 358 358 359 361 361 361 362 361 360 359 362 363 360 358 359 357 356 355 356 355 357 359 360 359 357 357 352 356 355 350 357 355 355 355 355 353 353 351
348 349 350 352 354 357 353 360 360 356 356 358 361 362 362 364 366 361 360 358 359 356 356 355 355 354 357 355 358 358 352 351 355 357 354 357 356 357 355 355 355 355 350
349 348 349 352 355 355 354 356 356 354 356 359 364 363 365 365 365 365 362 360 362 358 360 357 359 358 354 355 354 349 351 353 351 355 352 354 354 354 356 355 357 355 354
349 350 351 354 356 356 354 353 354 350 353 354 356 363 363 359 363 366 361 362 363 358 361 362 361 358 358 356 351 348 351 351 351 354 353 354 353 355 353 356 354 355 355
348 350 352 355 358 358 358 354 352 352 350 352 355 358 359 359 364 363 364 361 362 363 361 360 361 358 357 352 350 348 349 351 347 348 351 354 355 355 353 355 355 356 356
348 349 352 354 357 358 358 360 357 355 352 353 353 355 360 359 365 360 359 361 362 362 361 360 358 357 355 355 351 348 347 351 352 353 350 354 357 355 354 354 356 356 355
348 350 352 355 356 359 360 360 359 353 352 351 351 357 359 360 362 367 362 358 362 363 363 359 361 358 354 352 350 346 347 346 347 353 352 350 352 354 354 355 355 355 358
349 351 354 353 355 359 360 360 356 353 351 350 350 354 358 361 365 366 360 362 363 363 358 362 361 354 350 343 346 348 347 347 349 348 350 347 351 349 352 354 355 355 355
351 352 354 355 353 356 360 359 358 357 353 350 352 355 360 362 365 366 360 363 370 365 360 360 360 356 352 350 343 348 347 346 347 345 347 349 350 350 351 354 354 353 353
351 353 355 355 357 359 357 359 355 352 351 350 352 354 359 362 366 367 362 365 366 362 360 360 360 356 352 348 339 343 347 345 349 347 346 347 349 351 350 355 354 351 353
351 352 354 355 361 357 354 352 350 347 349 349 352 359 365 367 368 369 366 365 363 362 361 360 357 355 348 350 340 339 341 345 347 346 346 348 349 349 352 353 353 353 353
350 353 356 357 360 360 356 356 352 350 349 350 355 363 367 367 369 367 367 362 365 360 364 363 360 351 351 350 339 341 332 337 342 345 349 347 346 348 348 352 353 354 354
349 352 356 360 361 362 363 357 356 353 353 351 356 359 364 366 367 369 367 366 365 363 357 361 360 356 346 344 346 339 332 331 335 341 346 346 348 345 343 344 346 350 356
348 354 357 361 363 362 364 360 362 350 346 350 356 357 360 366 365 365 368 367 368 361 363 361 359 357 354 339 342 342 346 347 333 331 340 344 346 344 347 342 344 347 349
349 351 356 360 364 366 364 365 357 357 349 353 355 366 369 369 367 364 366 367 367 364 365 365 361 360 353 342 339 341 343 341 344 335 332 337 343 344 344 343 343 344 346
348 351 355 361 367 367 365 362 367 363 358 354 358 356 356 358 359 366 364 366 367 366 366 365 364 362 357 350 343 344 339 336 336 336 333 337 338 341 343 344 343 343 345

GFSSE_sfc_thetae_045.txt.gz
Theta_e
345 355 355 359 363 366 365 364 364 365 364 364 363 362 363 361 362 360 361 360 360 360 360 360 359 358 357 355 356 356 356 356 358 358 359 359 356 357 356 356 358 354 359
346 356 357 360 363 366 367 367 366 367 364 363 363 362 363 361 361 361 361 360 360 360 359 359 360 359 358 358 358 356 354 354 354 358 359 359 356 352 354 359 363 358 360
350 356 358 362 365 367 368 367 366 364 363 363 362 363 362 362 362 362 361 360 360 360 360 359 358 358 357 357 357 357 354 354 356 356 358 353 351 352 354 359 361 360 359
352 354 358 362 364 366 366 366 366 363 363 363 364 362 362 362 361 360 360 360 360 359 360 359 358 357 355 356 356 356 355 352 354 353 356 351 350 356 356 355 357 358 358
352 355 361 363 365 365 364 365 365 363 363 363 363 363 362 361 360 361 360 359 360 361 360 359 358 357 356 355 356 356 356 351 353 355 351 356 353 356 357 357 356 354 356
352 357 362 364 365 363 363 364 364 363 363 363 362 361 361 361 361 360 361 361 359 358 359 359 358 357 355 354 354 357 357 355 354 354 351 354 351 356 356 356 357 355 357
352 357 362 365 366 364 363 363 363 363 364 362 361 361 361 361 360 362 360 362 360 359 358 358 358 357 355 355 354 355 356 357 351 352 355 351 352 357 357 356 357 356 356
352 355 360 363 365 364 363 363 363 364 362 362 361 361 360 360 359 360 361 361 360 359 357 357 356 357 357 357 357 356 355 356 349 349 354 355 358 356 357 358 357 357 357
351 355 358 359 363 363 363 363 363 362 362 362 361 361 360 359 359 358 358 359 359 358 357 356 356 356 358 357 358 355 353 357 355 347 352 354 358 357 358 357 358 357 357
351 354 354 357 358 361 361 363 362 361 361 361 361 360 360 360 361 361 360 359 357 357 357 356 356 357 358 358 357 357 356 358 354 348 355 354 358 357 356 357 356 357 357
348 352 350 353 356 358 358 360 362 362 362 361 360 361 360 362 363 361 362 359 357 357 356 357 356 359 359 360 360 359 359 353 351 352 354 358 358 356 357 354 356 352 356
346 348 349 350 352 355 352 359 358 356 355 359 361 361 358 362 362 361 363 361 359 359 359 359 358 359 361 358 358 357 355 351 354 352 352 359 358 356 357 356 355 350 351
348 346 347 350 353 353 356 354 354 352 354 357 363 363 360 362 362 359 361 360 360 362 358 358 358 356 356 353 353 349 347 351 351 350 353 359 358 356 356 356 356 354 351
346 346 348 352 358 356 354 352 352 350 353 353 358 363 364 358 360 360 357 361 366 365 361 360 359 358 352 357 347 344 346 345 348 352 351 355 355 355 357 355 357 356 355
346 347 349 352 358 357 358 353 352 350 350 351 356 361 359 358 360 358 361 358 362 362 361 358 358 356 357 353 349 344 345 345 344 351 351 355 355 356 354 355 353 355 356
347 347 349 352 357 358 360 362 354 352 351 351 352 356 361 359 359 358 362 359 360 360 362 360 360 358 359 354 351 349 344 351 348 347 349 352 356 356 354 355 356 356 356
348 350 350 353 356 359 359 359 357 353 351 350 351 358 360 362 363 365 357 360 360 362 362 361 359 357 352 353 351 350 345 343 346 348 350 349 352 356 356 355 355 357 356
349 350 352 351 353 357 361 359 356 353 350 350 350 354 360 362 365 368 361 356 369 361 359 362 357 355 348 348 345 345 344 344 345 344 348 349 349 348 355 356 355 355 356
350 351 351 353 351 356 362 360 359 364 353 350 349 352 363 363 364 365 365 360 365 363 357 361 355 357 352 347 342 344 342 342 343 344 342 349 349 346 348 359 358 356 355
350 351 355 353 362 366 360 363 356 352 352 351 349 353 363 362 364 367 362 363 364 356 357 361 359 356 347 343 337 340 343 344 345 346 344 343 344 348 350 352 352 350 357
349 351 357 359 366 360 354 352 351 347 350 349 350 359 361 363 366 370 362 362 361 361 360 359 358 353 347 344 339 338 340 342 346 344 346 346 345 351 347 353 353 352 352
348 354 360 362 368 365 357 358 353 354 348 348 350 362 362 364 369 365 367 358 366 359 362 360 358 349 345 344 340 336 334 337 339 342 344 343 345 346 348 350 350 350 351
347 354 358 364 367 366 365 360 360 357 354 348 350 353 361 365 366 368 368 365 360 363 362 362 359 354 348 341 349 342 333 330 334 339 341 344 344 342 342 342 344 347 351
346 351 360 366 368 367 369 360 361 349 345 346 350 352 359 367 366 366 367 364 364 360 372 362 357 358 355 342 339 343 347 347 336 330 340 341 344 342 344 341 344 347 348
345 347 355 366 369 368 368 366 358 357 349 349 350 364 366 372 369 363 369 368 363 361 369 363 363 362 355 347 339 338 344 338 344 342 333 337 339 342 344 343 342 345 347
344 346 351 365 370 371 371 368 369 362 358 348 354 353 354 355 361 370 366 371 371 368 367 365 367 364 361 354 345 343 338 336 336 335 334 340 339 339 342 343 343 342 344

GFSSE_sfc_thetae_048.txt.gz
Theta_e
348 353 356 362 364 365 363 364 366 366 366 365 363 364 364 362 362 363 362 362 360 362 362 360 359 357 356 356 356 357 357 359 359 360 360 358 358 359 359 358 356 355 361
352 354 360 363 365 366 365 365 366 366 366 365 364 365 363 362 362 363 362 361 362 362 360 361 360 358 359 359 357 354 355 356 358 359 359 356 354 356 359 361 361 358 360
351 354 359 364 366 366 366 366 367 365 365 364 365 365 363 363 363 363 362 361 361 361 361 360 359 357 357 357 357 355 354 357 357 355 357 353 348 356 359 359 361 360 360
350 354 358 364 366 367 367 367 366 364 362 363 366 364 363 363 363 361 362 360 360 361 360 360 359 357 357 356 356 356 353 354 356 354 354 351 349 358 356 359 359 359 359
351 356 361 364 366 367 367 366 366 365 363 364 363 363 362 361 362 361 360 361 362 361 360 359 359 358 356 356 357 355 354 352 356 352 352 351 351 357 357 357 356 357 358
353 356 362 364 365 366 366 366 366 365 363 364 364 362 362 362 362 362 362 360 360 360 359 359 358 357 356 355 357 356 356 355 355 352 352 353 352 359 357 358 358 358 358
354 356 359 364 366 366 366 366 365 364 363 363 362 361 361 362 362 362 362 361 360 360 359 358 358 357 356 355 355 357 357 357 355 349 347 350 355 360 358 359 356 358 357
351 353 357 363 366 366 364 365 364 363 362 362 361 361 361 361 361 362 363 361 360 359 358 358 358 358 358 358 357 356 357 358 355 355 351 352 359 360 359 358 358 357 358
351 356 359 359 361 365 365 364 364 362 362 362 361 361 360 360 360 361 361 361 361 359 358 358 357 357 357 357 357 355 353 358 357 355 352 353 359 360 359 358 358 358 357
350 355 359 359 358 360 359 363 362 362 362 362 362 360 360 360 360 361 364 363 360 359 359 357 357 358 357 356 358 358 356 357 354 352 352 355 360 359 357 357 358 358 358
349 351 351 353 359 359 359 359 361 361 361 361 360 358 357 357 363 361 364 364 361 360 359 359 358 356 358 359 359 361 358 351 352 353 352 359 360 359 357 357 355 358 357
348 347 348 350 352 357 352 360 361 357 357 359 360 351 351 358 358 359 362 366 364 363 362 362 359 358 360 359 356 359 356 352 352 349 353 361 361 358 356 355 352 353 356
348 346 346 351 355 353 354 356 356 355 356 361 363 357 355 361 364 356 358 360 360 363 359 358 358 357 355 358 354 353 352 349 350 347 355 361 361 359 357 357 355 351 351
348 346 347 354 356 358 357 352 355 352 356 357 360 366 364 352 361 350 354 354 359 357 360 358 359 360 350 356 353 350 342 348 350 348 357 361 360 360 357 356 356 355 353
347 346 349 355 359 368 361 357 354 358 357 354 362 364 366 353 361 353 354 354 361 364 358 361 357 359 352 354 354 353 343 346 349 347 349 359 361 360 358 357 357 356 355
346 346 351 355 360 365 368 373 362 366 358 363 361 363 369 367 359 358 359 352 360 362 365 361 364 361 353 351 351 345 350 349 348 349 347 353 360 360 359 358 355 356 357
347 347 350 352 356 362 365 367 367 366 355 359 362 366 368 372 371 368 355 363 356 360 369 360 361 359 352 355 351 350 349 351 341 348 347 347 354 360 360 359 360 359 358
345 348 352 348 355 359 362 364 363 359 358 362 358 361 365 370 372 374 361 353 363 368 360 360 362 358 354 355 349 350 347 348 352 350 347 348 348 350 358 360 359 361 358
349 352 351 354 354 357 363 362 361 363 365 361 361 363 365 367 369 369 362 360 364 363 357 357 353 361 351 353 340 341 347 342 342 342 344 346 348 346 349 359 359 359 357
351 354 353 354 360 360 360 362 359 359 360 360 362 361 366 369 369 372 361 358 363 353 362 360 362 359 354 348 338 341 342 344 347 347 343 344 347 348 346 352 356 354 358
350 353 353 357 362 358 357 355 356 352 357 359 361 364 368 369 369 373 365 357 368 363 363 364 363 358 354 347 348 342 345 343 347 347 346 340 347 348 348 348 350 347 351
349 352 355 357 361 360 358 357 356 358 355 355 358 364 367 366 370 367 365 367 364 353 364 362 363 353 353 350 344 338 333 340 345 341 346 342 345 347 349 353 352 353 351
348 352 355 357 363 361 360 360 362 360 362 354 353 357 361 366 369 368 369 368 367 360 361 362 362 359 345 346 351 346 327 327 340 344 343 339 346 342 341 343 346 352 351
347 352 356 359 361 362 363 358 358 349 347 349 353 355 359 364 367 368 369 366 368 366 362 363 363 362 357 345 345 345 348 349 336 332 341 344 347 342 343 341 346 348 350
347 351 355 359 360 363 360 362 355 354 350 353 352 359 359 366 368 368 369 370 367 366 365 363 364 361 363 354 345 344 346 347 348 340 330 337 342 344 345 345 345 346 347
347 350 353 358 359 362 363 359 364 354 356 349 352 353 358 363 364 368 370 369 368 366 366 366 370 365 363 362 356 352 343 339 340 338 338 339 337 342 343 343 343 345 345

GFSSE_sfc_thetae_051.txt.gz
Theta_e
344 351 362 362 363 365 363 363 364 365 364 365 364 364 363 363 362 365 364 362 362 362 361 359 357 356 357 355 356 357 359 359 360 360 357 360 360 360 360 359 360 356 360
348 354 363 363 365 364 364 364 366 365 364 364 365 364 362 363 362 363 363 362 361 362 361 361 359 360 359 357 354 355 356 358 359 359 356 358 361 360 362 360 361 357 359
350 357 361 365 365 363 365 366 364 363 363 365 365 365 363 363 363 363 362 362 361 362 360 359 358 359 358 357 356 355 357 359 357 357 355 346 354 360 360 361 360 361 359
351 355 359 365 366 364 365 365 365 362 363 366 366 365 364 363 362 363 361 361 362 361 360 359 358 358 357 357 357 355 356 355 353 355 352 347 350 358 359 359 359 360 359
351 356 359 367 366 365 365 365 365 363 363 364 363 362 362 362 362 360 362 362 361 361 360 360 359 359 358 357 357 357 355 355 356 352 352 347 349 356 357 359 358 359 358
354 357 364 367 366 366 365 364 363 363 364 365 364 362 362 363 363 361 360 360 360 361 360 359 359 358 358 357 356 355 356 355 353 351 349 354 351 358 358 358 359 358 358
353 358 361 367 367 367 366 365 364 364 363 364 363 362 363 363 362 362 361 360 360 360 360 359 358 358 360 359 356 356 354 355 352 350 350 351 354 361 359 357 358 358 358
352 356 359 365 366 366 365 363 365 362 362 363 363 362 362 362 363 365 361 361 360 360 359 359 359 361 361 359 361 361 357 356 352 348 350 352 360 360 358 359 357 358 357
352 354 356 357 359 364 366 364 363 362 362 362 362 362 361 360 360 362 363 363 360 359 359 358 358 362 361 359 357 359 357 360 353 350 351 353 360 360 358 358 358 358 358
351 353 354 354 354 355 358 365 363 362 362 362 362 361 361 359 359 359 364 365 360 360 359 358 359 361 362 359 358 357 358 357 348 350 350 354 360 359 359 360 358 358 358
350 352 353 352 352 352 354 358 362 362 362 362 362 362 356 351 352 358 360 364 361 360 360 359 361 361 362 358 357 356 355 347 350 351 351 358 360 358 357 358 358 358 358
346 350 350 350 350 351 354 353 353 356 355 354 351 343 345 349 352 356 359 362 362 364 363 363 362 363 360 353 353 356 352 349 348 349 352 361 361 357 357 354 357 357 357
345 346 346 349 350 349 351 352 353 351 351 353 339 343 344 351 352 342 351 353 353 359 352 358 356 354 352 352 352 351 351 349 348 349 356 361 362 359 357 356 352 354 355
342 342 344 346 348 348 350 350 351 350 350 353 341 340 343 350 349 347 349 345 351 354 354 351 350 352 350 350 352 349 348 347 345 348 356 362 362 360 359 357 354 352 353
342 340 342 346 347 349 347 346 347 347 349 353 349 345 350 350 346 347 345 343 349 356 355 350 351 353 346 347 343 342 345 346 345 350 354 362 362 361 358 358 356 356 355
344 340 345 345 348 351 351 350 350 348 347 355 355 354 355 352 352 351 349 351 352 349 354 351 350 347 345 347 343 339 344 345 343 344 349 353 361 361 361 358 357 357 356
342 342 345 345 351 349 350 348 351 350 344 344 355 354 351 353 353 351 352 352 353 355 354 352 348 348 344 346 344 338 344 346 345 343 346 349 356 361 361 361 359 359 357
342 345 347 348 350 350 350 349 352 348 345 343 352 353 351 353 356 351 348 348 350 356 351 352 349 345 342 344 344 340 336 342 344 342 343 346 350 352 359 361 360 359 358
341 344 346 347 347 350 350 351 350 350 351 346 347 351 352 353 356 354 349 352 351 352 352 349 345 345 341 342 341 335 335 341 343 345 342 345 344 348 351 359 359 359 357
342 344 343 347 347 350 351 352 349 348 352 346 347 351 354 355 356 355 355 349 349 349 349 348 348 348 346 343 344 335 336 337 338 341 339 344 343 343 348 351 352 352 359
344 343 344 347 349 349 351 348 348 345 348 343 345 354 356 358 357 356 353 351 354 350 350 350 348 344 342 331 333 330 333 332 339 337 339 340 344 343 344 347 349 348 352
344 342 345 345 350 349 351 348 347 347 347 345 345 346 358 357 357 356 354 353 353 351 350 348 344 343 342 333 331 329 324 328 334 335 340 342 341 343 345 346 346 344 345
342 343 343 347 351 350 351 350 348 348 345 343 343 342 353 354 355 356 356 354 353 349 350 349 350 344 336 333 337 333 322 320 329 336 334 336 340 341 342 345 348 346 344
343 347 344 350 353 351 351 350 347 344 340 342 341 344 350 353 356 359 358 355 353 352 350 350 351 343 340 334 332 335 336 337 325 322 334 336 340 336 332 339 344 347 345
344 346 347 348 352 352 351 349 348 343 342 340 343 341 346 350 353 361 358 355 352 353 351 352 351 346 348 339 329 329 332 333 336 325 325 329 333 333 334 336 341 343 340
344 346 349 347 351 352 351 351 346 344 340 340 338 341 346 354 355 359 359 358 354 352 351 352 351 348 345 350 342 337 329 326 328 328 326 328 330 334 334 336 337 337 333

GFSSE_sfc_thetae_054.txt.gz
Theta_e
344 351 362 363 362 362 362 362 363 364 363 364 364 363 363 363 363 363 363 363 362 359 358 356 356 357 356 357 358 358 359 360 359 360 361 361 359 360 360 361 359 355 360
347 355 362 364 363 362 363 363 363 364 364 362 362 363 362 362 362 362 362 361 361 360 358 358 359 359 357 355 356 357 359 360 361 358 360 362 362 360 359 360 360 356 359
350 357 360 365 364 362 364 364 364 363 362 363 363 363 362 362 362 362 362 361 363 360 358 358 358 358 357 355 357 358 358 358 359 355 360 352 354 359 361 360 360 359 358
355 357 358 364 364 362 363 364 364 362 363 363 363 362 361 362 361 361 362 362 361 360 358 358 358 357 357 356 355 356 356 355 357 357 348 348 353 360 359 359 359 359 358
354 357 359 365 365 362 362 363 363 362 362 362 362 362 362 362 362 363 361 362 360 360 359 358 357 357 357 357 356 355 355 356 354 352 349 347 347 356 359 358 358 358 358
355 359 364 364 362 363 363 362 364 363 363 362 362 362 362 362 360 360 361 361 360 360 359 358 357 357 357 357 356 356 355 357 355 350 350 354 350 358 359 358 358 358 357
354 359 360 365 365 364 362 363 362 363 362 362 362 362 363 363 362 361 360 360 360 360 359 358 357 355 355 356 357 357 355 355 351 349 350 351 352 360 359 358 358 358 357
355 357 359 365 366 365 363 362 364 362 361 361 362 362 363 363 364 362 361 360 360 359 359 358 358 357 357 356 357 356 356 359 351 349 350 351 359 359 357 357 357 357 357
356 356 356 357 359 364 364 364 362 361 361 361 361 361 361 361 362 362 362 361 360 359 358 358 358 358 357 356 356 357 360 357 349 351 353 353 360 360 358 358 357 358 357
353 354 352 352 353 356 357 364 362 362 362 361 361 361 360 359 359 360 362 363 359 358 358 358 358 358 357 357 356 357 360 359 348 347 351 355 360 358 360 358 357 358 357
351 352 352 351 352 353 356 359 362 362 362 362 361 361 351 350 352 356 359 360 359 358 358 357 357 358 358 357 357 357 351 347 348 349 351 358 360 358 358 359 358 358 356
346 349 350 350 350 351 357 353 352 355 356 355 350 342 345 348 351 356 358 361 360 360 360 361 359 357 356 350 351 357 349 349 348 349 352 360 360 357 357 358 357 357 357
347 349 348 349 349 349 350 350 350 351 352 351 343 341 345 349 343 345 350 351 351 357 351 355 354 353 353 350 350 348 350 348 347 348 356 360 360 357 355 356 356 357 356
346 347 347 348 348 346 349 350 350 350 350 350 337 340 346 343 345 344 349 346 349 353 351 353 349 350 350 348 350 347 347 345 344 348 355 361 361 357 356 352 353 354 354
344 344 345 347 348 347 347 346 347 347 349 351 341 340 347 348 345 342 338 341 343 353 352 348 349 350 345 345 346 349 344 344 345 351 352 362 361 361 357 355 353 352 354
342 341 344 344 347 347 345 342 345 346 346 351 347 341 348 349 346 346 344 346 347 349 352 349 347 345 345 344 336 340 344 343 343 350 352 355 362 361 360 357 356 356 355
341 341 341 343 347 346 344 344 346 347 346 351 354 350 353 350 349 347 347 346 349 352 350 349 347 346 341 344 342 340 344 342 341 344 350 349 357 361 360 358 359 358 356
343 338 341 345 348 347 348 346 349 344 342 347 352 352 350 351 350 348 348 348 349 351 351 347 344 342 339 342 341 337 340 345 343 342 344 348 351 352 359 361 360 360 358
342 339 341 342 347 345 346 346 348 347 345 344 348 348 348 352 352 349 348 350 351 349 349 349 344 341 338 338 339 333 339 341 341 342 342 344 349 348 350 359 360 360 358
340 342 342 342 347 345 347 345 345 345 346 346 343 347 348 351 354 352 350 349 345 347 345 345 345 345 344 340 341 333 333 336 338 342 339 343 343 345 347 350 351 353 358
340 343 341 342 345 346 345 343 341 340 342 344 342 348 350 351 354 351 350 348 349 346 347 346 345 340 337 331 327 329 329 331 333 336 338 340 341 342 345 347 347 347 349
339 343 342 343 343 345 345 346 343 342 343 344 341 350 352 352 354 353 350 349 348 350 347 347 342 339 339 330 329 324 321 326 331 335 336 339 338 341 343 345 346 345 345
339 341 341 344 344 345 346 345 344 345 342 341 340 340 352 354 355 354 353 352 349 348 346 346 345 340 332 331 333 327 319 319 325 330 331 337 338 338 339 342 343 343 342
339 342 342 346 346 346 348 345 344 344 342 340 338 339 348 353 352 354 352 352 350 348 347 347 349 342 336 327 330 334 331 329 321 321 330 332 337 338 338 340 343 344 342
341 340 343 347 346 346 348 346 344 342 342 340 338 339 340 349 350 355 354 353 349 349 350 347 349 345 337 332 325 326 329 331 330 322 321 327 332 332 331 337 342 343 342
341 341 342 345 346 347 348 347 345 342 339 338 337 337 338 344 347 353 355 353 351 350 348 348 349 346 346 340 336 332 327 324 328 326 322 325 327 330 330 332 337 340 339

GFSSE_sfc_thetae_057.txt.gz
Theta_e
343 350 362 364 363 362 362 363 363 362 363 362 362 362 362 362 362 362 361 361 360 359 357 356 356 356 356 358 359 360 360 359 360 360 360 361 361 361 360 359 360 355 360
346 354 363 363 363 361 362 364 363 364 363 362 362 362 362 361 361 361 362 361 359 357 357 360 359 355 355 357 358 358 359 357 359 359 361 360 361 361 359 359 359 356 359
350 356 359 363 363 362 362 363 362 361 362 362 363 362 361 361 361 361 361 361 360 358 359 359 359 357 356 357 357 358 359 360 357 360 360 351 353 360 359 359 359 358 359
354 355 358 363 364 362 363 362 363 364 363 362 362 362 362 361 361 361 361 361 359 357 358 359 358 357 356 356 357 357 357 359 355 358 348 350 354 360 360 359 359 358 358
354 355 357 364 364 362 362 363 362 362 362 362 361 361 362 362 361 362 361 360 360 359 358 358 358 358 356 355 355 355 355 357 357 351 347 346 348 356 359 358 358 358 357
354 357 361 362 361 362 362 362 361 361 361 361 361 361 360 360 362 362 361 360 359 359 358 358 358 358 356 355 355 356 357 357 356 348 349 353 347 358 358 358 358 358 357
354 356 357 364 362 362 363 364 363 361 361 360 360 362 362 360 360 360 360 360 360 359 358 357 357 357 357 356 355 355 357 357 349 349 349 350 351 359 358 357 357 357 357
355 355 355 362 363 361 362 362 363 361 362 362 361 362 363 362 361 361 361 360 360 359 359 357 357 356 357 356 355 355 357 358 352 350 350 351 358 360 357 358 356 357 357
356 354 354 355 358 362 361 364 362 361 361 361 361 361 361 362 362 361 361 361 360 359 359 358 358 358 357 357 356 357 362 357 348 349 353 352 360 356 356 356 357 356 357
353 353 351 352 353 354 356 362 361 361 361 361 360 360 360 360 361 361 363 363 360 359 358 358 358 358 358 358 358 357 359 356 349 349 351 352 359 358 358 357 357 357 356
351 349 349 349 352 352 356 356 361 362 361 361 359 360 356 349 351 354 357 359 359 359 358 358 358 359 358 357 358 358 355 346 345 349 351 358 359 359 358 357 357 357 356
347 348 348 348 349 352 359 353 352 355 355 354 351 347 344 347 348 354 357 359 359 358 357 358 357 357 353 348 349 354 347 348 348 349 351 358 359 357 359 357 358 356 356
347 349 348 348 348 350 351 349 349 351 352 351 346 340 343 347 341 346 350 352 350 355 350 353 351 351 353 348 347 346 348 346 346 348 354 360 359 356 357 356 357 357 357
345 348 347 347 347 347 347 348 348 349 350 349 342 338 344 346 343 344 347 347 347 349 348 350 348 349 348 349 348 347 347 345 345 348 354 360 359 356 353 355 356 355 355
344 346 346 347 346 346 344 345 346 347 348 348 339 337 345 342 342 340 337 338 342 348 349 346 346 347 345 345 346 347 344 343 344 349 349 360 360 358 353 351 352 353 353
344 345 345 345 346 345 344 342 344 346 346 348 344 335 344 347 344 343 340 344 343 347 348 347 344 346 343 341 340 346 344 342 345 349 350 353 361 360 358 354 353 352 353
344 344 343 344 345 344 343 341 343 345 346 345 348 340 344 348 346 345 344 344 346 348 350 348 346 344 339 343 336 342 344 342 343 348 350 349 356 360 357 356 356 356 355
343 340 342 345 344 345 343 341 342 345 345 344 350 348 347 350 348 345 346 347 348 349 348 345 343 340 338 339 336 338 340 341 341 344 346 348 351 354 358 360 360 358 356
341 339 339 341 342 344 344 343 345 344 341 343 349 349 349 350 350 346 347 346 348 347 347 348 343 339 333 336 333 335 339 340 339 342 341 345 348 349 350 357 360 360 357
342 338 339 340 341 344 346 343 344 344 343 342 345 346 348 350 350 347 347 347 345 345 344 345 345 343 340 338 336 332 333 338 341 338 339 343 344 346 347 348 349 351 355
341 340 338 339 341 344 342 341 338 339 341 343 341 347 346 349 352 350 347 346 345 345 344 343 343 338 333 330 327 327 328 331 333 336 338 339 340 342 344 345 347 347 347
338 341 339 339 341 344 345 344 340 339 340 342 341 343 347 348 351 350 348 347 346 346 344 344 341 338 335 329 325 321 320 326 329 332 334 338 337 340 342 344 345 345 343
337 339 340 339 340 344 345 342 342 341 340 340 339 338 347 350 352 352 350 347 346 348 344 343 341 336 331 329 330 325 318 318 323 328 331 335 337 337 338 341 343 343 341
338 341 341 340 340 343 343 342 341 338 337 337 338 338 345 350 351 353 352 350 349 347 345 342 345 341 330 325 329 333 327 325 320 320 327 330 335 336 336 338 340 341 341
340 340 342 341 341 342 343 342 341 337 336 338 337 337 338 348 350 353 351 349 348 348 344 345 345 341 336 328 323 325 328 330 324 320 319 325 331 334 335 336 339 341 342
341 340 341 341 341 342 343 343 341 340 337 336 337 335 335 341 348 349 352 350 349 347 347 346 346 344 340 335 328 326 327 324 327 322 320 322 326 330 332 332 335 340 341

GFSSE_sfc_thetae_063.txt.gz
Theta_e
351 355 361 361 360 360 361 360 360 361 361 361 361 361 360 360 360 360 361 360 359 357 355 355 355 358 357 359 360 361 361 361 361 362 363 361 360 362 360 360 361 356 360
353 357 363 363 361 363 362 362 362 361 361 361 361 361 361 361 360 361 361 359 356 357 357 354 356 357 357 360 359 359 360 360 362 362 362 361 360 359 360 359 360 358 359
352 357 358 363 364 362 361 362 363 363 363 362 362 362 362 361 361 360 360 357 359 358 357 355 354 356 357 358 358 358 360 359 361 362 360 357 357 360 361 359 359 359 359
351 355 356 362 365 362 363 362 362 362 362 362 362 362 361 361 359 359 360 359 359 358 357 357 357 357 357 358 358 357 359 360 360 359 358 356 356 360 359 359 358 358 358
353 357 358 364 364 362 361 363 362 362 362 361 362 361 361 361 360 360 358 358 359 358 357 357 357 357 357 357 358 357 357 357 358 357 358 359 357 359 359 359 358 358 358
353 355 361 362 363 361 363 362 361 360 362 361 362 361 360 360 361 361 361 359 358 358 358 357 357 357 356 355 356 357 357 356 353 354 354 357 358 359 358 357 358 358 358
351 355 359 364 364 363 363 362 362 361 361 361 361 361 361 361 361 361 360 358 357 357 358 357 356 356 357 357 357 357 358 357 353 354 355 357 358 358 358 358 358 358 358
352 352 357 362 362 362 361 360 361 362 362 362 362 361 361 361 361 361 360 360 359 358 357 357 357 356 356 356 355 357 358 355 353 356 357 356 358 359 358 358 358 358 358
352 352 356 358 361 363 363 361 361 362 362 362 361 362 362 362 361 361 361 359 358 357 356 356 357 357 356 356 356 357 359 355 354 355 353 356 357 357 358 358 358 357 356
353 353 355 359 359 362 363 361 361 361 362 362 362 362 363 362 361 361 360 359 358 358 357 356 356 357 357 359 360 359 359 355 354 355 355 353 358 357 356 357 357 357 356
351 351 352 355 358 361 363 359 360 361 361 361 360 361 360 361 361 359 358 357 359 358 359 358 357 357 358 358 359 358 354 353 352 353 355 356 356 357 356 357 357 356 357
347 349 351 354 355 358 356 360 360 360 359 360 362 360 359 360 360 359 357 356 358 358 358 359 358 357 354 354 356 357 355 354 353 353 353 356 356 357 357 357 357 356 356
345 347 350 355 357 357 356 358 357 359 359 361 363 357 359 361 361 361 360 366 362 356 356 356 357 355 352 355 356 354 354 354 353 353 354 357 356 355 357 356 355 355 355
344 346 351 356 358 360 358 356 357 357 358 358 358 354 359 357 357 358 358 360 362 363 362 363 360 361 358 356 355 355 354 354 353 353 353 355 355 356 355 357 355 354 355
343 346 351 356 356 359 362 357 356 356 356 357 357 354 355 359 357 358 359 358 359 362 362 363 360 360 359 357 356 356 354 355 353 353 354 356 356 353 352 354 355 354 353
344 345 350 354 356 358 359 360 356 356 357 357 357 350 355 358 358 355 356 356 357 363 363 362 360 353 356 356 356 357 356 355 355 355 352 357 355 355 351 350 351 351 351
346 347 350 353 353 355 358 357 355 354 353 355 357 357 354 359 361 359 356 357 360 362 363 362 360 352 351 350 352 356 356 356 354 354 354 358 356 356 355 352 351 351 352
347 349 351 350 350 352 353 354 352 351 352 355 357 359 357 354 361 361 360 360 362 368 363 359 361 355 352 350 351 354 356 354 355 353 354 356 357 355 357 357 355 355 355
348 350 350 351 348 351 353 353 353 353 353 355 357 357 360 359 359 362 361 363 364 369 369 360 358 355 352 346 346 351 354 354 354 351 352 354 356 355 357 356 356 356 354
348 350 350 350 351 353 352 354 352 351 352 354 355 357 360 360 360 362 361 362 363 365 364 361 358 352 353 348 342 347 352 353 353 354 352 351 354 355 354 356 357 355 355
348 349 349 350 352 350 349 348 349 349 353 354 355 358 361 361 362 364 359 360 360 362 362 359 354 351 350 350 344 344 345 345 352 352 353 351 351 351 354 354 354 354 354
348 349 349 350 351 351 349 352 352 353 354 356 355 359 360 361 363 362 361 360 360 364 361 360 358 350 347 348 344 343 336 339 347 348 351 350 350 351 351 353 353 355 355
347 349 349 351 352 353 354 353 353 354 354 353 354 354 359 361 362 364 364 362 361 365 366 362 358 354 342 346 346 342 333 331 340 345 347 348 350 350 351 353 353 354 356
346 349 351 352 352 352 355 354 355 349 347 351 354 355 357 361 360 362 363 363 361 360 364 363 359 355 351 342 345 348 344 343 336 335 344 347 349 349 352 352 352 354 355
347 347 349 351 354 355 355 356 352 353 352 353 353 357 359 360 361 360 362 363 363 361 364 361 361 359 353 345 344 346 350 347 345 339 334 341 345 347 350 351 351 352 355
346 347 348 351 353 355 354 355 356 356 353 349 351 350 352 354 357 361 361 363 365 363 363 361 362 362 359 355 346 345 344 343 342 340 338 341 339 346 348 350 352 351 352

GFSSE_sfc_thetae_066.txt.gz
Theta_e
353 357 360 362 361 362 361 361 361 362 361 361 362 362 360 360 360 360 361 360 358 356 356 356 359 359 360 361 363 362 361 362 363 363 362 362 362 362 360 359 363 355 360
354 357 361 362 362 362 362 361 361 361 361 361 362 361 361 360 360 361 360 357 356 357 356 357 357 357 361 360 360 360 360 361 362 363 362 362 361 361 360 360 363 358 359
354 358 357 365 364 362 363 363 363 363 362 362 361 362 362 361 361 360 358 358 359 357 355 355 357 359 358 359 358 361 359 361 361 361 360 355 358 361 360 360 360 359 359
354 355 354 365 364 362 363 363 363 363 363 363 362 362 362 361 360 360 358 360 359 357 359 357 357 357 359 359 358 360 360 361 360 359 355 355 353 360 360 359 358 359 359
354 354 360 364 364 363 363 363 363 362 362 362 362 362 362 361 360 359 359 360 359 357 357 357 358 358 359 359 357 360 358 359 356 358 355 356 354 358 360 359 359 358 360
352 353 362 363 362 362 362 363 363 362 362 361 362 361 361 361 362 360 360 359 359 358 357 357 356 357 355 356 357 358 357 353 355 352 352 358 357 359 358 359 358 358 357
349 353 359 366 363 362 362 362 361 362 362 362 362 362 361 361 362 359 358 358 358 358 358 356 356 357 356 356 356 358 357 351 352 354 355 356 357 358 359 358 359 359 358
348 352 356 364 363 362 362 362 363 362 363 361 362 362 362 361 360 361 360 359 359 358 358 357 356 356 357 358 358 359 357 353 354 352 357 357 359 358 359 358 358 358 357
349 353 356 359 363 362 361 361 363 363 362 362 363 362 363 361 362 362 360 358 358 357 357 357 356 355 355 357 358 359 356 353 351 353 353 353 357 357 358 358 358 357 356
348 353 355 358 360 364 361 362 363 363 363 363 363 363 363 363 363 360 361 358 357 357 357 356 356 357 358 358 359 360 356 356 351 352 351 355 360 358 358 357 358 357 356
347 351 352 353 361 363 358 361 362 363 362 362 362 362 362 359 359 360 359 357 357 357 358 357 357 357 359 359 360 358 357 350 349 351 352 358 360 357 358 357 357 357 357
344 348 350 351 356 362 353 360 360 358 357 359 361 362 360 361 360 358 358 358 358 357 359 358 357 356 359 353 354 357 353 351 349 350 353 356 357 358 357 357 356 357 355
345 346 349 352 355 356 356 356 356 357 357 359 362 362 362 360 358 358 356 357 357 359 356 357 356 354 353 353 354 352 353 351 349 348 355 356 355 357 357 356 357 356 356
344 346 349 354 356 357 355 355 355 355 357 356 358 362 361 356 358 357 358 357 362 357 359 361 357 358 357 357 354 353 353 351 349 349 354 356 356 357 357 355 355 355 355
343 346 349 354 357 359 358 355 355 356 357 358 358 359 361 360 359 357 359 358 360 360 357 357 358 358 357 354 355 356 354 354 351 351 352 355 355 354 354 356 354 355 353
343 345 350 353 357 360 358 361 357 357 358 358 357 356 361 362 362 359 359 358 358 360 357 359 359 355 358 356 354 356 356 355 354 355 352 355 355 353 351 350 351 351 352
343 345 349 352 355 359 359 359 356 356 354 356 357 359 360 362 363 363 358 361 359 361 360 358 359 352 352 351 353 353 354 356 354 353 354 355 354 356 354 351 351 350 351
344 345 349 349 351 356 359 358 354 354 355 358 358 359 360 363 367 365 360 362 359 361 356 354 355 350 350 349 351 350 351 353 355 354 353 355 356 354 357 357 355 354 355
346 347 348 350 349 352 357 356 355 358 355 356 358 360 365 363 363 363 361 365 361 357 354 354 353 354 350 348 347 351 352 351 351 350 353 356 354 355 355 359 355 356 355
346 349 351 350 351 354 352 355 352 353 354 358 358 359 364 364 364 365 364 363 360 356 355 356 358 355 351 347 341 347 350 351 352 352 352 351 354 356 355 359 358 357 357
346 349 350 351 354 352 349 347 349 350 354 356 357 361 364 365 365 367 361 362 359 357 358 358 355 354 347 351 344 345 348 354 351 351 352 354 352 353 355 356 355 357 356
346 348 351 352 354 354 348 349 350 354 354 357 358 362 365 365 366 365 364 365 361 358 358 355 358 349 349 349 342 340 336 340 344 348 352 351 352 352 351 354 356 358 355
346 347 350 354 355 355 356 351 356 357 357 356 357 359 362 364 364 366 363 363 361 359 354 357 357 356 343 349 351 342 332 331 336 342 348 347 353 349 352 353 354 355 357
348 349 351 355 356 355 356 357 362 352 350 351 354 354 357 364 363 364 367 366 368 370 359 357 356 355 353 343 346 347 347 346 334 334 342 346 350 349 352 351 351 354 356
349 350 352 355 357 360 359 360 355 356 350 351 353 361 364 365 364 362 365 366 366 363 366 361 361 360 353 348 342 343 350 347 349 339 338 339 344 347 349 350 350 350 354
349 350 351 356 361 361 359 357 361 361 359 352 355 353 353 355 358 364 363 366 367 362 362 362 363 363 360 356 347 348 344 342 342 341 339 341 340 348 350 349 350 350 351

GFSSE_sfc_thetae_069.txt.gz
Theta_e
355 356 359 361 361 361 361 361 361 361 362 363 361 362 360 358 358 360 360 360 357 356 356 360 359 360 361 361 362 362 363 363 364 362 363 363 362 360 359 359 364 354 359
353 357 360 361 361 361 361 362 361 361 362 362 362 361 360 360 362 361 359 356 359 356 358 357 358 360 360 361 361 362 363 363 362 361 363 363 361 361 360 362 363 357 360
352 356 358 362 362 362 362 362 361 361 361 362 362 361 360 361 361 359 357 359 358 357 356 358 359 359 359 359 362 361 362 362 363 358 358 356 357 361 361 361 360 359 358
353 355 355 363 365 363 364 364 363 362 362 362 363 362 362 361 361 357 359 360 358 360 358 357 358 360 359 360 361 361 360 360 359 357 355 353 353 359 360 359 360 359 357
352 352 362 363 365 364 363 363 364 363 362 362 362 361 361 360 361 360 360 359 358 358 358 358 359 359 358 357 359 358 358 356 357 360 357 356 353 358 359 359 359 358 359
350 355 363 365 363 364 364 363 363 362 361 362 361 361 361 362 358 359 359 360 358 358 359 358 357 357 357 358 358 356 352 354 359 354 355 356 355 359 358 359 359 359 358
348 355 360 365 364 364 363 363 363 362 362 362 361 361 361 361 361 359 359 358 358 358 357 357 357 356 357 357 358 356 353 356 355 357 355 353 356 358 360 359 359 357 358
347 353 357 364 363 363 363 362 362 362 362 362 362 362 363 361 361 360 360 360 358 358 358 357 356 357 358 357 359 356 355 356 354 354 355 355 358 358 359 359 359 357 356
348 352 356 360 363 362 363 362 363 363 363 362 362 362 360 359 361 361 360 359 358 357 356 357 356 355 357 358 358 355 354 356 354 355 351 354 358 359 359 358 358 358 356
350 350 355 359 357 358 360 361 363 363 362 362 363 363 362 363 361 359 360 359 358 357 357 357 356 357 358 358 360 356 357 359 348 352 353 354 360 358 358 358 357 357 357
347 350 351 353 358 357 357 362 362 363 364 363 362 363 363 357 360 358 359 357 358 358 357 356 357 360 362 359 359 358 358 350 350 348 352 359 359 358 358 358 357 358 358
345 347 349 353 358 355 352 361 362 359 359 361 360 364 357 363 361 355 358 357 358 358 358 358 358 360 360 352 354 358 354 346 348 351 354 361 359 359 357 357 357 356 354
345 346 347 355 355 355 356 356 354 356 356 359 362 363 362 356 357 356 355 356 357 359 354 355 356 354 351 353 348 352 350 345 346 349 356 359 359 358 357 357 357 356 355
344 346 349 353 357 356 353 353 352 353 354 354 358 361 360 359 361 358 354 360 357 359 356 353 356 357 355 356 349 351 350 348 345 348 355 357 359 357 356 356 355 356 354
343 345 350 353 356 358 358 355 356 352 353 355 357 360 358 355 363 358 363 359 357 358 355 356 355 353 350 350 350 354 351 350 347 350 350 357 357 355 356 356 355 355 355
344 345 350 352 356 358 358 360 358 355 356 358 359 359 362 361 363 360 360 359 359 351 353 358 359 357 357 351 349 350 349 352 353 354 350 353 355 354 353 354 353 353 352
343 346 349 352 354 358 360 358 356 355 355 359 359 362 362 364 363 369 363 360 355 361 362 359 357 355 353 349 349 352 350 355 350 353 353 353 354 355 354 353 353 352 352
343 345 350 349 352 357 359 358 355 353 354 357 355 358 362 364 363 366 360 357 357 365 353 356 356 345 351 346 348 349 351 352 352 352 354 353 355 354 355 355 355 355 354
343 346 348 350 350 355 360 358 356 361 357 359 362 361 364 363 363 365 361 359 363 359 358 354 350 349 348 348 349 346 347 348 349 348 351 354 354 354 355 359 360 357 356
344 346 349 349 358 361 357 360 354 355 355 357 358 361 365 366 363 365 362 362 361 354 355 350 357 353 353 343 343 345 346 352 348 350 349 350 351 351 354 358 357 354 359
345 345 348 353 363 355 351 350 351 349 353 360 355 362 365 362 362 365 356 361 366 362 359 358 354 351 348 348 343 347 346 345 345 349 348 347 351 348 351 351 354 356 355
345 347 353 356 363 357 352 354 354 355 352 354 355 363 363 363 364 362 358 361 362 359 359 357 359 347 348 347 341 341 341 339 343 346 345 346 346 348 348 349 351 352 353
344 348 354 359 362 360 359 355 356 358 360 352 359 356 361 362 363 366 364 365 363 361 355 358 357 362 347 345 352 343 337 336 336 339 342 343 349 345 347 349 351 353 355
345 347 356 359 362 360 364 354 360 351 348 350 354 354 358 363 362 364 364 364 365 358 362 359 356 360 359 344 342 345 348 347 339 335 341 344 348 347 350 349 351 353 356
347 346 349 360 363 362 361 361 355 357 350 351 351 366 371 370 363 360 364 364 362 359 363 363 362 365 352 351 341 340 348 342 352 346 336 341 344 345 348 350 349 349 356
348 348 348 359 363 364 363 361 364 360 360 349 353 354 353 356 358 364 361 365 370 363 364 362 364 363 364 358 349 347 345 345 340 341 340 344 342 344 348 348 350 350 350

GFSSE_sfc_thetae_072.txt.gz
Theta_e
352 353 361 359 360 359 359 360 361 361 362 364 361 360 359 358 360 361 360 358 358 358 360 361 362 362 362 362 362 364 365 365 365 363 362 362 361 361 362 363 362 354 360
351 353 362 363 361 361 361 362 361 361 362 362 363 361 359 361 362 360 358 360 357 358 357 359 360 361 361 361 363 363 363 365 364 362 363 363 361 360 362 362 360 357 360
351 356 358 362 362 362 362 361 361 360 362 362 362 361 360 361 361 358 360 359 358 357 359 358 360 359 360 363 362 362 362 362 362 359 360 354 356 361 361 361 360 359 359
353 354 356 362 364 363 364 363 362 362 361 361 361 362 361 361 358 360 360 359 361 359 358 359 360 359 361 361 361 360 360 358 359 360 354 352 352 359 360 359 358 357 357
351 354 358 365 366 363 364 364 364 363 362 362 362 360 360 361 360 360 359 359 359 360 358 359 359 358 359 360 358 358 358 356 360 359 355 353 352 357 358 359 359 358 359
352 355 362 366 365 364 365 364 363 363 362 362 361 361 361 360 360 360 360 359 360 359 359 358 358 358 359 358 355 351 354 355 360 357 351 356 355 359 360 359 359 357 359
351 354 359 366 366 365 364 364 363 362 363 361 362 362 362 362 361 359 359 360 360 359 358 358 357 357 357 357 354 353 356 363 355 351 352 352 355 362 360 359 359 357 359
348 352 357 364 365 364 364 363 363 363 363 362 363 362 363 361 360 360 359 359 359 359 358 357 360 360 358 357 355 354 354 358 355 353 354 354 359 360 359 358 359 356 356
350 351 356 359 362 365 366 362 362 363 362 363 364 363 362 362 362 360 360 359 357 358 357 357 357 358 358 357 357 357 356 359 351 351 352 354 359 359 359 358 358 355 355
349 351 358 361 358 361 359 364 363 363 363 363 363 361 361 363 361 359 363 362 358 358 357 356 357 357 361 361 360 360 358 358 350 350 351 355 359 359 359 355 357 358 357
346 349 351 352 356 359 359 361 363 363 363 363 363 363 363 358 358 356 361 360 359 358 357 357 358 360 361 359 363 362 355 349 350 351 352 359 360 359 358 358 358 358 355
344 346 348 350 351 355 355 361 362 360 359 361 362 361 364 355 363 354 357 360 359 358 358 359 359 356 355 350 351 359 355 347 350 351 355 361 361 358 358 358 357 355 355
344 345 348 357 359 351 356 361 360 358 359 360 363 353 363 361 355 357 356 356 355 359 354 355 356 353 350 350 349 353 351 347 348 350 358 361 360 359 357 358 357 356 357
343 344 353 351 361 354 356 357 355 353 359 356 361 368 368 356 351 352 354 357 355 361 353 349 350 352 351 353 351 350 346 346 349 350 356 361 360 358 357 356 357 355 354
343 347 352 356 358 360 367 352 354 354 356 357 359 366 352 359 352 352 358 352 351 354 354 350 356 351 352 349 349 351 349 349 346 349 354 361 360 360 358 357 357 355 356
344 348 351 351 362 364 368 368 351 359 359 355 361 364 359 362 354 359 361 351 352 350 351 356 356 348 352 353 351 342 350 353 351 349 351 355 359 359 360 356 357 355 355
344 349 351 351 355 362 367 369 366 352 351 358 359 368 357 361 365 361 362 350 351 353 356 363 360 353 350 350 352 353 352 355 352 350 348 350 354 358 357 357 355 354 353
344 349 350 348 351 358 367 366 365 362 356 359 361 364 365 368 367 361 365 361 365 359 353 351 352 355 347 350 352 344 353 352 353 354 353 351 350 349 356 358 358 357 354
346 349 349 353 351 356 363 362 363 372 356 361 360 362 370 366 361 355 362 367 369 360 360 352 347 350 354 351 345 352 346 345 346 351 354 353 355 351 351 357 359 359 357
345 349 353 353 355 362 360 364 361 364 364 351 361 362 367 368 364 361 362 368 367 356 357 355 355 355 355 340 340 345 348 348 345 349 348 351 353 354 353 353 356 356 360
344 348 353 354 358 356 356 354 355 355 359 360 356 366 369 362 367 367 370 367 366 359 357 363 362 354 350 349 347 349 348 346 348 350 350 346 347 352 354 356 356 352 354
344 347 350 354 358 355 359 358 359 361 356 356 358 365 367 367 368 363 364 366 369 363 362 361 347 346 356 345 344 345 338 343 346 339 347 345 347 346 349 350 355 355 354
344 347 349 355 358 356 359 357 362 363 361 356 362 362 363 368 367 360 367 369 369 367 360 360 357 356 349 344 348 346 338 333 336 344 342 348 346 345 348 351 351 354 352
346 348 351 355 359 356 360 355 359 352 352 356 359 358 362 369 368 367 369 370 370 362 361 361 362 356 357 350 351 343 342 347 334 337 345 349 348 347 347 351 351 355 357
347 347 352 354 359 355 356 360 355 355 354 357 356 364 363 370 371 362 368 369 368 367 367 367 365 365 363 357 346 347 349 351 348 339 330 342 345 348 351 353 352 353 355
347 347 352 353 356 357 355 357 358 353 360 357 356 357 360 360 365 371 366 369 369 368 366 367 369 367 368 365 356 354 347 345 343 342 336 341 338 347 350 352 350 351 354

GFSSE_sfc_thetae_075.txt.gz
Theta_e
347 351 361 359 359 359 359 359 360 361 362 361 362 359 359 362 362 361 360 358 358 361 361 362 363 363 362 364 365 365 363 364 366 364 361 361 359 360 363 359 359 354 359
349 354 362 361 360 360 362 361 362 362 362 362 361 360 362 362 359 360 359 357 359 357 360 360 361 362 362 363 364 364 363 364 364 364 362 362 361 360 361 359 359 357 359
348 353 358 364 362 361 362 360 361 362 362 362 361 360 362 360 359 360 360 357 358 360 359 360 360 361 362 362 363 363 360 360 362 363 361 354 355 361 360 359 360 360 357
351 353 356 363 363 361 361 361 361 362 363 362 360 362 361 359 360 360 359 360 358 358 360 359 359 361 361 361 361 361 360 360 361 364 351 350 353 360 359 357 357 358 357
350 353 356 363 364 361 361 361 362 362 362 362 361 361 361 359 360 360 359 360 360 358 359 360 359 359 360 358 359 360 360 362 362 356 349 348 350 357 360 358 359 356 357
351 354 361 365 363 364 363 364 363 363 363 362 362 362 361 362 360 359 360 360 360 358 359 359 358 359 357 357 356 355 357 359 360 353 353 355 351 359 359 357 360 359 358
350 355 359 366 365 365 364 363 363 363 363 362 362 362 359 360 360 360 361 360 359 358 358 357 357 357 356 357 356 357 361 361 351 350 350 352 354 361 359 358 359 356 351
350 355 357 363 365 365 363 363 364 363 362 362 362 362 362 360 360 360 359 360 359 358 358 358 358 357 356 357 356 357 360 362 354 351 351 353 359 361 358 357 359 353 356
352 352 356 357 361 364 364 363 363 363 362 363 363 364 362 361 361 361 361 360 359 358 357 356 356 357 356 356 357 358 361 359 350 351 352 353 360 360 359 356 354 357 357
349 352 354 355 356 355 356 363 363 363 363 363 363 361 361 362 360 359 362 361 359 358 357 355 354 356 357 358 358 360 360 358 350 351 352 354 360 359 356 358 359 357 358
347 351 354 352 353 353 356 359 362 363 363 363 361 360 360 354 352 354 361 362 358 358 357 357 358 358 357 356 358 358 355 342 350 350 352 358 361 359 359 359 358 355 353
343 348 352 348 350 353 356 355 355 357 357 355 355 355 356 351 351 353 358 361 359 358 357 358 357 352 352 347 349 353 351 349 349 350 353 360 360 358 358 357 355 355 356
343 346 346 347 350 350 351 354 355 354 353 354 354 352 353 352 349 349 349 352 351 357 352 351 351 347 346 345 347 349 352 347 351 352 357 360 360 358 358 357 356 357 355
341 341 345 346 346 347 352 354 354 352 355 351 351 350 351 345 342 346 349 349 349 346 346 346 349 348 345 349 348 349 347 347 348 351 356 361 360 359 358 357 356 355 354
340 346 347 351 347 348 350 352 349 350 353 348 351 350 349 349 347 348 349 348 347 344 343 342 343 348 348 347 347 347 347 346 346 351 351 360 360 360 357 356 356 356 356
345 344 345 346 346 351 349 350 351 348 351 353 351 350 348 352 350 347 346 348 347 346 347 346 346 346 343 347 344 343 343 344 347 350 351 353 361 361 359 357 356 356 356
344 344 346 349 349 349 352 350 349 342 348 352 355 351 348 349 352 352 348 346 348 343 346 347 346 346 344 347 343 345 345 344 345 348 348 348 354 362 359 357 358 356 354
343 342 343 349 350 347 351 350 348 346 341 351 355 355 353 354 352 350 351 348 348 348 349 346 345 345 342 342 345 343 344 344 343 345 346 347 348 349 357 358 358 357 354
343 343 341 342 348 346 350 348 350 346 350 354 352 353 356 355 347 350 350 350 353 350 345 346 343 339 342 340 340 342 343 343 347 348 346 345 345 346 347 357 358 358 355
344 342 342 343 348 348 347 347 349 352 351 355 353 354 355 357 355 351 349 352 354 350 343 343 343 342 344 340 338 342 341 342 343 344 346 350 347 346 346 347 351 353 360
343 342 342 342 348 351 348 344 344 344 344 349 353 357 356 357 355 350 350 354 352 348 349 348 348 344 344 341 335 336 338 340 340 341 341 345 346 347 348 347 349 351 353
339 343 342 345 347 350 348 347 345 346 347 349 353 356 357 354 356 353 352 352 352 349 349 348 341 337 342 339 335 334 327 332 337 342 341 343 341 348 350 350 351 350 346
338 341 344 347 347 348 346 347 348 350 345 344 348 354 355 356 357 354 353 355 353 353 346 347 342 342 336 336 338 335 328 326 330 334 331 337 335 342 345 344 349 349 348
338 341 346 349 347 346 348 343 343 343 341 346 349 351 351 356 357 354 357 354 353 354 350 347 351 349 344 337 342 338 338 336 324 323 334 340 336 338 339 341 342 346 345
340 340 344 349 347 345 347 343 344 342 344 345 348 352 350 354 357 357 358 354 352 353 352 351 350 349 350 344 332 335 334 335 336 332 325 331 338 338 339 341 343 345 347
341 340 341 349 345 346 345 348 343 341 343 345 346 349 350 353 356 357 357 355 353 353 354 351 352 351 350 351 348 341 333 335 335 331 326 327 333 335 341 342 341 345 347

GFSSE_sfc_thetae_078.txt.gz
Theta_e
344 346 360 358 359 358 359 360 361 362 361 361 359 358 360 363 359 358 357 359 361 362 362 363 362 363 364 364 363 364 362 362 362 362 360 360 360 359 359 358 358 354 358
345 353 362 360 360 360 360 361 362 362 361 360 359 361 362 358 359 358 357 357 358 359 360 362 361 363 364 363 363 362 363 365 363 363 361 362 360 359 358 359 358 351 358
347 354 358 363 361 361 362 361 362 362 362 361 360 361 360 359 360 359 357 360 358 358 361 360 361 362 363 363 362 359 360 360 363 362 361 353 353 358 359 360 358 358 358
349 353 357 363 363 362 361 361 362 362 362 361 361 361 359 360 360 359 357 357 359 359 360 358 361 361 362 360 359 359 359 360 361 359 350 350 350 357 357 358 355 357 357
350 353 357 363 363 361 361 362 362 362 361 362 362 360 360 360 359 359 360 360 358 359 360 360 360 360 359 359 359 360 362 362 359 352 348 348 350 357 359 355 355 357 356
351 354 361 362 362 361 361 361 362 363 362 361 361 361 361 361 359 359 359 358 360 359 359 357 359 358 357 358 356 357 362 361 357 353 351 354 351 358 356 359 359 356 353
350 354 358 364 364 363 364 362 363 363 363 362 363 361 360 360 360 360 359 359 358 358 358 358 358 357 355 357 357 362 361 360 351 350 351 351 352 360 357 359 354 351 353
352 356 358 364 365 364 364 363 364 363 363 362 362 361 361 359 359 359 359 359 359 359 358 358 357 357 355 357 358 362 361 358 352 350 351 351 358 360 356 359 351 357 357
355 354 355 357 361 364 363 364 363 362 363 363 363 361 360 360 360 360 360 359 358 358 358 358 357 357 356 357 360 363 361 358 349 350 353 353 360 359 356 354 357 357 358
352 354 354 354 355 355 357 363 363 363 363 363 363 362 361 361 360 361 361 362 358 358 357 357 357 358 358 356 359 362 360 358 349 350 351 354 359 359 356 356 357 358 354
350 351 352 352 352 352 354 358 363 364 363 363 360 361 359 352 351 354 358 360 359 358 358 359 359 359 357 359 358 359 351 346 348 350 351 358 358 356 358 357 357 353 353
346 349 351 351 349 353 357 354 353 357 356 355 353 354 353 351 350 354 357 359 358 358 359 359 356 355 347 347 349 354 347 348 348 349 352 360 360 359 358 355 353 356 355
347 349 348 349 351 351 353 352 352 353 353 352 352 351 351 351 349 349 351 352 350 354 351 351 347 345 343 346 346 347 349 348 348 350 355 360 360 357 356 354 355 355 354
345 348 346 348 350 346 351 352 352 352 351 350 350 349 349 343 344 346 349 347 345 345 344 344 344 345 344 346 344 344 344 348 348 351 354 360 360 358 357 357 356 355 354
343 345 344 346 348 345 349 351 350 349 351 350 349 349 349 344 342 346 347 346 342 340 342 337 338 342 345 345 345 346 346 346 348 351 350 360 360 360 357 357 355 354 354
341 341 344 344 345 348 349 350 346 348 351 349 347 347 349 348 345 345 345 345 344 341 340 342 338 342 343 346 343 344 345 345 347 349 349 352 360 360 358 356 356 356 356
340 344 345 345 348 348 347 346 347 348 351 349 347 345 349 350 348 347 345 344 344 342 342 344 344 343 342 342 342 344 343 343 346 349 349 348 354 359 357 357 356 356 355
342 344 345 347 347 347 347 346 344 344 348 351 349 348 346 353 351 349 344 344 344 342 345 344 343 341 340 341 340 340 342 342 344 348 348 347 349 353 356 359 360 357 354
342 344 344 346 344 346 346 346 345 341 346 350 350 349 352 352 350 349 346 346 345 344 344 345 340 339 337 338 341 339 342 340 340 345 344 345 345 347 347 356 358 358 354
343 342 343 346 342 347 343 345 347 344 346 351 349 352 353 349 350 347 348 350 350 346 342 342 338 339 341 336 338 341 340 340 342 341 342 343 342 344 344 345 351 352 358
341 339 340 344 341 345 341 341 342 342 344 348 350 353 352 351 353 348 350 350 349 346 340 342 346 341 340 336 333 334 336 338 337 340 343 345 344 345 343 344 345 348 350
339 339 339 344 343 344 342 341 343 342 343 349 351 353 354 352 351 350 348 349 346 346 345 343 339 336 339 337 334 329 324 330 335 338 340 342 342 346 345 346 345 347 347
338 339 339 344 345 345 344 344 344 343 344 344 347 350 353 353 353 352 349 351 349 346 344 341 337 338 334 334 334 332 324 321 327 330 332 336 339 342 346 347 348 349 347
339 340 341 344 345 346 344 343 341 342 337 341 345 350 352 354 353 354 351 352 350 349 344 345 347 345 341 332 335 338 333 331 322 321 330 334 332 337 341 341 345 348 347
339 340 344 342 345 347 344 342 342 339 339 343 344 347 348 350 352 353 353 352 350 350 347 346 348 347 346 341 331 330 331 331 332 327 323 327 335 334 336 341 340 342 344
338 341 344 342 343 346 344 339 340 339 340 341 343 346 345 348 351 352 355 351 349 350 350 347 348 348 347 347 344 336 330 334 330 326 323 325 329 333 336 337 338 340 343

GFSSE_sfc_thetae_081.txt.gz
Theta_e
342 345 360 359 359 360 359 360 360 361 360 358 357 359 362 359 358 358 359 361 362 361 362 360 362 363 362 363 361 362 362 361 360 360 361 359 359 358 357 358 357 352 358
343 349 360 360 359 359 359 360 360 361 360 358 358 361 359 357 357 356 356 359 359 361 360 360 362 361 362 363 363 363 362 361 362 360 360 360 359 357 358 356 356 354 351
343 352 356 362 360 360 360 361 361 361 360 359 360 360 358 360 358 356 359 357 359 359 359 360 361 361 362 361 360 359 361 362 361 360 360 350 349 358 358 356 357 357 354
349 352 355 362 362 361 360 361 362 361 361 359 360 359 360 359 359 356 358 359 359 359 359 360 361 360 360 358 358 358 360 361 360 359 350 349 352 358 355 356 356 357 356
350 353 356 362 362 361 361 361 361 362 359 360 361 359 359 359 358 359 358 359 359 359 359 359 360 359 357 357 358 358 360 360 358 353 349 349 347 354 355 357 357 356 355
351 355 360 361 361 361 361 362 361 360 360 361 359 360 360 358 358 359 359 359 359 359 358 359 358 357 357 357 356 359 360 358 357 351 351 354 349 357 357 357 358 351 354
349 353 357 363 362 361 360 360 361 361 361 361 360 360 359 360 359 359 358 358 359 358 358 357 357 357 356 358 360 360 360 359 350 350 349 350 349 358 358 355 349 351 355
351 354 355 361 362 363 362 363 362 362 362 362 359 359 360 359 359 359 359 359 358 357 357 356 355 355 357 358 364 362 360 358 353 350 350 351 358 358 356 350 356 357 354
354 354 354 356 359 363 363 363 362 362 362 362 360 360 359 359 359 360 360 359 359 359 358 357 356 356 357 358 359 360 359 358 349 350 351 352 359 358 353 355 356 356 352
351 353 353 353 355 355 355 362 362 362 362 362 361 359 359 359 359 359 360 360 358 358 357 357 356 356 359 359 359 360 358 358 348 350 350 353 359 353 353 357 356 355 352
350 350 350 351 351 352 354 358 361 362 363 362 360 360 358 351 350 353 357 359 358 358 357 357 358 358 358 358 360 359 356 348 348 349 351 357 359 357 357 356 356 351 352
347 348 349 350 349 352 357 354 354 356 356 354 353 353 350 348 349 353 355 358 358 359 360 358 356 353 351 346 351 353 346 347 348 349 351 358 359 357 357 354 352 354 354
346 349 348 348 349 351 352 351 351 352 352 352 350 349 348 349 349 349 350 349 349 355 349 348 344 341 344 344 345 345 347 347 347 349 354 359 360 357 356 352 355 354 353
345 348 348 348 349 347 351 349 349 350 350 349 349 348 346 344 344 346 346 347 345 345 340 343 342 342 342 343 343 342 345 347 346 349 353 359 360 356 355 353 354 354 352
343 345 346 346 347 345 349 349 348 348 349 348 347 348 346 341 342 345 344 344 341 341 338 338 338 341 343 344 343 344 343 346 348 349 348 357 359 358 356 354 353 353 353
343 344 343 344 346 345 347 348 348 347 349 348 347 348 348 343 341 344 344 343 340 337 338 338 335 341 341 343 342 343 343 346 347 348 348 350 357 359 356 355 355 354 354
342 342 340 342 344 345 346 348 347 347 350 347 346 345 347 347 344 344 343 342 343 342 338 341 343 341 340 340 340 342 343 344 347 347 347 347 351 357 356 356 356 356 355
340 339 342 346 345 344 345 346 345 346 348 347 346 343 347 350 347 345 344 343 343 340 341 341 341 338 338 337 337 339 339 340 344 347 348 347 348 353 355 357 358 355 355
339 341 342 343 344 344 345 344 341 343 346 348 347 345 346 351 350 346 343 343 342 340 342 343 340 337 335 336 339 338 339 339 339 346 345 345 345 348 348 354 359 360 356
341 343 343 343 343 345 344 343 343 339 344 349 347 346 351 349 349 346 344 345 343 342 341 340 336 337 337 335 339 339 338 339 338 339 340 344 343 343 343 345 345 351 356
341 342 343 342 340 343 340 340 341 338 342 347 346 350 352 347 349 346 347 347 347 343 340 340 339 335 338 334 335 332 334 337 337 339 341 341 340 341 341 341 341 345 347
340 341 343 341 340 343 340 340 342 341 342 347 348 350 352 351 350 348 348 347 345 343 339 342 339 336 336 334 332 327 325 329 333 336 338 341 342 343 343 343 342 343 345
339 339 342 342 340 344 340 340 342 340 344 343 346 348 349 350 349 350 348 347 343 344 343 340 336 337 331 333 331 328 321 320 324 329 332 336 338 339 343 344 345 345 345
339 340 342 343 341 342 341 339 340 339 336 341 344 348 350 350 351 350 349 350 347 344 343 339 341 340 339 330 332 337 330 327 322 321 326 331 333 336 338 342 344 346 346
339 339 339 342 342 343 342 341 339 339 337 340 342 345 347 348 351 352 349 348 346 348 342 344 345 343 342 338 331 328 329 330 330 322 320 325 332 334 333 338 341 340 343
339 339 339 340 342 343 342 340 339 338 339 339 340 342 344 346 348 349 351 349 347 346 345 344 345 345 345 342 338 336 329 329 328 324 322 323 325 331 333 335 336 338 339

GFSSE_sfc_thetae_084.txt.gz
Theta_e
339 346 359 356 359 359 359 359 359 358 358 357 359 360 359 358 358 360 361 362 361 362 361 362 363 362 362 362 363 362 361 361 361 360 360 359 359 358 358 357 357 346 355
342 349 360 360 359 359 359 359 361 359 357 356 359 361 357 356 356 356 359 360 361 361 361 362 362 362 363 362 362 361 362 361 363 360 359 359 358 358 356 357 353 347 354
344 352 356 361 359 359 359 361 360 359 357 359 359 357 359 358 356 356 356 358 359 360 360 361 361 361 361 361 360 361 361 361 360 359 357 352 355 356 357 358 353 351 350
347 351 354 361 361 359 360 361 360 359 358 359 358 358 359 358 356 358 357 356 359 359 360 360 360 360 359 359 359 360 361 360 359 358 351 353 353 356 357 357 357 355 355
350 353 355 361 361 360 361 361 361 361 358 359 358 358 358 358 357 356 356 358 358 358 359 360 359 358 359 359 358 360 360 359 358 354 351 351 352 353 358 357 356 356 356
351 354 358 361 361 360 361 361 361 359 358 359 358 358 358 357 358 358 358 358 358 358 359 359 358 358 358 358 358 361 358 359 356 355 355 356 354 355 357 355 351 356 353
350 353 356 363 360 360 362 361 359 359 360 360 358 358 358 357 358 358 357 357 357 357 358 357 358 357 358 359 359 360 359 358 353 353 353 352 355 357 355 350 350 354 356
351 353 355 361 361 360 360 360 360 360 360 360 360 358 357 358 356 357 358 357 357 357 356 357 356 357 359 360 359 360 359 358 354 353 354 354 356 356 351 354 356 355 356
353 353 353 354 357 362 361 360 360 360 361 359 358 358 358 358 357 355 358 357 357 357 356 355 356 357 359 360 359 359 359 358 352 353 354 354 359 354 353 356 356 353 354
351 352 353 354 355 355 356 361 361 362 361 360 359 358 358 358 356 358 358 359 358 357 356 355 356 358 360 362 359 359 359 357 353 353 354 355 358 354 358 356 356 352 353
350 350 351 352 352 353 355 357 361 361 361 361 358 358 356 353 354 354 357 357 357 357 356 356 356 358 359 360 360 359 356 352 352 354 355 357 357 354 356 357 353 352 352
346 348 349 350 350 353 357 355 355 357 357 356 355 353 352 351 352 354 356 357 358 359 358 358 355 356 351 352 357 355 351 351 352 353 354 356 360 356 358 354 352 354 353
345 349 348 349 350 351 352 352 353 353 353 353 353 352 352 351 351 353 350 350 354 356 350 349 343 345 347 349 349 349 350 351 351 353 355 358 360 358 353 351 355 354 353
344 348 348 349 349 350 351 351 351 352 351 351 351 350 350 347 349 348 349 350 349 348 346 345 346 346 347 345 347 348 349 351 351 352 355 358 358 355 352 351 353 352 352
343 346 347 347 348 348 350 349 350 350 351 350 350 350 348 347 347 348 348 348 346 346 343 343 343 346 346 347 347 347 348 349 351 353 354 355 357 356 354 352 352 351 351
343 344 345 346 347 346 348 349 349 349 350 350 349 350 349 346 345 348 348 346 343 343 343 342 342 346 346 346 345 347 347 349 351 352 353 354 355 356 354 354 353 353 352
342 344 342 344 347 345 347 348 348 348 350 350 350 349 350 348 345 348 347 347 346 343 342 346 347 346 344 346 344 346 347 348 350 351 351 353 354 357 355 355 355 355 355
342 340 341 347 346 345 346 348 348 348 350 350 349 348 347 350 347 346 347 347 348 346 344 346 346 343 343 343 343 344 345 346 349 350 351 351 353 354 356 356 358 357 355
341 340 340 343 343 344 345 347 347 348 348 349 349 346 349 350 349 347 347 347 346 345 347 347 345 342 341 342 343 343 343 342 344 347 349 350 349 351 353 354 357 358 358
341 340 342 343 344 344 345 344 343 343 345 350 349 347 348 350 351 350 347 348 346 344 344 345 343 342 342 341 342 342 343 344 344 343 344 346 348 348 348 350 351 351 356
341 340 341 341 342 343 341 341 341 340 343 348 349 351 351 351 350 348 348 348 348 346 345 345 343 342 343 340 340 339 340 343 343 344 344 345 345 345 346 346 346 347 348
339 340 341 341 341 343 343 342 345 342 345 349 351 353 354 351 351 349 349 349 348 345 344 345 346 342 342 340 337 334 332 337 339 341 343 344 346 347 347 348 348 348 348
338 339 341 342 342 345 343 342 342 344 345 347 349 350 352 353 353 350 352 351 348 347 343 347 344 344 339 339 338 336 329 328 330 337 339 341 344 345 346 349 350 350 350
339 341 342 343 342 345 342 342 341 339 339 343 347 350 352 354 353 353 352 352 349 349 348 346 343 344 344 338 339 340 337 334 332 329 335 338 339 339 343 345 347 350 352
340 340 342 343 341 344 342 342 341 340 341 344 347 349 350 352 354 354 352 351 350 351 349 348 348 350 349 341 339 337 337 336 336 330 331 335 338 342 342 341 344 347 349
340 340 341 342 341 342 343 340 340 341 339 341 343 345 347 350 352 354 353 351 351 350 349 348 352 351 351 348 341 342 338 338 336 334 331 333 332 339 342 344 343 344 346

GFSSE_sfc_thetae_087.txt.gz
Theta_e
347 352 359 357 358 360 360 359 359 359 358 360 359 359 358 359 361 362 362 362 362 362 363 363 364 362 363 363 363 362 362 362 362 361 361 358 360 358 359 352 356 355 358
348 353 360 359 359 359 360 361 360 358 358 360 362 358 357 356 357 360 361 362 362 361 364 364 363 362 363 362 362 362 361 360 363 361 358 360 358 359 358 351 353 355 356
348 353 355 362 359 359 360 360 360 358 358 361 359 358 358 356 355 356 358 360 361 361 362 362 362 362 362 361 361 362 362 361 362 358 358 353 353 359 356 353 351 352 354
350 353 355 362 361 360 361 360 360 359 359 360 358 359 359 356 358 358 356 359 360 360 361 361 361 360 360 361 360 361 361 360 359 356 356 351 355 358 358 357 355 358 358
352 355 358 360 361 360 361 361 360 359 359 359 358 358 358 357 356 358 358 358 358 360 360 360 360 359 359 359 361 361 360 359 356 355 356 351 354 358 358 356 357 355 353
353 354 359 361 360 360 361 361 361 359 359 359 358 357 358 357 358 358 357 358 358 358 359 359 359 359 358 359 362 360 360 359 356 354 354 353 356 357 353 355 356 354 357
350 355 358 363 361 361 361 361 361 359 360 358 358 358 358 357 358 357 358 357 357 358 358 358 358 357 358 359 361 359 360 358 356 354 353 357 357 358 351 351 355 357 356
349 355 357 361 361 361 362 359 360 360 359 359 359 359 358 357 358 358 358 358 358 358 358 357 358 358 358 360 360 360 359 356 356 353 354 357 358 354 355 357 357 357 356
352 355 358 358 361 360 361 360 360 360 359 360 358 359 358 357 357 357 358 357 357 357 357 356 358 359 360 361 360 360 359 357 355 355 351 355 357 355 358 357 354 356 356
353 356 358 358 360 361 361 361 360 360 360 359 359 359 358 357 358 357 357 358 357 357 356 357 359 359 360 360 361 360 359 356 355 354 354 356 358 357 357 357 353 353 355
351 354 355 358 361 361 361 360 361 361 360 359 359 358 359 359 358 356 357 357 357 356 356 357 358 359 359 360 360 360 355 354 354 354 355 355 357 357 357 354 352 352 354
348 351 357 357 358 359 358 362 362 361 361 362 362 361 360 361 358 356 358 359 359 357 358 358 358 356 356 358 361 356 353 354 355 355 353 357 357 357 357 352 355 354 353
348 351 355 358 359 358 360 360 359 363 365 360 362 361 360 359 358 361 363 362 360 358 354 351 351 353 355 357 355 355 353 353 353 354 354 354 356 357 353 355 354 354 354
347 351 355 357 359 359 360 357 358 359 360 357 359 361 360 355 358 361 358 359 358 354 352 352 353 355 354 354 354 354 352 352 353 355 355 355 356 355 352 353 353 352 353
345 350 354 357 359 359 360 359 358 357 356 357 359 359 359 355 356 357 358 357 356 353 352 351 354 353 353 353 355 355 353 351 353 355 355 356 356 354 354 352 352 351 352
346 350 353 355 357 359 358 361 358 357 358 357 358 360 359 357 355 355 356 354 354 354 353 351 354 353 354 355 353 355 354 353 355 357 355 356 354 355 354 355 353 354 353
347 350 352 353 355 357 358 359 357 357 356 357 359 360 359 358 358 359 358 355 352 352 353 354 356 356 354 355 352 354 355 356 353 355 354 356 356 356 355 355 355 355 355
346 349 352 349 352 356 357 358 355 356 357 360 361 362 359 360 359 357 360 355 356 352 350 353 356 352 353 353 352 352 354 355 354 354 354 354 354 353 355 356 357 357 357
346 349 350 352 351 354 357 356 356 358 359 360 362 361 360 359 359 358 358 356 357 353 353 353 353 353 351 351 350 352 354 352 351 351 353 354 353 351 353 356 355 357 357
345 349 350 350 353 356 355 356 355 357 357 360 359 360 359 362 360 359 357 357 354 352 353 354 354 354 353 351 349 350 354 354 355 354 353 351 353 353 353 355 354 354 354
345 348 349 349 354 354 352 350 351 351 354 356 359 361 358 361 360 361 357 357 354 352 353 356 352 353 351 353 352 350 351 353 353 353 353 353 353 354 354 354 355 354 355
345 346 349 350 353 354 353 354 355 354 354 357 360 361 360 360 360 360 359 357 359 355 356 356 354 350 353 351 347 346 340 343 349 351 353 352 352 353 353 356 357 359 359
345 346 347 351 353 355 356 355 355 355 355 355 357 358 361 362 359 360 361 359 360 357 352 356 354 354 347 350 349 344 337 333 340 349 350 351 353 352 353 354 356 358 360
345 347 349 352 353 354 357 355 355 351 348 352 356 358 361 363 362 360 362 362 361 357 356 357 355 355 352 346 348 349 350 346 339 335 345 348 350 348 353 353 353 355 359
345 346 348 352 353 354 355 357 354 354 353 354 356 360 362 363 363 361 362 362 360 361 360 360 356 358 356 351 347 348 350 348 350 342 337 342 350 352 354 354 352 352 355
345 346 347 350 354 354 355 355 356 356 355 352 354 355 356 358 361 363 362 362 363 361 361 359 359 361 361 359 355 353 349 345 346 345 343 343 344 349 352 355 356 357 356

GFSSE_sfc_thetae_090.txt.gz
Theta_e
349 355 360 360 360 360 360 359 359 360 360 359 359 359 360 362 363 363 363 363 362 364 363 364 363 363 363 363 362 361 361 362 361 360 361 360 359 357 355 358 361 356 356
350 354 360 360 361 361 361 360 358 359 361 362 359 358 357 359 361 362 363 363 362 362 363 363 363 363 362 362 362 362 360 360 363 360 358 360 361 352 354 358 359 352 354
350 354 356 363 361 361 362 361 358 359 362 360 358 359 357 356 357 359 361 361 362 363 363 363 362 362 363 362 361 361 360 361 360 359 361 356 357 356 352 353 355 358 358
351 352 354 362 360 361 360 361 360 360 361 359 360 360 357 359 359 357 359 361 362 362 362 361 361 361 362 362 361 361 361 358 356 356 351 353 353 359 356 359 357 356 357
352 354 360 361 361 361 361 361 360 359 359 359 360 360 359 357 360 359 360 359 360 361 361 361 360 360 361 362 361 361 359 357 353 355 350 357 357 359 357 357 353 357 358
352 355 360 361 361 361 362 362 361 360 360 358 358 359 358 358 359 358 359 359 360 360 360 360 360 360 360 360 360 360 358 356 361 350 351 355 357 353 356 356 358 358 357
351 355 358 363 361 361 362 362 360 359 360 359 359 358 359 358 359 359 358 359 359 359 360 360 359 358 359 361 360 360 358 356 351 353 355 355 354 354 355 358 358 357 357
350 353 357 362 361 361 362 361 360 360 360 359 359 359 358 358 359 358 358 359 359 359 359 359 359 360 361 361 361 359 357 357 352 352 356 352 355 357 357 358 357 356 357
351 354 358 359 362 362 360 361 360 360 360 359 358 359 358 357 358 358 357 359 358 358 358 359 360 361 360 360 361 360 358 356 351 350 352 349 356 358 358 355 358 355 355
352 355 358 360 357 359 361 361 361 360 359 358 358 360 358 358 358 358 359 360 358 358 359 360 360 360 361 361 361 360 356 356 352 353 350 353 357 358 358 353 354 356 355
350 353 354 354 358 359 359 361 361 360 359 359 359 360 358 361 357 357 359 358 358 357 358 359 360 360 361 361 360 357 358 353 351 352 350 355 357 357 355 353 353 353 353
347 350 351 355 355 358 356 362 362 358 360 361 361 361 363 359 358 357 360 359 357 359 359 359 358 358 361 355 355 356 351 351 351 351 353 356 357 357 353 356 356 356 352
349 349 352 357 358 356 359 359 357 358 358 358 361 360 359 356 357 359 362 357 355 357 353 355 355 355 357 356 354 348 349 351 349 350 353 355 357 355 353 356 356 354 353
348 350 353 356 358 360 358 354 355 355 356 354 357 360 357 354 356 356 353 354 354 352 355 357 356 357 356 357 354 350 346 348 348 350 355 357 355 355 352 354 354 352 353
347 350 353 356 359 360 361 355 356 356 356 356 356 357 355 353 354 355 356 354 353 353 353 354 356 356 356 356 354 352 347 349 349 350 351 357 356 354 355 353 352 351 352
347 350 353 355 359 360 360 360 359 360 360 357 356 359 361 355 356 355 355 354 354 355 354 354 357 355 355 356 354 352 349 348 351 354 349 354 355 353 354 354 354 353 353
346 351 353 354 357 359 360 359 357 358 357 357 361 363 362 361 359 359 356 354 354 356 358 357 358 359 355 354 355 354 349 350 350 352 355 355 354 355 356 354 355 355 355
346 351 353 351 354 358 358 358 357 357 358 362 362 361 361 363 361 359 356 358 358 353 354 355 356 354 353 351 352 352 353 353 352 354 356 357 357 353 355 355 356 356 356
346 351 351 351 352 356 360 359 359 361 359 360 362 362 364 364 360 358 356 363 363 352 353 355 354 357 350 350 347 350 353 354 354 352 355 358 357 356 355 357 354 355 357
346 351 352 352 355 358 358 359 356 357 358 360 359 360 362 364 360 364 361 360 359 354 353 355 356 355 352 351 345 348 354 353 354 353 354 353 357 359 358 361 360 358 358
345 348 352 353 357 356 354 352 353 353 362 358 360 363 360 360 361 362 358 359 357 354 356 359 355 355 349 355 349 347 349 352 353 353 354 355 353 355 358 361 359 358 357
345 347 351 353 357 359 356 357 355 356 359 359 361 364 363 360 362 361 363 359 358 355 359 358 357 349 351 355 345 345 339 343 347 350 354 351 351 353 355 357 361 362 362
347 346 349 354 356 359 360 359 361 360 361 359 362 359 362 362 360 364 361 362 364 360 354 358 357 356 345 353 353 346 336 333 340 345 348 347 351 350 353 356 358 360 364
349 348 350 354 357 359 362 360 361 353 350 352 358 358 361 365 364 363 362 362 362 358 359 357 356 356 357 345 350 352 352 350 338 336 343 346 349 350 354 353 354 356 362
349 350 349 354 358 359 361 362 358 359 352 355 355 366 368 368 365 362 362 361 361 357 360 361 363 361 354 350 347 349 354 351 352 342 336 341 346 350 352 355 353 355 358
350 350 351 353 359 360 360 362 362 360 357 352 356 355 369 360 361 365 364 363 362 361 359 358 363 363 363 357 351 352 348 346 345 346 343 343 345 347 353 353 355 357 359

GFSSE_sfc_thetae_093.txt.gz
Theta_e
351 354 358 359 360 360 361 361 361 361 360 360 360 361 363 364 362 363 363 365 365 365 365 365 364 362 362 361 362 362 361 364 361 362 360 356 355 358 358 357 356 348 357
352 354 361 361 360 359 359 359 359 361 361 360 359 358 360 362 364 363 363 364 364 364 363 364 363 362 362 361 361 361 360 360 364 362 360 352 354 357 355 356 359 356 357
350 353 358 363 361 361 360 358 360 363 360 359 359 357 356 358 360 361 362 363 363 364 363 363 363 362 362 362 361 360 359 359 360 360 364 349 348 356 359 359 358 358 357
350 351 354 362 362 362 361 359 360 362 360 361 361 358 360 360 357 359 362 362 363 363 362 362 363 363 363 362 361 358 359 357 356 360 352 352 349 358 357 357 358 357 356
349 351 359 362 362 361 361 361 361 360 359 361 361 359 358 360 359 360 360 361 362 362 362 361 361 362 363 362 361 358 355 353 355 358 354 352 349 356 357 359 359 358 357
350 354 360 361 362 362 362 362 360 361 359 360 360 359 359 360 359 359 360 361 361 361 362 361 359 362 361 361 359 357 355 354 361 353 353 350 346 356 359 359 358 358 357
350 354 358 362 362 362 363 362 360 360 360 360 359 360 359 360 360 359 359 360 360 361 360 360 359 361 361 361 360 358 356 360 354 355 349 344 352 359 359 358 357 358 358
350 352 356 361 362 362 362 360 361 360 360 360 359 359 359 359 359 359 360 360 360 360 360 361 361 362 361 361 359 356 356 361 355 352 345 352 357 358 358 357 358 356 356
350 353 356 358 361 362 360 361 361 361 360 359 359 358 358 360 360 359 359 359 359 360 361 361 361 361 361 361 359 356 357 359 347 351 345 354 359 358 357 356 356 357 356
351 352 355 358 360 358 361 361 360 360 359 359 359 358 359 358 359 358 361 360 359 359 361 361 360 361 362 361 358 355 357 360 350 349 348 356 360 358 353 355 358 355 354
347 350 350 353 356 360 358 361 361 361 359 360 359 359 359 356 357 356 360 359 359 360 360 360 360 362 361 360 357 358 358 351 349 348 350 359 360 355 353 354 354 352 355
346 348 350 352 354 358 354 362 361 358 361 360 359 361 365 358 358 354 358 358 359 360 359 359 360 362 363 353 353 358 353 348 349 350 355 360 358 354 356 357 358 353 352
346 346 354 355 358 356 356 355 355 357 356 358 360 362 368 354 359 354 356 354 355 359 353 354 355 356 355 349 347 345 348 346 347 349 356 359 356 353 357 355 354 356 353
347 348 353 355 359 360 355 355 356 353 354 351 354 358 357 355 360 355 354 351 353 356 355 356 356 356 355 350 349 345 345 345 347 351 357 358 356 353 353 355 354 353 352
346 348 352 356 359 361 358 356 355 354 355 352 354 356 357 355 358 359 357 353 352 353 354 361 355 355 357 350 349 348 345 347 349 350 351 357 355 355 356 353 353 352 351
347 348 352 356 359 359 360 364 362 359 356 357 356 355 357 354 358 352 352 354 351 359 353 359 358 355 359 349 348 348 347 348 351 350 350 352 356 356 353 355 354 353 352
346 349 351 353 356 359 358 358 360 359 358 359 357 362 361 362 359 360 356 358 352 358 359 357 358 357 348 348 349 348 345 348 350 352 353 353 353 357 355 354 354 354 354
347 350 352 350 354 356 357 357 354 357 361 358 358 357 360 362 361 362 355 359 356 355 353 355 357 352 350 351 347 348 348 350 352 353 352 354 353 355 356 356 355 356 356
347 351 350 352 352 355 359 358 356 364 362 359 359 358 361 360 360 363 359 359 363 351 352 356 354 351 348 346 345 347 350 349 350 350 353 353 352 352 355 359 358 356 356
347 352 352 351 356 358 358 359 355 354 360 364 362 359 361 361 360 360 357 360 361 352 352 356 357 353 356 348 341 346 348 349 350 349 350 351 351 353 353 358 359 358 360
345 350 351 352 359 356 354 350 351 352 361 364 361 364 363 361 362 366 360 359 360 358 358 358 353 355 352 351 349 345 347 349 350 349 350 349 350 352 352 356 357 356 357
344 348 352 354 359 358 354 357 354 356 356 357 358 362 362 361 363 361 365 358 362 355 360 358 358 354 349 351 345 344 342 341 346 347 348 347 347 350 350 356 356 359 358
344 346 351 356 359 361 363 361 359 362 358 356 363 358 360 362 361 363 364 366 361 362 354 359 357 357 352 349 355 347 342 336 338 343 346 345 346 347 349 351 352 356 358
344 346 350 355 359 361 363 364 362 356 350 354 357 359 360 362 361 361 363 363 363 359 365 359 355 361 351 346 346 347 352 349 344 336 341 345 347 348 351 350 350 353 357
346 343 348 355 359 364 365 365 359 359 353 356 358 360 360 368 364 361 362 363 363 361 364 362 364 363 351 353 349 344 351 347 347 344 336 340 344 346 349 350 350 350 355
346 347 346 354 361 363 362 363 364 360 360 359 356 356 356 359 360 363 362 363 364 363 361 360 362 363 367 361 354 349 351 343 343 340 340 342 343 346 349 351 352 353 355

GFSSE_sfc_thetae_099.txt.gz
Theta_e
346 354 362 362 361 361 362 362 361 361 361 363 366 366 365 366 368 367 367 366 365 366 366 364 366 363 362 362 363 362 364 361 361 360 359 359 359 360 360 359 358 353 359
350 355 363 363 361 361 361 360 360 360 359 359 362 364 365 365 367 365 366 365 364 366 364 363 363 363 363 361 360 360 361 362 363 359 358 359 359 359 358 360 359 355 359
350 356 358 363 360 359 362 363 360 360 359 358 359 361 362 363 364 367 366 365 364 366 364 363 363 362 361 361 360 359 359 360 360 361 360 353 353 359 358 359 359 359 358
352 352 354 362 362 360 362 362 361 363 360 360 362 360 361 362 363 364 364 364 364 365 365 364 363 361 360 360 359 359 358 360 360 359 348 348 353 359 359 357 358 358 358
348 352 357 364 364 360 362 361 361 361 362 359 362 360 360 361 362 362 363 363 363 364 364 363 361 360 359 360 358 360 361 361 362 353 347 348 351 357 359 354 355 359 356
350 354 361 363 362 361 361 361 361 361 360 360 362 361 360 361 361 362 362 363 362 362 363 361 360 359 358 360 361 361 362 359 350 347 352 355 351 358 360 357 355 358 356
350 355 358 365 363 362 362 361 361 360 361 360 363 361 361 361 361 361 362 362 362 361 362 362 360 359 360 360 360 361 361 354 345 349 351 351 353 359 359 359 355 354 354
350 354 356 361 363 362 362 360 362 362 361 361 361 360 360 360 361 361 362 362 361 362 362 362 361 359 359 358 360 362 363 360 352 350 350 350 358 358 356 359 354 354 354
351 352 355 356 360 362 363 361 361 360 360 360 360 361 361 360 360 361 362 362 361 362 362 362 361 360 358 358 363 363 362 357 349 350 351 351 358 358 357 355 354 355 354
348 350 351 355 354 353 356 362 361 360 360 360 361 361 363 361 360 361 363 364 362 362 361 360 360 360 359 358 359 360 365 358 349 350 352 351 357 359 357 355 357 356 353
347 348 352 353 352 353 354 357 359 361 361 360 359 359 359 352 351 355 360 362 362 362 360 359 359 359 357 357 360 358 355 347 349 351 353 355 357 354 353 352 352 352 352
344 347 350 351 352 352 354 353 351 354 352 352 352 351 350 350 347 354 358 361 361 361 360 358 358 357 356 351 353 361 352 349 349 351 354 357 359 358 358 354 352 351 351
344 346 348 349 350 351 352 354 351 352 352 351 351 350 351 348 348 350 350 352 352 354 346 349 351 356 354 352 351 351 351 347 349 350 356 358 359 356 355 355 355 353 353
344 348 350 350 351 350 351 351 351 353 351 350 352 353 349 349 346 346 348 349 347 346 341 336 338 349 350 345 341 341 344 347 348 351 355 358 358 356 355 353 353 352 351
342 347 347 347 347 350 347 348 351 348 351 347 352 351 350 346 341 343 346 351 347 345 344 340 337 347 342 341 341 339 344 348 348 350 349 357 358 358 355 354 352 351 351
345 349 350 351 348 350 346 351 348 349 347 349 350 352 351 348 346 348 347 345 345 351 348 348 347 343 344 339 338 339 340 345 346 347 349 352 360 360 358 355 355 354 354
347 348 347 347 351 350 351 352 349 352 352 349 349 352 354 350 347 346 346 346 343 351 349 348 350 347 344 342 337 339 338 340 343 345 347 349 354 360 358 357 359 357 355
347 345 344 350 351 348 351 351 353 350 344 345 349 350 354 354 346 344 350 350 350 347 348 351 349 347 340 338 339 335 337 344 343 344 344 344 347 350 358 360 360 360 357
345 346 344 346 350 347 349 353 352 345 337 341 341 351 353 354 355 352 352 351 348 349 348 342 342 341 343 342 341 339 341 342 343 347 344 344 343 346 348 355 360 360 358
343 342 347 347 348 345 349 353 353 348 345 345 343 350 354 353 354 353 354 350 354 350 349 347 345 346 344 339 345 339 338 344 343 343 343 346 345 347 347 348 351 354 360
345 341 348 346 350 346 347 347 348 347 344 347 351 352 353 354 354 351 352 351 354 348 343 347 344 345 344 344 339 337 340 340 339 342 343 344 342 349 350 349 349 350 352
342 343 348 349 349 346 346 350 350 351 349 350 351 352 354 355 355 351 351 351 353 352 347 347 346 343 343 340 338 335 330 337 339 341 340 341 339 344 348 352 350 352 350
342 345 350 348 348 351 348 348 348 344 342 347 343 349 355 356 355 354 349 352 351 351 347 347 348 346 343 342 341 340 331 326 333 336 332 337 334 336 344 348 350 348 348
342 346 351 350 348 349 354 347 342 338 333 343 348 350 355 357 354 355 353 352 349 347 346 347 352 345 341 339 343 345 337 337 331 328 335 336 333 335 338 344 344 348 347
344 345 350 351 348 347 353 351 345 344 346 348 348 349 350 354 354 356 354 353 350 346 345 348 348 343 350 343 343 338 335 341 340 336 330 331 336 338 341 340 343 346 345
343 345 348 351 349 349 351 351 348 343 343 344 344 341 347 349 352 354 355 352 352 348 349 348 351 349 350 349 350 346 342 335 334 335 331 332 332 337 341 344 339 344 345

GFSSE_sfc_thetae_105.txt.gz
Theta_e
345 352 359 360 360 361 363 363 362 362 362 363 363 363 363 363 363 363 362 362 362 362 362 361 362 360 358 359 362 360 360 360 358 360 360 359 359 358 358 357 357 352 356
349 355 360 361 361 361 360 360 362 362 362 362 363 363 363 363 363 363 363 363 363 364 361 361 360 358 359 361 361 361 359 362 361 359 358 361 360 359 359 359 357 352 357
351 355 356 361 361 359 359 358 358 361 363 362 363 364 363 363 363 363 363 363 363 364 361 361 359 359 357 357 358 357 358 360 358 359 358 351 353 359 359 359 359 358 358
352 353 355 362 361 361 359 358 358 357 360 361 362 363 363 363 363 363 363 362 363 364 361 360 359 358 358 357 359 359 359 358 358 357 350 351 352 358 358 358 358 358 359
351 352 354 360 362 361 361 361 358 359 358 359 360 362 362 363 363 362 363 363 363 362 361 360 359 358 357 357 356 357 358 357 358 353 349 348 345 354 357 356 357 358 357
349 351 357 361 362 360 361 361 359 359 360 358 360 361 361 361 363 363 363 363 362 361 361 360 359 358 357 358 358 359 359 358 357 350 349 353 347 356 358 355 355 356 354
349 353 354 362 362 360 360 360 360 358 360 359 360 360 359 361 362 362 362 362 360 359 360 360 360 358 362 362 359 358 358 358 349 349 348 350 351 356 353 354 354 353 353
351 353 355 360 361 360 360 360 360 360 359 360 359 359 360 361 362 362 362 361 361 360 359 359 358 361 363 363 358 356 357 356 351 347 349 347 356 354 353 353 352 353 356
353 352 353 353 358 360 360 359 359 359 359 359 359 359 361 361 362 361 362 362 362 360 359 359 358 359 362 364 357 358 357 356 345 348 349 348 359 353 354 352 352 352 352
350 350 352 351 353 351 353 359 359 360 360 359 359 359 360 361 361 361 361 364 362 360 359 358 358 358 360 362 363 358 356 354 346 346 346 351 356 354 357 355 352 351 351
349 348 349 349 350 351 351 355 358 359 360 360 359 358 356 350 351 353 361 362 361 359 358 358 358 358 358 359 361 359 357 347 347 346 345 355 356 354 355 354 353 352 352
344 346 348 347 348 350 355 351 350 352 351 350 350 349 347 347 349 354 359 361 360 359 357 358 357 356 354 349 353 355 345 348 348 346 345 356 356 351 350 350 350 350 349
344 348 348 346 349 349 349 348 348 347 347 347 347 346 346 346 349 350 349 349 349 353 344 346 346 349 350 348 349 344 345 346 347 348 348 357 357 356 352 351 350 349 348
342 346 347 347 348 347 349 347 347 347 348 345 346 345 344 343 344 345 346 346 345 342 339 336 336 338 345 347 347 346 343 345 345 347 347 354 356 354 352 354 352 351 352
342 345 345 347 347 347 348 347 346 347 348 345 345 346 344 342 342 343 345 345 343 338 337 337 334 340 336 338 345 346 342 344 345 348 345 354 356 354 353 352 351 352 351
342 343 345 345 347 347 345 346 346 346 346 346 346 346 343 340 340 342 342 343 342 340 343 343 341 339 336 336 341 342 343 344 346 347 347 346 355 355 356 355 353 353 353
343 344 343 343 347 346 345 346 345 345 347 345 347 346 342 340 340 343 342 342 343 344 344 344 344 341 335 334 337 340 342 343 344 345 346 346 348 356 356 356 355 356 355
344 343 343 346 345 344 343 346 346 346 346 345 348 349 346 345 345 343 342 340 341 345 343 344 342 338 335 333 333 334 337 340 342 341 343 345 345 349 353 359 360 359 357
344 342 344 344 344 344 347 346 346 342 342 343 347 348 349 345 346 345 343 342 343 341 343 340 338 337 338 337 336 334 333 336 339 342 340 341 341 345 344 349 357 360 358
344 343 344 343 342 343 347 344 343 335 338 340 345 347 349 348 350 347 345 344 347 342 343 341 340 341 340 337 340 339 335 336 339 339 340 342 340 339 340 341 341 345 356
343 339 342 342 340 344 344 341 339 335 338 339 341 347 349 348 351 348 347 345 348 343 341 343 341 338 336 337 333 332 334 336 336 338 339 340 340 341 340 342 341 343 345
340 339 341 342 339 342 343 343 343 342 342 342 343 347 348 349 348 349 346 345 346 343 340 343 342 336 339 337 332 330 326 329 334 336 336 339 339 340 344 344 345 345 345
338 340 341 342 339 340 345 344 342 343 343 342 342 344 348 350 349 349 348 346 347 344 342 342 344 341 336 339 338 332 324 323 329 332 331 332 336 336 339 344 346 347 347
339 342 342 342 339 341 345 342 341 339 338 341 341 343 347 351 350 349 347 347 346 345 343 342 345 340 337 336 339 340 333 331 326 326 330 331 331 330 332 338 343 345 345
342 342 344 342 340 343 343 342 339 336 337 341 343 342 345 348 349 351 349 348 345 344 341 344 345 341 343 340 339 339 337 334 334 329 326 330 331 332 332 335 340 341 341
344 342 344 342 340 345 346 342 339 337 339 343 343 342 344 346 348 350 349 347 345 343 342 342 345 343 345 345 345 341 339 336 336 331 328 328 328 333 335 336 338 338 340

GFSSE_sfc_thetae_108.txt.gz
Theta_e
344 350 357 359 360 361 360 363 362 362 363 362 362 362 362 361 360 362 362 360 361 363 361 361 360 362 361 361 360 359 359 359 359 359 360 359 358 358 358 358 357 354 357
348 353 358 359 359 360 362 362 361 361 363 363 363 362 362 361 361 361 361 361 362 361 360 359 358 360 361 360 360 360 359 360 359 358 359 360 359 359 358 358 358 356 358
350 353 355 359 360 359 359 360 361 361 361 362 362 362 362 362 361 361 361 362 363 362 360 357 357 358 359 357 359 359 358 360 358 359 359 355 355 360 359 359 359 358 358
352 352 354 362 359 358 357 357 359 361 361 362 362 363 363 362 361 362 361 362 362 361 361 360 359 358 359 360 359 359 359 358 358 358 351 351 354 358 359 359 359 359 359
351 353 354 360 360 358 359 357 356 357 359 360 361 361 362 362 362 362 362 362 362 359 361 359 359 358 358 358 358 357 358 358 358 354 351 348 353 354 358 358 358 358 358
349 351 358 361 360 360 359 357 358 359 356 358 359 360 360 362 361 362 361 361 361 360 360 358 358 358 358 357 357 359 358 358 356 351 352 353 353 357 355 357 355 355 358
348 350 353 360 360 359 359 358 358 359 357 358 359 360 361 361 361 360 362 361 361 360 359 359 358 358 359 360 359 358 358 358 351 351 352 353 354 355 354 354 353 354 355
350 351 353 360 359 359 359 359 359 359 358 359 359 359 360 361 360 361 362 359 360 360 359 358 359 363 360 359 357 357 357 356 351 351 350 353 356 354 352 352 353 356 357
352 352 352 353 357 359 359 359 359 358 358 358 358 359 360 360 360 360 360 361 359 359 359 357 357 360 361 357 358 357 357 354 351 351 351 354 356 354 352 352 352 352 354
350 351 350 352 352 352 353 359 359 358 358 358 358 360 359 360 360 360 362 364 360 359 357 357 357 359 360 358 359 356 354 355 350 349 351 353 355 355 354 352 351 351 352
349 348 349 348 350 351 352 355 356 359 359 359 357 358 355 350 353 355 361 362 360 359 357 357 357 358 356 358 359 357 355 350 348 348 351 355 356 357 354 354 351 352 353
344 347 348 348 349 350 356 351 350 353 352 352 351 350 350 351 354 356 360 360 359 359 359 358 357 357 353 353 357 357 349 351 349 347 349 356 353 349 349 349 350 350 349
344 348 347 347 350 350 350 349 349 349 348 348 349 348 349 349 350 351 351 352 351 351 344 349 348 352 352 351 353 348 349 350 350 349 349 355 355 351 350 349 348 348 349
343 347 347 347 348 348 349 348 348 348 348 346 347 348 347 347 348 348 348 348 346 345 342 342 341 341 346 351 350 346 348 349 350 351 349 354 354 353 351 353 351 351 352
341 345 346 347 348 347 348 347 348 348 348 347 347 348 347 346 346 346 347 348 347 342 344 345 343 343 341 343 350 349 347 348 348 350 349 353 355 355 352 352 351 352 352
342 343 346 347 348 347 347 346 346 348 349 348 348 348 347 346 345 346 347 347 347 347 349 348 348 346 341 343 346 349 348 348 349 350 350 349 354 354 355 355 354 353 354
342 344 344 346 348 346 346 347 347 349 349 347 349 348 345 344 345 347 346 347 347 348 350 350 348 346 342 342 343 345 347 348 348 348 349 349 350 353 356 356 357 356 357
343 343 344 348 347 346 345 347 347 347 348 348 349 348 346 344 344 346 347 346 347 349 349 347 345 342 341 340 341 343 344 345 346 347 346 348 348 348 351 355 358 360 359
344 343 342 344 345 345 345 346 346 347 347 346 349 351 348 349 349 347 346 347 348 347 348 345 345 344 344 343 341 342 340 342 343 345 346 345 345 347 348 348 353 357 357
343 343 343 344 344 345 346 344 341 338 342 345 349 350 350 348 349 350 348 349 351 348 348 347 348 347 346 342 342 344 343 341 342 344 345 346 347 346 345 346 347 347 350
342 342 343 341 342 345 344 341 341 337 341 342 346 350 351 351 352 350 350 349 352 348 348 349 347 344 342 342 340 340 341 342 343 343 344 345 346 347 347 348 347 348 349
341 341 342 341 341 345 346 345 344 342 343 344 346 350 352 352 352 349 349 349 351 348 348 349 348 345 344 343 340 337 334 338 342 343 343 343 345 346 347 349 351 352 353
340 339 342 341 341 344 346 345 344 345 345 344 345 348 350 353 352 353 350 350 351 349 348 349 349 347 343 344 344 340 334 331 334 341 341 340 343 344 345 347 350 353 355
340 341 343 342 340 342 346 345 344 343 340 343 344 347 350 353 353 353 352 352 351 350 350 349 348 347 346 345 346 344 340 339 334 335 341 340 341 340 342 342 345 350 353
341 341 341 342 339 342 345 345 344 342 342 344 346 346 349 352 353 353 352 352 350 350 350 351 352 351 347 348 346 344 345 341 340 336 335 339 342 341 342 342 344 347 349
341 341 342 341 340 343 344 343 342 340 340 343 344 343 347 351 352 352 353 351 350 349 349 350 351 349 351 352 350 347 346 343 343 339 335 337 337 342 344 347 348 349 350

GFSSE_sfc_thetae_111.txt.gz
Theta_e
350 355 361 360 360 362 362 362 362 363 363 363 363 362 361 361 360 361 362 361 361 361 363 361 363 362 360 360 358 359 359 359 360 360 360 360 359 359 358 358 358 355 358
351 356 361 360 361 361 361 361 362 363 363 363 363 363 361 361 361 361 362 362 361 362 362 361 361 360 359 360 359 359 359 358 360 359 359 359 360 359 360 359 360 358 359
351 355 358 361 361 361 362 361 361 362 363 362 362 362 362 362 362 361 362 361 360 362 359 359 360 359 360 359 359 360 358 360 360 360 358 356 357 360 360 360 359 360 359
352 355 357 362 360 358 358 361 361 361 362 361 362 362 362 360 361 361 362 362 362 364 361 358 359 360 360 360 359 359 359 359 357 355 355 352 355 359 359 360 359 359 359
353 356 360 359 359 358 357 357 359 360 361 360 361 362 361 361 362 362 362 361 361 363 360 360 359 359 359 360 358 358 359 358 356 350 357 358 353 358 359 359 358 359 359
355 356 359 361 359 361 358 358 358 357 359 359 360 361 361 362 361 362 363 362 360 360 359 358 359 359 358 358 360 359 359 358 356 353 352 355 353 355 357 355 357 360 357
352 355 360 362 360 361 360 358 359 358 357 360 359 361 361 360 361 361 362 362 361 360 360 359 360 361 361 360 358 358 358 356 356 356 356 351 352 356 355 354 357 357 358
350 351 359 361 360 360 360 358 359 358 358 359 359 360 361 359 361 363 361 361 360 360 359 361 359 360 360 358 357 357 357 353 351 352 357 350 356 354 354 354 356 357 355
349 354 360 357 361 360 360 359 358 359 358 359 359 359 361 358 360 361 363 361 360 360 358 359 359 359 357 358 357 357 355 357 349 356 353 350 357 354 354 354 353 354 354
351 355 357 360 358 359 359 359 358 358 358 359 360 359 360 359 359 361 363 363 360 359 358 358 358 359 357 359 357 354 355 353 351 354 350 351 358 358 355 353 353 354 357
351 352 356 358 358 359 359 358 358 358 359 359 360 361 360 362 361 360 362 362 360 358 357 357 358 359 359 359 357 357 350 347 346 354 352 354 357 354 356 352 353 353 352
349 352 355 355 356 357 356 360 361 360 360 360 361 362 363 363 360 360 362 361 360 358 358 358 358 357 354 357 359 357 352 351 346 349 349 355 352 351 351 350 350 350 350
349 350 353 356 357 356 358 358 358 359 357 358 360 359 359 360 364 362 359 358 357 353 353 353 354 356 354 358 358 354 354 353 348 347 350 355 357 353 352 350 351 352 352
348 350 354 357 358 359 358 354 355 354 354 352 356 358 357 356 358 358 354 354 354 352 353 354 354 354 355 358 358 354 354 352 350 349 348 353 354 354 352 353 353 352 352
347 350 353 356 358 359 358 358 356 354 353 354 355 356 355 354 356 355 356 354 351 356 357 357 355 353 352 354 359 358 354 355 352 351 350 350 354 355 354 354 354 353 354
347 349 352 353 357 357 356 358 357 358 357 357 356 355 357 355 355 355 355 353 355 359 359 359 358 354 353 354 354 358 357 356 356 354 352 353 351 354 354 354 356 356 356
347 351 351 353 355 356 355 356 357 358 357 357 357 358 356 356 356 358 357 356 357 360 361 361 358 353 352 351 353 356 356 356 356 355 355 355 354 351 354 356 358 358 358
347 351 353 352 355 356 356 356 357 358 357 358 359 357 355 356 355 359 358 355 359 360 360 356 354 350 349 350 350 352 353 354 355 355 356 356 356 353 353 353 353 356 358
349 352 352 354 354 355 357 357 358 359 359 360 360 359 358 356 356 360 356 356 360 359 359 355 354 355 355 354 351 352 352 349 351 351 355 355 356 355 356 358 352 353 355
350 353 353 353 356 357 356 357 356 355 357 359 359 359 358 359 358 361 357 359 360 358 359 358 358 357 352 352 348 349 353 353 352 351 352 353 356 356 356 357 357 357 353
350 351 353 352 355 354 353 351 350 349 353 354 359 360 360 358 359 362 359 358 362 357 359 360 356 356 352 355 350 351 352 353 354 355 356 355 355 356 356 358 358 358 359
349 351 353 353 354 356 355 355 354 351 353 354 357 360 359 359 361 361 362 359 361 356 359 360 359 353 353 355 349 350 341 346 350 352 354 352 353 356 357 358 359 360 362
349 351 352 354 355 356 357 356 355 355 354 349 351 356 358 360 360 361 361 359 363 362 355 359 358 357 349 354 356 347 342 337 344 352 349 350 353 351 351 354 355 359 362
348 351 353 355 355 356 358 356 355 357 353 353 351 356 357 361 360 359 361 361 363 360 360 359 357 358 359 351 357 352 352 350 343 341 351 351 352 349 353 351 352 357 360
349 349 351 354 354 356 358 359 361 358 361 353 353 357 359 361 361 360 361 361 361 359 361 362 361 362 358 355 352 356 357 355 355 346 340 345 351 352 355 355 354 357 358
349 349 350 353 353 355 357 357 357 357 355 352 353 357 362 363 364 361 360 362 362 361 360 360 363 360 361 361 357 355 351 350 349 348 345 346 346 350 355 358 357 358 362

GFSSE_sfc_thetae_114.txt.gz
Theta_e
352 356 360 360 361 362 362 363 363 363 364 363 363 362 361 362 362 362 363 362 362 363 362 362 361 359 361 361 360 360 359 359 360 360 360 360 358 359 359 357 358 354 357
353 356 361 362 361 362 363 364 363 364 363 364 363 362 361 362 361 363 362 362 362 363 361 360 359 361 360 360 360 360 360 360 360 359 360 361 360 360 360 359 361 357 358
352 356 358 363 362 363 361 362 363 363 363 363 363 362 362 362 362 363 362 362 365 362 362 360 360 360 360 360 360 361 361 359 359 357 361 355 359 360 360 361 361 360 359
353 355 357 363 360 361 363 362 362 363 363 363 363 361 362 362 362 363 361 364 363 363 361 362 361 361 360 360 360 360 359 355 355 361 353 354 356 360 360 360 360 359 360
354 357 360 359 358 358 360 362 361 362 362 363 363 361 361 362 363 363 362 362 362 362 361 361 360 361 361 360 360 360 359 355 351 359 358 355 358 358 359 359 359 359 359
353 357 359 359 360 358 357 357 357 360 361 362 362 361 362 362 362 363 362 361 360 360 359 360 360 360 360 359 360 359 358 356 359 351 350 353 355 356 356 358 360 361 359
353 355 359 362 361 360 359 360 359 357 361 361 363 362 361 361 362 363 362 362 361 362 361 361 362 362 361 358 358 358 355 357 354 352 349 350 354 357 359 360 357 358 358
351 355 358 360 361 361 360 360 359 359 360 361 362 360 360 363 363 363 363 362 361 362 361 361 360 359 358 358 358 357 355 355 354 351 349 351 357 356 356 357 358 356 355
350 354 356 356 361 360 360 360 360 359 361 361 361 359 360 361 362 362 362 362 361 360 360 359 359 358 360 358 358 355 357 353 351 350 348 356 357 355 354 354 355 356 355
350 355 356 357 359 358 359 359 360 359 360 360 359 359 359 360 362 361 364 364 361 360 359 359 359 358 360 358 356 354 354 353 350 349 350 358 360 358 355 355 355 355 356
347 350 354 352 355 357 357 358 359 360 360 361 360 359 359 359 360 361 363 361 360 358 357 358 359 359 360 359 357 354 355 344 347 348 345 356 356 352 352 352 352 351 351
346 349 353 351 354 355 353 361 361 358 357 361 360 361 359 361 363 359 361 360 359 358 359 358 358 356 359 352 354 355 345 344 344 345 348 355 354 353 352 351 351 352 352
349 349 351 353 355 355 359 356 356 355 355 358 362 360 360 359 359 357 355 355 354 355 356 358 357 356 355 354 350 349 348 346 345 345 349 356 357 354 353 352 352 352 353
348 349 352 354 357 358 354 352 351 350 351 351 356 360 359 355 355 354 351 354 357 356 360 358 354 357 357 357 355 353 352 348 347 346 349 353 353 354 352 352 352 352 353
347 349 352 354 357 358 359 353 351 350 350 352 355 357 355 352 354 354 356 354 357 361 355 356 353 356 353 354 355 355 353 354 351 349 347 351 353 353 353 354 355 354 354
347 348 352 353 356 357 360 360 355 352 354 353 353 356 359 355 356 356 355 354 357 360 356 356 356 353 352 352 353 355 356 356 357 356 353 353 352 353 353 354 355 356 357
348 350 352 353 354 357 359 358 353 352 352 352 353 359 360 360 361 359 356 357 356 360 364 357 356 354 348 348 351 352 355 357 356 357 358 356 354 352 355 355 357 358 359
349 351 353 349 353 357 358 357 353 354 353 353 353 355 358 361 361 362 356 356 360 363 357 354 353 351 350 349 351 352 354 358 357 358 359 358 357 355 354 355 353 353 356
351 354 353 353 353 356 360 362 358 358 359 354 355 355 360 360 362 359 356 357 363 361 356 357 355 357 351 351 349 351 354 356 356 353 357 360 357 358 357 357 354 354 355
352 355 355 355 357 359 358 363 358 356 356 355 354 355 361 360 361 360 357 360 360 357 355 356 360 356 354 353 347 348 354 356 357 357 354 355 354 358 356 360 362 357 359
351 354 355 356 359 358 357 351 351 350 353 355 357 361 363 360 362 365 356 357 358 357 360 363 359 356 350 355 349 346 347 352 353 354 356 355 353 355 355 359 362 361 360
352 354 355 357 360 362 359 360 356 354 354 355 358 361 361 361 363 360 363 357 361 356 363 362 362 352 350 356 348 348 341 343 347 349 353 352 352 354 353 358 362 365 364
351 354 356 358 360 362 360 364 357 362 357 354 355 356 359 362 361 361 362 360 359 359 355 362 360 361 347 354 358 348 340 337 344 347 349 349 357 352 353 355 358 361 365
350 354 357 359 360 359 364 359 361 357 354 352 352 355 357 361 360 359 362 360 360 360 361 360 359 360 362 348 355 355 357 357 343 338 346 349 351 352 356 356 355 359 364
351 352 355 359 361 361 361 362 355 354 352 354 354 360 362 364 362 359 362 360 360 354 364 363 365 363 358 353 351 355 359 358 357 346 339 345 349 354 356 359 357 357 363
351 352 353 357 360 361 361 360 359 357 354 357 359 358 355 356 356 361 362 364 365 363 362 361 365 363 362 361 357 356 352 350 348 348 346 348 349 351 357 359 360 362 362

GFSSE_sfc_thetae_117.txt.gz
Theta_e
349 355 360 360 362 362 363 363 362 363 363 362 362 362 362 362 363 363 364 363 363 364 363 361 362 361 360 360 361 360 360 360 360 360 359 360 360 358 358 357 360 357 360
351 356 361 361 361 362 363 363 363 363 363 363 362 362 362 363 363 362 364 364 362 361 360 362 361 361 361 361 360 360 360 358 358 359 361 362 360 359 359 360 362 356 358
352 356 359 364 362 362 362 363 364 363 363 362 361 363 362 363 362 362 363 362 362 361 361 361 361 361 361 361 361 360 359 357 356 354 358 355 358 360 361 360 360 359 359
350 353 357 364 363 363 362 363 364 363 364 362 360 361 363 363 362 363 360 361 363 362 362 361 361 360 361 361 360 357 352 353 358 358 356 353 356 360 359 360 359 358 358
353 357 360 359 361 362 363 363 363 363 363 363 361 362 363 364 363 363 362 362 362 361 361 361 361 361 361 361 360 359 355 353 357 356 355 356 355 358 359 360 359 359 360
352 353 357 358 357 357 358 359 361 361 363 363 361 362 364 363 362 361 361 360 360 360 361 361 361 361 360 359 358 357 358 359 360 350 349 352 353 359 360 360 360 359 359
349 353 355 362 359 359 362 359 359 361 362 362 362 362 363 363 362 362 362 362 362 361 361 362 361 359 359 358 357 355 356 361 349 349 349 350 355 360 361 358 358 359 359
350 353 356 360 362 360 361 361 359 360 362 362 361 362 363 364 363 362 362 362 362 361 360 360 359 359 359 358 355 354 358 358 349 348 348 349 357 356 357 356 355 355 356
351 352 353 357 360 360 361 360 360 360 362 362 360 361 363 362 363 363 363 362 362 361 360 360 360 360 359 356 354 352 355 359 347 351 353 354 358 355 355 358 358 355 353
350 351 354 358 357 357 358 361 361 361 360 361 360 360 363 363 362 362 361 363 361 360 360 360 359 360 359 356 353 352 356 359 348 349 353 354 360 354 354 353 352 351 352
346 350 350 353 357 357 356 359 360 361 361 361 360 360 359 358 358 360 364 361 359 358 359 359 359 360 360 359 357 356 356 345 345 342 344 356 356 351 352 351 351 352 352
343 347 349 348 350 354 351 359 360 356 356 358 361 361 359 363 365 355 360 360 358 358 359 359 359 362 362 355 352 357 344 343 344 343 350 356 353 352 352 352 353 353 353
344 346 348 352 356 353 355 355 354 354 355 356 361 359 363 357 357 351 355 356 356 360 356 357 357 354 352 348 348 346 345 344 343 342 351 357 355 353 353 353 352 352 353
344 347 347 353 358 357 355 353 350 348 350 352 355 361 360 356 352 353 352 353 355 354 357 356 352 354 351 352 351 349 347 345 344 343 348 352 353 353 352 353 353 353 354
344 347 349 353 362 357 356 349 348 347 349 351 355 362 357 352 353 353 357 355 354 355 353 353 351 352 351 352 351 352 349 351 348 343 346 353 352 352 352 354 355 355 355
345 347 349 352 357 358 357 357 352 353 350 351 353 355 357 354 355 355 354 353 358 357 358 354 356 350 351 351 351 353 353 352 355 354 350 353 354 353 352 353 354 356 357
345 349 349 351 354 359 359 353 351 349 350 350 353 358 359 358 364 364 361 357 357 355 361 356 354 351 347 347 350 352 352 354 354 356 353 354 354 356 356 356 356 357 358
347 348 350 348 353 357 360 352 349 349 349 350 353 355 360 362 361 364 359 358 354 362 350 352 349 347 347 347 349 350 351 352 353 355 355 354 355 354 357 359 356 354 356
349 351 352 350 351 356 357 356 354 359 351 351 353 354 360 359 361 365 356 355 363 355 351 351 349 352 350 347 346 350 352 350 351 350 354 355 353 354 355 360 361 358 358
351 353 357 352 356 361 358 359 356 351 358 350 352 356 360 358 359 364 357 357 363 352 354 353 365 353 350 350 344 347 350 350 352 351 351 350 352 354 353 361 362 358 362
349 352 355 356 359 365 354 351 352 353 357 355 353 359 360 359 360 361 360 356 359 364 359 359 357 355 347 353 351 344 347 350 351 349 351 350 352 351 355 359 359 360 360
347 352 355 358 359 358 355 357 363 357 361 357 358 358 359 358 361 360 360 358 359 356 359 360 364 352 347 353 348 346 338 343 345 346 349 348 350 351 352 358 360 363 364
347 349 353 358 360 361 364 360 358 359 359 355 356 356 362 359 358 361 360 366 359 365 354 361 358 361 345 351 358 350 342 338 341 346 348 348 354 349 351 354 356 360 364
348 351 353 358 360 361 363 362 360 355 349 354 355 357 358 364 362 359 360 360 363 359 366 358 357 362 363 346 349 351 356 358 345 338 345 347 350 352 354 351 354 360 361
348 350 352 356 360 363 365 362 355 357 353 352 355 362 367 362 366 357 361 360 360 356 363 364 362 366 357 356 356 349 357 350 352 346 340 343 347 350 353 354 355 355 361
347 349 351 355 359 361 361 359 359 358 357 355 357 354 352 356 356 361 360 362 363 363 362 361 363 363 367 366 358 358 350 347 346 345 348 347 345 349 352 354 356 357 359

GFSSE_sfc_thetae_120.txt.gz
Theta_e
349 355 363 361 362 364 363 362 363 364 364 365 363 363 364 363 364 366 365 365 364 364 363 362 361 360 361 361 361 361 361 361 362 361 361 360 358 358 358 359 361 355 360
351 356 363 362 362 363 364 365 364 364 364 364 364 365 364 363 362 364 365 363 363 364 362 361 362 361 361 361 359 359 358 357 356 359 361 361 360 359 357 361 359 355 359
350 355 357 363 363 363 364 365 363 364 363 363 365 365 364 362 364 363 363 361 365 363 361 362 361 361 362 360 357 358 357 357 356 354 361 353 356 361 361 361 360 359 358
350 353 356 364 364 364 363 366 365 363 362 364 365 365 363 364 365 362 362 362 361 362 362 360 361 362 361 358 355 356 357 360 357 361 354 354 353 359 360 359 359 359 359
352 355 360 365 364 363 365 364 364 363 363 364 365 363 363 364 364 364 362 362 362 363 363 362 361 361 361 359 359 359 360 360 363 356 350 352 353 359 360 360 360 360 359
350 351 359 362 360 361 362 363 363 365 364 365 364 364 364 363 361 361 360 361 362 362 363 362 359 360 358 356 356 358 360 367 360 349 349 356 355 360 360 360 360 360 359
347 349 357 362 361 360 359 362 364 364 365 365 363 363 365 364 362 362 363 362 362 362 361 360 359 359 357 355 356 357 359 364 347 347 348 351 355 361 358 358 359 359 358
346 352 357 361 361 362 361 360 363 362 364 365 365 363 364 364 363 364 364 362 361 361 361 359 358 358 355 353 354 355 356 359 348 345 347 350 357 357 357 355 355 355 355
352 352 356 357 359 362 361 361 362 364 363 366 366 366 364 364 365 363 365 363 362 361 360 361 359 358 354 351 351 355 358 366 348 352 350 350 358 357 357 356 355 353 352
349 349 355 358 357 356 358 362 362 362 363 364 365 366 366 367 362 362 361 365 361 361 360 360 360 359 356 352 351 355 359 360 349 349 351 354 357 353 352 352 351 352 352
346 349 351 353 356 357 357 358 362 361 363 363 362 363 364 357 358 360 362 364 360 360 360 360 360 360 357 357 358 358 357 348 340 342 345 356 356 351 352 352 352 352 352
343 347 346 349 352 353 351 360 360 357 359 358 362 362 362 363 361 356 360 361 360 360 360 363 363 362 359 354 354 359 353 343 342 345 351 357 356 352 352 353 353 353 353
345 348 348 355 354 352 357 357 357 358 355 360 363 366 359 358 355 354 356 355 359 361 358 359 359 358 359 355 350 347 343 341 340 344 356 359 356 353 353 353 352 352 353
343 345 351 356 360 360 356 355 352 353 354 355 357 356 363 357 362 349 353 360 356 362 359 356 355 359 352 351 349 348 344 342 340 342 352 357 356 353 352 353 353 353 354
344 346 353 357 361 353 366 361 353 350 349 354 357 358 363 358 362 351 351 355 350 354 355 356 358 355 353 354 354 351 349 351 341 343 346 357 356 354 353 354 354 354 355
344 345 352 352 361 356 366 364 360 347 353 352 353 352 366 355 362 356 356 351 349 355 360 358 359 353 352 353 353 355 354 355 357 349 348 352 359 357 355 354 354 355 357
345 346 350 352 358 361 362 360 350 355 352 355 357 360 358 357 359 356 362 350 358 366 364 362 360 358 351 349 354 355 355 357 357 358 352 351 354 360 360 358 357 358 358
344 347 350 351 355 358 359 361 353 352 352 353 358 362 366 365 357 362 359 363 366 369 363 357 357 354 352 353 354 354 354 354 356 358 357 354 354 351 361 362 361 361 359
347 348 348 355 354 356 364 355 357 366 355 356 357 358 366 366 354 357 354 362 363 364 351 360 353 353 355 352 350 354 354 354 351 351 354 353 354 355 355 360 361 361 361
350 352 352 350 353 359 358 367 364 364 351 359 360 359 364 364 356 354 361 362 363 356 349 360 363 361 355 345 347 350 354 353 354 354 352 352 352 354 357 358 359 357 362
349 351 355 352 359 360 357 346 356 359 365 357 360 364 368 364 362 354 365 362 352 352 363 364 363 361 358 361 362 352 351 352 354 350 354 348 353 352 356 360 364 360 356
351 347 355 357 361 360 358 361 351 363 359 362 363 364 365 364 364 366 365 366 366 364 363 364 366 363 354 359 356 348 343 347 349 347 352 349 350 351 355 360 361 361 363
352 352 355 358 362 360 349 351 354 360 352 360 355 360 364 364 364 361 368 368 363 355 355 365 367 360 357 356 361 350 338 337 343 347 349 348 353 352 354 356 362 363 363
347 356 359 360 361 360 364 357 350 348 348 354 358 361 357 362 364 360 364 367 362 346 351 364 364 366 357 356 357 348 332 345 343 337 347 347 353 352 353 357 357 361 364
347 348 359 361 360 362 365 363 358 363 356 346 360 358 367 369 363 357 364 367 368 359 363 364 367 368 365 361 355 357 353 355 336 329 323 334 348 353 353 354 350 357 359
346 348 352 359 360 363 360 361 363 361 353 357 354 357 357 361 363 367 363 366 370 369 360 365 368 367 369 368 362 358 341 339 339 331 331 339 333 337 346 344 339 346 355

GFSSE_sfc_thetae_123.txt.gz
Theta_e
347 355 362 363 361 362 363 362 362 363 363 364 365 364 363 362 362 363 363 363 363 365 364 361 362 362 362 361 360 361 361 362 363 361 359 358 359 359 360 360 360 353 357
352 357 363 364 362 363 364 363 363 364 363 365 364 364 363 362 362 362 364 363 363 364 362 362 362 362 359 358 359 358 358 359 360 360 362 360 360 360 361 360 359 357 359
353 356 358 364 364 363 364 364 364 364 363 365 363 364 365 363 362 362 364 362 363 364 362 362 362 360 358 358 359 359 357 358 356 360 360 355 355 360 361 360 359 359 359
352 354 358 363 364 363 363 364 365 362 363 363 363 364 365 363 365 363 362 362 364 364 362 362 361 358 358 359 358 359 359 361 362 359 353 352 354 360 360 359 359 359 359
351 355 357 366 366 363 363 363 366 365 363 363 364 365 363 364 363 362 362 363 362 364 362 362 361 360 359 360 360 360 361 362 362 355 351 352 354 358 361 361 360 360 359
352 357 362 364 364 364 363 364 363 365 363 364 365 365 364 363 361 361 361 362 362 362 360 361 358 357 357 359 359 362 363 362 357 352 353 355 353 360 360 360 360 360 359
347 352 355 363 362 362 363 363 364 364 364 363 364 364 365 363 361 362 363 363 362 361 359 359 358 357 356 356 357 359 363 358 346 347 348 351 353 360 360 360 359 358 357
350 351 353 362 363 361 362 363 363 362 363 364 366 364 364 364 363 366 363 361 361 360 359 357 356 356 354 352 354 359 361 358 347 345 347 349 357 357 355 356 355 354 354
353 353 353 354 359 360 363 363 362 362 363 364 364 365 363 363 363 364 365 362 361 361 359 357 356 354 353 350 352 357 364 358 345 346 348 349 359 358 354 354 353 352 353
350 351 351 352 353 353 356 363 363 362 363 364 364 364 364 363 363 363 365 365 361 360 360 358 355 354 354 356 356 360 363 360 347 351 350 350 356 352 352 351 352 352 352
345 349 350 351 350 352 353 357 361 362 363 365 363 365 364 353 353 357 360 364 361 360 359 360 358 357 356 356 359 358 358 342 340 343 346 354 355 352 352 352 352 352 352
343 345 348 350 349 350 353 353 352 356 354 353 354 356 354 352 351 355 358 360 358 361 360 360 360 358 358 352 348 355 345 337 341 344 348 356 356 352 353 353 353 353 352
343 345 345 346 347 347 349 352 350 352 352 353 354 353 350 351 351 351 352 351 351 357 353 359 359 358 355 355 352 347 341 338 340 345 353 357 357 353 354 353 352 352 353
341 345 347 347 346 348 350 351 349 349 349 351 352 351 351 349 347 347 348 347 348 351 350 350 352 353 351 350 345 338 333 334 337 346 353 358 358 355 354 354 354 354 355
340 344 347 348 349 349 350 350 348 345 348 349 350 349 349 352 350 342 346 342 346 350 347 344 345 347 344 344 344 342 337 334 337 341 345 356 359 358 356 356 356 356 356
344 346 348 350 346 345 350 350 345 346 347 346 342 347 348 347 343 344 346 342 344 348 348 345 343 343 343 344 342 345 344 341 338 340 343 349 359 359 359 357 357 357 358
343 346 345 349 351 348 344 343 343 349 350 346 340 347 351 346 350 343 340 345 344 346 347 344 343 345 342 345 343 344 345 346 344 343 344 346 352 360 361 361 362 362 362
344 343 346 350 350 348 347 345 345 347 346 349 348 355 353 353 349 347 344 345 351 353 356 350 344 343 340 340 341 343 345 346 346 345 346 346 347 349 359 363 363 362 363
344 343 345 350 347 348 350 350 346 346 348 348 348 351 353 347 349 346 348 349 350 350 347 347 348 345 340 340 343 343 344 344 345 350 346 347 346 347 349 358 361 361 362
345 345 349 349 348 349 349 351 348 349 346 348 349 350 352 351 349 346 347 339 340 345 349 351 350 346 337 340 344 345 342 345 345 344 344 348 348 348 348 346 352 355 361
345 347 346 345 348 350 346 341 343 343 350 349 350 352 354 348 339 345 346 331 336 339 344 350 351 350 341 335 346 342 340 340 342 343 344 344 346 348 349 351 350 351 353
342 346 347 348 348 347 346 345 346 349 348 352 350 353 352 351 352 354 350 340 339 348 347 348 350 351 344 344 340 344 334 337 341 340 342 347 341 346 347 351 355 354 351
341 344 348 346 346 346 344 348 346 348 344 345 348 346 351 352 350 353 354 351 346 344 345 351 353 350 348 348 346 338 330 329 336 336 337 340 344 345 347 347 353 354 354
341 343 348 348 348 345 342 343 341 340 338 345 346 348 348 351 352 354 350 351 344 336 335 349 356 354 351 347 342 339 334 341 334 331 333 336 344 340 344 343 344 351 353
344 346 350 348 348 349 346 345 342 342 343 346 348 352 352 350 349 352 349 352 349 341 347 350 353 353 355 349 348 346 345 338 333 327 324 331 337 339 343 344 340 344 338
348 350 351 349 348 350 348 347 345 344 345 343 346 349 348 349 349 353 353 350 352 352 348 351 353 350 354 352 348 339 339 335 333 328 324 325 327 332 338 345 340 346 345

GFSSE_sfc_thetae_126.txt.gz
Theta_e
347 354 362 361 361 360 361 361 360 362 362 362 363 362 361 362 362 362 362 361 361 362 362 362 361 361 361 362 361 361 361 361 360 360 360 359 360 360 360 360 357 352 358
352 356 362 361 362 363 362 362 362 363 363 362 362 362 362 361 361 362 362 362 362 362 362 360 359 359 360 360 359 360 360 359 360 360 360 360 361 361 360 360 358 356 359
353 355 358 364 362 362 362 362 362 363 363 362 363 363 362 361 362 362 362 362 362 362 362 361 360 360 360 360 358 359 358 359 361 361 360 353 355 360 360 358 359 359 359
354 355 357 363 364 363 362 362 363 363 363 363 364 363 363 362 363 362 362 361 362 362 361 359 359 359 359 358 359 358 362 361 360 359 352 353 355 360 360 358 359 359 358
353 355 357 364 365 363 363 363 364 364 362 362 362 362 362 363 363 362 362 362 361 361 361 359 360 360 359 358 359 360 362 360 360 355 352 351 353 358 360 360 359 358 359
353 355 363 365 363 364 363 362 363 363 363 363 363 363 363 361 361 361 361 361 361 361 360 359 359 359 359 359 359 361 362 361 358 352 351 355 352 359 359 359 360 359 358
352 355 358 365 364 363 363 363 363 363 363 363 364 362 361 361 362 363 362 363 361 358 359 357 358 358 359 358 363 361 359 358 349 349 350 350 354 361 360 359 357 357 357
349 351 353 361 362 362 363 363 362 363 364 363 364 363 363 363 362 364 361 359 357 357 356 355 356 356 356 356 360 363 359 355 349 347 348 349 356 357 357 355 354 353 353
350 350 353 352 356 362 363 362 363 363 364 363 363 362 363 363 362 361 361 360 358 356 354 353 352 353 355 356 358 363 356 352 345 346 349 350 359 354 354 353 352 352 352
349 350 350 351 351 353 355 362 362 363 364 363 363 362 363 362 362 361 364 363 358 358 355 353 351 352 353 355 357 365 358 355 346 346 347 349 357 354 352 352 351 351 351
349 347 349 349 349 351 353 357 361 363 363 363 362 362 362 352 353 354 359 361 358 357 356 356 355 355 356 356 357 360 359 342 344 344 345 353 355 351 351 351 351 351 351
344 346 347 347 348 350 355 352 352 355 355 354 354 354 351 350 349 355 357 359 357 358 358 359 360 360 358 351 348 353 338 337 340 343 345 355 354 351 351 352 352 352 352
344 346 347 347 347 346 351 350 350 351 351 351 352 352 350 350 349 350 348 345 348 355 351 355 357 357 354 352 352 345 336 337 340 343 350 356 354 352 352 352 352 353 353
341 344 344 345 346 346 347 349 347 348 349 349 350 348 346 345 345 345 341 347 347 349 348 348 350 352 349 348 346 346 333 336 340 346 350 356 358 354 354 353 354 354 355
340 343 345 345 345 346 348 347 347 345 347 348 350 347 348 342 344 343 343 342 342 346 345 344 345 348 347 342 338 337 331 334 337 345 346 355 358 358 355 356 357 356 357
341 343 345 347 348 347 347 346 344 344 346 346 344 347 350 347 341 343 344 341 339 341 343 344 342 341 340 340 340 334 333 334 336 339 342 347 358 359 358 358 358 358 358
343 344 346 344 345 345 346 346 344 347 346 336 341 345 347 348 343 338 339 342 343 345 349 344 342 342 341 344 341 341 340 336 338 338 341 343 349 359 358 360 363 363 362
343 343 346 350 346 344 341 341 345 344 336 341 343 348 348 347 344 341 343 345 349 351 349 349 345 340 339 339 339 340 343 343 339 340 342 343 346 348 354 363 363 364 363
342 341 343 345 345 345 346 346 345 344 340 345 347 349 346 347 349 345 345 347 346 345 345 347 343 340 337 340 341 341 342 342 342 345 343 343 343 345 345 352 361 362 362
342 342 344 345 343 347 346 347 343 344 343 344 347 347 346 341 345 343 346 340 337 342 345 347 347 340 336 338 346 345 341 343 343 343 342 346 344 345 344 346 347 352 359
342 343 346 344 344 347 344 343 340 342 344 344 346 347 352 345 342 345 346 329 336 344 346 347 348 347 335 334 340 340 339 339 341 341 344 343 344 348 349 350 349 352 351
341 344 343 343 345 345 344 344 344 345 348 346 346 349 349 344 344 350 345 336 345 345 345 349 349 347 343 343 338 340 333 336 336 342 344 343 343 346 345 349 352 352 353
342 342 343 344 344 343 343 343 343 344 345 347 347 345 348 349 349 349 350 347 343 341 343 348 350 348 344 339 335 336 329 327 335 336 339 340 339 342 343 344 349 346 349
342 344 345 344 344 343 340 341 339 337 335 340 343 343 347 348 348 352 351 347 340 333 339 346 354 351 346 344 336 338 336 336 329 326 332 336 339 339 340 343 344 347 342
342 345 344 345 344 343 338 341 340 339 339 342 344 345 347 347 348 351 348 347 344 339 348 350 350 350 351 345 343 341 335 334 329 328 326 327 335 339 341 342 343 344 345
341 345 345 344 343 343 341 341 341 339 339 339 341 345 344 345 344 349 348 349 348 348 345 349 349 349 350 347 341 340 335 332 332 328 323 324 327 334 337 338 340 339 343

GFSSE_sfc_thetae_129.txt.gz
Theta_e
345 353 359 359 360 360 360 360 360 360 360 361 360 360 360 361 361 361 360 360 360 360 360 360 360 361 361 361 361 361 361 359 358 358 360 361 361 360 359 357 357 354 358
350 355 361 360 359 360 360 360 361 361 361 360 360 361 361 361 361 361 360 359 360 360 359 359 359 360 360 360 360 360 360 361 360 360 360 360 361 360 358 358 358 356 358
352 354 356 361 361 361 361 361 361 361 361 361 361 361 360 361 361 361 360 360 360 360 360 360 360 361 360 359 359 359 360 360 361 360 360 354 355 359 357 359 359 358 358
353 354 356 361 362 361 361 361 361 361 361 361 361 361 361 361 361 361 361 360 361 360 360 360 360 359 360 359 359 360 360 360 360 359 352 353 354 358 358 359 358 358 357
352 354 356 361 360 361 361 362 361 361 362 362 361 361 361 361 361 359 360 361 362 360 359 361 360 359 360 360 360 360 360 360 359 355 351 351 353 357 358 358 357 358 357
352 354 361 363 362 361 362 362 361 361 361 361 360 361 361 361 361 360 361 360 361 359 359 360 359 358 359 358 359 360 360 360 358 352 352 355 352 359 358 359 359 358 357
351 356 358 365 363 362 362 362 362 360 359 362 361 361 360 360 360 360 361 360 358 357 356 358 359 359 359 361 359 359 358 358 349 349 350 351 354 361 360 359 358 357 355
351 354 356 362 363 362 362 362 362 362 361 361 361 361 360 361 362 361 358 357 356 355 355 356 357 357 357 361 360 358 357 357 350 347 348 349 357 358 356 355 353 353 353
350 349 349 352 357 362 362 362 362 362 361 362 362 362 361 361 360 359 359 357 355 355 354 354 354 355 356 358 359 357 354 355 345 346 350 350 357 354 353 352 351 352 352
347 350 349 347 351 352 354 361 361 362 362 362 361 361 361 361 360 360 361 361 358 355 354 355 355 356 357 359 361 356 351 352 343 345 347 349 356 353 352 350 350 351 351
348 346 348 347 349 351 353 357 359 362 362 361 360 361 358 351 352 354 358 360 358 357 357 357 356 358 359 356 359 358 357 344 344 344 343 353 355 349 350 350 351 351 351
343 344 346 346 348 350 355 351 350 356 354 352 352 350 349 348 349 354 357 361 361 360 360 360 360 358 357 350 348 353 340 339 341 341 343 354 351 349 350 351 351 352 352
344 346 346 345 347 347 349 349 349 351 351 350 350 349 348 347 349 349 341 344 347 354 349 351 353 354 353 349 350 337 335 336 337 342 346 354 351 350 350 350 352 353 354
342 343 346 346 346 345 348 347 347 348 349 348 348 347 345 344 342 342 339 345 345 346 349 347 347 349 349 349 346 343 333 336 337 342 346 353 353 352 352 353 354 355 355
341 343 344 345 344 345 346 347 346 346 347 347 348 346 346 344 341 342 342 339 339 343 342 344 342 344 345 340 341 340 332 335 338 343 344 354 355 355 355 355 357 358 358
340 342 343 344 345 345 345 345 344 344 345 346 346 346 346 341 341 341 343 341 339 339 342 344 340 340 339 338 335 332 332 333 335 339 341 343 357 356 356 356 358 359 359
340 342 342 343 345 345 344 343 343 344 344 340 342 345 347 346 339 337 339 340 345 348 347 342 340 340 341 342 337 334 333 334 334 335 338 341 344 356 357 357 360 362 361
341 342 344 347 344 342 341 343 344 345 341 336 344 346 348 344 337 336 341 344 346 346 344 344 343 339 338 339 338 338 340 338 336 336 337 340 342 346 349 355 360 364 363
341 342 343 344 342 341 340 341 343 341 335 341 346 346 347 348 347 343 344 344 342 345 347 345 339 338 336 338 339 340 340 341 341 342 339 340 341 343 345 350 354 355 361
341 343 343 342 341 344 345 342 341 341 339 342 345 347 343 345 342 342 344 334 336 342 346 346 346 334 336 337 342 341 342 341 343 341 341 344 343 346 346 348 347 349 356
340 339 341 340 341 343 340 338 337 341 340 341 344 346 342 344 343 342 338 329 341 343 345 348 346 337 334 335 338 339 338 339 340 342 344 344 344 346 347 351 353 353 353
338 340 342 340 342 342 341 342 341 342 342 342 344 345 346 337 343 347 342 333 344 342 347 348 347 344 341 337 336 335 329 333 335 340 339 341 342 345 345 347 349 349 351
338 341 341 341 343 342 342 343 342 342 343 344 344 345 346 347 348 349 347 344 340 340 343 348 349 345 338 332 334 335 327 327 331 334 335 337 338 340 342 343 345 347 344
339 343 341 342 342 342 342 341 339 337 336 339 342 341 344 347 346 349 348 344 337 333 342 348 351 348 344 334 334 336 333 334 329 325 330 333 336 338 337 339 343 345 344
341 342 342 341 341 340 340 341 339 336 336 340 342 341 341 344 346 350 348 344 335 339 346 347 347 348 346 341 334 335 332 332 328 327 325 327 331 338 340 339 340 339 341
342 342 342 341 339 340 337 340 339 338 337 338 339 341 341 342 343 346 345 346 345 346 345 347 345 347 347 340 339 338 332 328 327 325 320 320 325 331 335 337 335 336 338